ftp/pub/palmer/observations_modified/2019/November/AR191112_BASE.txt

Download

Sample DateTime	Unit Id	WS Avg 2min	WD Avg 2min	WGS 10min	WGD 10min	Air Temp	Rel Humidity	Dew Point	Pyranometer	Quantum	Air Pressure	Snow Level	Rainfall	PW Current	Visibility	CBase 1	CBase 2	CBase 3	Vert Vis
2019/11/12  00:00:01  BASE  5.74476  307  7.59108  304  -1.8  100   -1.8  27    0     983.7    NA       0.0000   BR       3500  360   0    
2019/11/12  00:01:00  BASE  5.71536  310  7.59108  304  -1.8  100   -1.8  25    0     983.7    NA       0.0000   BR       3500  360   0    
2019/11/12  00:02:01  BASE  5.52132  311  7.59108  304  -1.8  100   -1.8  24    0     983.7    NA       0.0000   BR       3500  590   0    
2019/11/12  00:03:00  BASE  5.60364  309  7.59108  304  -1.8  100   -1.8  24    0     983.7    NA       0.0000   BR       3500  430   0    
2019/11/12  00:04:01  BASE  5.5566   312  7.59108  304  -1.8  100   -1.8  23    0     983.7    NA       0.0000   BR       3500  490   0    
2019/11/12  00:05:01  BASE  5.16852  312  6.74436  310  -1.8  100   -1.8  23    0     983.7    NA       0.0000   BR       3500  560   0    
2019/11/12  00:06:00  BASE  5.08032  311  6.74436  310  -1.8  100   -1.8  22    0     983.7    NA       0.0000   BR       3500  590   0    
2019/11/12  00:07:00  BASE  5.45664  308  6.74436  310  -1.8  100   -1.8  20    0     983.7    NA       0.0000   BR       3500  660   0    
2019/11/12  00:08:00  BASE  5.80944  306  6.74436  307  -1.8  100   -1.8  19    0     983.7    NA       0.0000   BR       3400  660   0    
2019/11/12  00:09:00  BASE  5.50368  310  6.74436  307  -1.8  100   -1.8  18    0     983.7    NA       0.0000   BR       3400  590   0    
2019/11/12  00:10:01  BASE  5.45076  311  6.74436  307  -1.8  100   -1.8  17    0     983.7    NA       0.0000   BR       3400  660   21520
2019/11/12  00:11:01  BASE  5.56836  311  6.74436  307  -1.8  100   -1.8  16    0     983.7    NA       0.0000   BR       3400  490   0    
2019/11/12  00:12:01  BASE  5.44488  311  6.74436  307  -1.9  100   -1.9  15    0     983.7    NA       0.0000   BR       3400  390   0    
2019/11/12  00:13:01  BASE  5.62716  310  6.74436  307  -1.9  100   -1.9  15    0     983.8    NA       0.0000   BR       3400  390   0    
2019/11/12  00:14:00  BASE  5.75064  310  6.80316  307  -1.9  100   -1.9  14    0     983.8    NA       0.0000   -SN      BR    3400  360  
2019/11/12  00:15:00  BASE  5.9094   308  6.80316  307  -1.9  100   -1.9  13    0     983.8    NA       0.0000   -SN      BR    3400  390  
2019/11/12  00:16:01  BASE  5.84472  308  6.80316  307  -1.9  100   -1.9  13    0     983.9    NA       0.0000   -SN      BR    3700  390  
2019/11/12  00:17:01  BASE  5.72712  310  6.80316  307  -1.9  100   -1.9  12    0     983.9    NA       0.0000   -SN      BR    7000  360  
2019/11/12  00:18:01  BASE  5.7624   310  6.80316  307  -1.9  100   -1.9  11    0     983.9    NA       0.0000   -SN      BR    7000  360  
2019/11/12  00:19:01  BASE  5.8506   310  6.80316  307  -1.9  100   -1.9  10    0     983.9    NA       0.0000   -SN      BR    7000  390  
2019/11/12  00:20:02  BASE  5.86236  311  6.80316  307  -1.9  100   -1.9  10    0     983.9    NA       0.0000   -SN      BR    7000  360  
2019/11/12  00:21:01  BASE  5.74476  310  6.80316  307  -1.9  100   -1.9  9     0     984.0    NA       0.0000   -SN      BR    7000  330  
2019/11/12  00:22:01  BASE  5.66244  311  6.80316  307  -1.9  100   -1.9  9     0     984.0    NA       0.0000   -SN      BR    7000  330  
2019/11/12  00:23:00  BASE  5.89176  312  7.44408  307  -1.9  100   -1.9  9     0     984.0    NA       0.0000   -SN      BR    7000  360  
2019/11/12  00:24:01  BASE  6.027    311  7.44408  307  -1.9  100   -1.9  9     0     983.9    NA       0.0000   -SN      BR    7000  330  
2019/11/12  00:25:01  BASE  5.54484  309  7.44408  307  -1.9  100   -1.9  9     0     984.0    NA       0.0000   -SN      BR    7000  330  
2019/11/12  00:26:01  BASE  5.27436  310  7.44408  307  -1.9  100   -1.9  8     0     984.0    NA       0.0000   -SN      BR    7000  330  
2019/11/12  00:27:01  BASE  5.43312  310  7.44408  307  -1.9  100   -1.9  7     0     984.0    NA       0.0000   -SN      BR    7000  330  
2019/11/12  00:28:01  BASE  5.73888  307  7.44408  307  -1.9  100   -1.9  7     0     984.0    NA       0.0000   -SN      BR    7000  360  
2019/11/12  00:29:01  BASE  5.92704  305  7.44408  307  -1.9  100   -1.9  6     0     984.0    NA       0.0000   BR       7000  330   0    
2019/11/12  00:30:01  BASE  5.72124  307  7.44408  307  -1.9  100   -1.9  6     0     984.0    NA       0.0000   BR       7000  300   0    
2019/11/12  00:31:02  BASE  5.78004  307  7.44408  307  -1.9  100   -1.9  6     0     984.0    NA       0.0000   BR       7000  330   0    
2019/11/12  00:32:02  BASE  5.92116  305  7.44408  307  -1.9  100   -1.9  6     0     984.0    NA       0.0000   BR       7000  330   0    
2019/11/12  00:33:02  BASE  5.76828  307  6.59148  311  -1.9  100   -1.9  6     0     984.0    NA       0.0000   -SN      BR    7000  360  
2019/11/12  00:34:01  BASE  5.82708  307  6.80316  310  -2.0  100   -2.0  6     0     984.0    NA       0.0000   -SN      BR    8000  330  
2019/11/12  00:35:01  BASE  5.78592  308  6.80316  310  -2.0  100   -2.0  6     0     984.1    NA       0.0000   -SN      BR    8000  360  
2019/11/12  00:36:00  BASE  5.7036   311  6.80316  310  -2.0  100   -2.0  6     0     984.1    NA       0.0000   -SN      BR    8000  360  
2019/11/12  00:37:01  BASE  5.84472  313  6.80316  310  -2.0  100   -2.0  5     0     984.1    NA       0.0000   -SN      BR    8000  390  
2019/11/12  00:38:01  BASE  5.91528  312  6.80316  310  -2.0  100   -2.0  5     0     984.1    NA       0.0000   -SN      BR    8000  360  
2019/11/12  00:39:01  BASE  5.96232  314  6.80316  310  -2.0  100   -2.0  5     0     984.1    NA       0.0000   -SN      BR    8000  360  
2019/11/12  00:40:00  BASE  5.97996  315  6.80316  310  -2.0  100   -2.0  4     0     984.1    NA       0.0000   -SN      BR    8000  360  
2019/11/12  00:41:00  BASE  5.87412  314  6.80316  310  -2.0  100   -2.0  4     0     984.2    NA       0.0000   -SN      BR    9000  390  
2019/11/12  00:42:01  BASE  6.01524  313  7.13832  313  -2.0  100   -2.0  4     0     984.1    NA       0.0000   -SN      BR    9999  360  
2019/11/12  00:43:01  BASE  6.00348  314  7.13832  313  -2.0  100   -2.0  4     0     984.2    NA       0.0000   -SN      BR    9999  360  
2019/11/12  00:44:00  BASE  6.19752  312  7.2912   315  -2.0  100   -2.0  4     0     984.2    NA       0.0000   -SN      BR    9999  390  
2019/11/12  00:45:01  BASE  6.174    309  7.2912   315  -2.0  100   -2.0  4     0     984.2    NA       0.0000   BR       9999  390   0    
2019/11/12  00:46:00  BASE  5.89764  308  7.2912   315  -2.0  100   -2.0  4     0     984.2    NA       0.0000   9999     360   0     0    
2019/11/12  00:47:01  BASE  5.586    308  7.2912   315  -2.0  100   -2.0  4     0     984.2    NA       0.0000   9999     390   0     0    
2019/11/12  00:48:01  BASE  5.4978   309  7.2912   315  -2.0  100   -2.0  3     0     984.2    NA       0.0000   9999     360   0     0    
2019/11/12  00:49:01  BASE  5.72712  308  7.2912   315  -2.0  100   -2.0  3     0     984.2    NA       0.0000   9999     390   0     0    
2019/11/12  00:50:02  BASE  5.63892  307  7.2912   315  -2.0  100   -2.0  3     0     984.2    NA       0.0000   9999     390   0     0    
2019/11/12  00:51:01  BASE  5.6154   306  7.2912   315  -2.0  100   -2.0  3     0     984.2    NA       0.0000   -SN      9000  360   0    
2019/11/12  00:52:01  BASE  5.76828  308  7.2912   315  -2.0  100   -2.0  3     0     984.2    NA       0.0000   -SN      9000  330   1310 
2019/11/12  00:53:01  BASE  5.86824  308  7.2912   315  -2.0  100   -2.0  3     0     984.3    NA       0.0000   -SN      9000  360   1150 
2019/11/12  00:54:01  BASE  5.36256  310  6.74436  312  -2.0  100   -2.0  3     0     984.3    NA       0.0000   -SN      BR    9000  360  
2019/11/12  00:55:01  BASE  5.15088  311  6.74436  312  -2.0  100   -2.0  2     0     984.3    NA       0.0000   -SN      BR    9000  360  
2019/11/12  00:56:01  BASE  5.19792  310  6.68556  301  -2.0  100   -2.0  2     0     984.3    NA       0.0000   -SN      BR    8000  390  
2019/11/12  00:57:01  BASE  5.09796  310  6.68556  301  -2.0  100   -2.0  2     0     984.3    NA       0.0000   -SN      BR    9000  390  
2019/11/12  00:58:01  BASE  5.33904  310  6.77376  314  -2.0  100   -2.0  2     0     984.3    NA       0.0000   -SN      BR    9000  720  
2019/11/12  00:59:01  BASE  5.56248  312  6.77376  314  -2.0  100   -2.0  2     0     984.3    NA       0.0000   -SN      BR    9000  750  
2019/11/12  01:00:01  BASE  5.5272   312  6.77376  314  -2.0  100   -2.0  1     0     984.3    NA       0.0000   -SN      BR    9000  620  
2019/11/12  01:01:01  BASE  5.52132  313  6.77376  314  -2.0  100   -2.0  1     0     984.4    NA       0.0000   -SN      BR    9000  620  
2019/11/12  01:02:00  BASE  5.33316  313  6.77376  314  -2.0  100   -2.0  1     0     984.4    NA       0.0000   -SN      BR    9999  720  
2019/11/12  01:03:01  BASE  5.30964  313  6.77376  314  -2.0  100   -2.0  1     0     984.4    NA       0.0000   -SN      BR    9999  720  
2019/11/12  01:04:01  BASE  5.18616  315  6.77376  314  -2.1  100   -2.1  1     0     984.5    NA       0.0000   -SN      BR    9999  750  
2019/11/12  01:05:01  BASE  5.1156   317  6.77376  314  -2.1  100   -2.1  1     0     984.5    NA       0.0000   -SN      BR    9999  720  
2019/11/12  01:06:00  BASE  5.45076  316  6.77376  314  -2.1  100   -2.1  1     0     984.5    NA       0.0000   -SN      9999  690   0    
2019/11/12  01:07:01  BASE  5.62716  314  6.77376  314  -2.1  100   -2.1  1     0     984.5    NA       0.0000   9999     690   0     0    
2019/11/12  01:08:01  BASE  5.44488  314  6.47388  311  -2.1  100   -2.1  1     0     984.5    NA       0.0000   9999     890   2660  0    
2019/11/12  01:09:00  BASE  5.145    313  6.47388  311  -2.1  100   -2.1  1     0     984.5    NA       0.0000   9999     890   2760  0    
2019/11/12  01:10:00  BASE  5.40372  310  6.47388  311  -2.1  100   -2.1  1     0     984.6    NA       0.0000   9999     890   2950  0    
2019/11/12  01:11:01  BASE  5.57424  306  6.47388  311  -2.1  100   -2.1  0     0     984.6    NA       0.0000   9999     2990  0     0    
2019/11/12  01:12:00  BASE  5.22144  304  6.47388  311  -2.1  100   -2.1  0     0     984.6    NA       0.0000   9999     850   3020  0    
2019/11/12  01:13:00  BASE  4.89216  305  6.47388  311  -2.1  100   -2.1  0     0     984.6    NA       0.0000   9999     980   3020  0    
2019/11/12  01:14:00  BASE  4.60404  309  6.47388  311  -2.1  100   -2.1  0     0     984.6    NA       0.0000   9999     950   3020  0    
2019/11/12  01:15:01  BASE  4.65108  310  6.47388  311  -2.1  100   -2.1  0     0     984.6    NA       0.0000   9999     850   3050  0    
2019/11/12  01:16:01  BASE  4.79808  307  6.47388  311  -2.1  100   -2.1  0     0     984.6    NA       0.0000   9999     920   2950  0    
2019/11/12  01:17:01  BASE  4.76868  310  6.3504   309  -2.1  100   -2.1  0     0     984.6    NA       0.0000   9999     920   3150  0    
2019/11/12  01:18:01  BASE  4.75104  313  6.3504   309  -2.1  100   -2.1  0     0     984.6    NA       0.0000   9999     890   2950  0    
2019/11/12  01:19:00  BASE  4.62756  315  6.3504   309  -2.1  100   -2.1  0     0     984.7    NA       0.0000   9999     820   0     0    
2019/11/12  01:20:01  BASE  4.72164  315  6.10932  302  -2.1  100   -2.1  0     0     984.7    NA       0.0000   9999     920   0     0    
2019/11/12  01:21:01  BASE  4.92156  313  5.80944  305  -2.1  100   -2.1  0     0     984.7    NA       0.0000   9999     790   0     0    
2019/11/12  01:22:01  BASE  4.97448  316  5.80944  305  -2.1  100   -2.1  0     0     984.7    NA       0.0000   9999     920   0     0    
2019/11/12  01:23:01  BASE  4.81572  317  5.80944  305  -2.1  100   -2.1  0     0     984.7    NA       0.0000   9999     850   3120  0    
2019/11/12  01:24:01  BASE  4.7334   313  5.80944  305  -2.1  100   -2.1  0     0     984.7    NA       0.0000   9999     790   0     0    
2019/11/12  01:25:00  BASE  4.80984  311  5.74476  315  -2.1  100   -2.1  0     0     984.7    NA       0.0000   9999     790   0     0    
2019/11/12  01:26:01  BASE  4.91568  309  5.74476  315  -2.1  100   -2.1  0     0     984.7    NA       0.0000   9999     890   0     0    
2019/11/12  01:27:01  BASE  4.92744  307  5.74476  315  -2.1  100   -2.1  0     0     984.8    NA       0.0000   9999     920   0     0    
2019/11/12  01:28:01  BASE  4.81572  309  5.74476  315  -2.1  100   -2.1  0     0     984.8    NA       0.0000   9999     890   0     0    
2019/11/12  01:29:01  BASE  5.13912  307  6.05052  306  -2.1  100   -2.1  0     0     984.8    NA       0.0000   9999     920   0     0    
2019/11/12  01:30:01  BASE  4.73928  305  6.05052  306  -2.1  100   -2.1  0     0     984.8    NA       0.0000   9999     950   0     0    
2019/11/12  01:31:02  BASE  4.1454   299  6.05052  306  -2.1  100   -2.1  0     0     984.8    NA       0.0000   9999     980   0     0    
2019/11/12  01:32:01  BASE  4.46292  294  6.05052  306  -2.1  100   -2.1  0     0     984.8    NA       0.0000   9999     980   0     0    
2019/11/12  01:33:01  BASE  4.80396  292  6.05052  306  -2.1  100   -2.1  0     0     984.8    NA       0.0000   9999     1050  3250  0    
2019/11/12  01:34:01  BASE  4.9098   293  6.05052  306  -2.1  100   -2.1  0     0     984.8    NA       0.0000   9999     1050  3250  0    
2019/11/12  01:35:01  BASE  4.57464  295  6.05052  306  -2.2  100   -2.2  0     0     984.8    NA       0.0000   9999     1050  3250  0    
2019/11/12  01:36:00  BASE  4.25124  296  6.05052  306  -2.2  100   -2.2  0     0     984.8    NA       0.0000   9999     1020  2560  2990 
2019/11/12  01:37:01  BASE  4.32768  295  6.05052  306  -2.2  100   -2.2  0     0     984.8    NA       0.0000   9999     1020  0     0    
2019/11/12  01:38:01  BASE  4.56288  294  6.05052  306  -2.2  100   -2.2  0     0     984.8    NA       0.0000   9999     950   0     0    
2019/11/12  01:39:01  BASE  4.38648  296  5.53308  290  -2.2  100   -2.2  0     0     984.8    NA       0.0000   9999     980   0     0    
2019/11/12  01:40:00  BASE  3.9984   301  5.53308  290  -2.2  100   -2.2  0     0     984.8    NA       0.0000   9999     950   0     0    
2019/11/12  01:41:01  BASE  4.06308  303  5.53308  290  -2.2  100   -2.2  0     0     984.9    NA       0.0000   9999     950   0     0    
2019/11/12  01:42:01  BASE  4.09836  302  5.53308  290  -2.2  100   -2.2  0     0     984.9    NA       0.0000   9999     920   0     0    
2019/11/12  01:43:01  BASE  3.90432  303  5.53308  290  -2.2  100   -2.2  0     0     984.9    NA       0.0000   9999     890   0     0    
2019/11/12  01:44:00  BASE  3.7632   301  5.08032  297  -2.1  100   -2.1  0     0     984.9    NA       0.0000   9999     920   0     0    
2019/11/12  01:45:00  BASE  3.62208  304  5.08032  297  -2.1  100   -2.1  0     0     984.9    NA       0.0000   9999     850   0     0    
2019/11/12  01:46:00  BASE  3.65148  307  5.08032  297  -2.1  100   -2.1  0     0     985.0    NA       0.0000   9999     920   0     0    
2019/11/12  01:47:01  BASE  3.65148  304  5.08032  297  -2.1  100   -2.1  0     0     985.0    NA       0.0000   9999     920   0     0    
2019/11/12  01:48:01  BASE  3.56328  304  4.80984  302  -2.1  100   -2.1  0     0     985.1    NA       0.0000   9999     950   0     0    
2019/11/12  01:49:01  BASE  3.58092  302  4.80984  302  -2.1  100   -2.1  0     0     985.1    NA       0.0000   9999     920   0     0    
2019/11/12  01:50:00  BASE  3.53388  304  4.80984  302  -2.1  100   -2.1  0     0     985.1    NA       0.0000   9999     820   0     0    
2019/11/12  01:51:00  BASE  3.81024  304  4.68636  297  -2.1  100   -2.1  0     0     985.1    NA       0.0000   9999     890   0     0    
2019/11/12  01:52:00  BASE  3.822    304  4.68636  297  -2.1  100   -2.1  0     0     985.1    NA       0.0000   9999     920   0     0    
2019/11/12  01:53:01  BASE  3.79848  304  4.68636  297  -2.1  100   -2.1  0     0     985.1    NA       0.0000   9999     890   0     0    
2019/11/12  01:54:00  BASE  3.85728  300  4.68636  297  -2.1  100   -2.1  0     0     985.1    NA       0.0000   9999     850   0     0    
2019/11/12  01:55:01  BASE  3.59856  304  4.68636  297  -2.1  100   -2.1  0     0     985.1    NA       0.0000   9999     850   0     0    
2019/11/12  01:56:00  BASE  3.79848  303  4.62756  291  -2.1  100   -2.1  0     0     985.1    NA       0.0000   9999     850   0     0    
2019/11/12  01:57:01  BASE  4.29828  291  5.145    266  -2.1  100   -2.1  0     0     985.1    NA       0.0000   9999     950   3410  0    
2019/11/12  01:58:01  BASE  4.19244  288  5.145    266  -2.1  100   -2.1  0     0     985.1    NA       0.0000   9999     920   0     0    
2019/11/12  01:59:01  BASE  4.00428  293  5.145    266  -2.1  100   -2.1  0     0     985.1    NA       0.0000   9999     980   3450  0    
2019/11/12  02:00:01  BASE  4.263    292  5.145    266  -2.1  100   -2.1  0     0     985.1    NA       0.0000   9999     980   3480  0    
2019/11/12  02:01:01  BASE  4.23948  291  5.145    266  -2.1  100   -2.1  0     0     985.1    NA       0.0000   9999     980   3380  0    
2019/11/12  02:02:00  BASE  4.19832  295  5.145    266  -2.2  100   -2.2  0     0     985.1    NA       0.0000   9999     950   3380  0    
2019/11/12  02:03:02  BASE  4.09248  297  5.145    266  -2.2  100   -2.2  0     0     985.1    NA       0.0000   9999     980   3410  0    
2019/11/12  02:04:01  BASE  3.83376  300  5.145    266  -2.1  100   -2.1  0     0     985.2    NA       0.0000   9999     980   3380  0    
2019/11/12  02:05:00  BASE  4.04544  302  5.145    266  -2.1  100   -2.1  0     0     985.2    NA       0.0000   9999     980   3350  0    
2019/11/12  02:06:00  BASE  4.23948  297  5.145    266  -2.1  100   -2.1  0     0     985.2    NA       0.0000   9999     980   3350  0    
2019/11/12  02:07:01  BASE  4.19244  296  5.02152  291  -2.2  100   -2.2  0     0     985.2    NA       0.0000   9999     980   3310  0    
2019/11/12  02:08:01  BASE  4.09836  300  5.02152  291  -2.2  100   -2.2  0     0     985.2    NA       0.0000   9999     1050  3280  0    
2019/11/12  02:09:01  BASE  3.95136  301  5.02152  291  -2.2  100   -2.2  0     0     985.2    NA       0.0000   9999     1020  0     0    
2019/11/12  02:10:01  BASE  4.11012  299  4.83924  302  -2.2  100   -2.2  0     0     985.2    NA       0.0000   9999     950   0     0    
2019/11/12  02:11:00  BASE  4.09836  299  4.83924  302  -2.2  100   -2.2  0     0     985.3    NA       0.0000   9999     980   0     0    
2019/11/12  02:12:00  BASE  4.00428  298  4.83924  302  -2.2  100   -2.2  0     0     985.3    NA       0.0000   9999     980   0     0    
2019/11/12  02:13:01  BASE  3.9984   299  4.83924  302  -2.2  100   -2.2  0     0     985.3    NA       0.0000   9999     950   0     0    
2019/11/12  02:14:00  BASE  3.88668  304  4.83924  302  -2.2  100   -2.2  0     0     985.3    NA       0.0000   9999     890   0     0    
2019/11/12  02:15:00  BASE  3.98664  305  4.59816  298  -2.2  100   -2.2  0     0     985.3    NA       0.0000   9999     890   0     0    
2019/11/12  02:16:01  BASE  4.18068  305  4.86864  304  -2.2  100   -2.2  0     0     985.3    NA       0.0000   9999     890   0     0    
2019/11/12  02:17:01  BASE  3.93372  309  4.86864  304  -2.2  100   -2.2  0     0     985.3    NA       0.0000   9999     920   0     0    
2019/11/12  02:18:01  BASE  3.57504  314  4.86864  304  -2.2  100   -2.2  0     0     985.3    NA       0.0000   9999     850   0     0    
2019/11/12  02:19:02  BASE  3.47508  310  4.86864  304  -2.2  100   -2.2  0     0     985.4    NA       0.0000   9999     950   0     0    
2019/11/12  02:20:02  BASE  3.4692   303  4.86864  304  -2.1  100   -2.1  0     0     985.4    NA       0.0000   9999     950   0     0    
2019/11/12  02:21:02  BASE  3.35748  301  4.86864  304  -2.1  100   -2.1  0     0     985.4    NA       0.0000   9999     980   0     0    
2019/11/12  02:22:02  BASE  3.63384  297  4.86864  304  -2.1  100   -2.1  0     0     985.4    NA       0.0000   9999     980   0     0    
2019/11/12  02:23:01  BASE  4.00428  298  4.86864  304  -2.2  100   -2.2  0     0     985.4    NA       0.0000   9999     950   0     0    
2019/11/12  02:24:02  BASE  3.9396   301  4.86864  304  -2.2  100   -2.2  0     0     985.4    NA       0.0000   9999     950   0     0    
2019/11/12  02:25:02  BASE  3.8514   300  4.86864  304  -2.2  100   -2.2  0     0     985.4    NA       0.0000   9999     920   0     0    
2019/11/12  02:26:01  BASE  3.83964  302  4.80984  289  -2.2  100   -2.2  0     0     985.4    NA       0.0000   9999     980   0     0    
2019/11/12  02:27:02  BASE  3.8808   309  4.80984  289  -2.2  100   -2.2  0     0     985.4    NA       0.0000   9999     950   0     0    
2019/11/12  02:28:02  BASE  3.9396   310  4.89804  304  -2.1  100   -2.1  0     0     985.4    NA       0.0000   9999     950   0     0    
2019/11/12  02:29:02  BASE  3.75144  309  4.89804  304  -2.2  100   -2.2  0     0     985.4    NA       0.0000   9999     950   0     0    
2019/11/12  02:30:01  BASE  3.5868   309  4.89804  304  -2.1  100   -2.1  0     0     985.4    NA       0.0000   9999     920   0     0    
2019/11/12  02:31:03  BASE  3.45156  311  4.89804  304  -2.1  100   -2.1  0     0     985.4    NA       0.0000   9999     920   0     0    
2019/11/12  02:32:02  BASE  3.38688  313  4.89804  304  -2.1  100   -2.1  0     0     985.4    NA       0.0000   9999     920   0     0    
2019/11/12  02:33:02  BASE  3.56328  311  4.89804  304  -2.1  100   -2.1  0     0     985.4    NA       0.0000   9999     950   0     0    
2019/11/12  02:34:02  BASE  3.53388  310  4.89804  304  -2.1  100   -2.1  0     0     985.4    NA       0.0000   9999     920   0     0    
2019/11/12  02:35:01  BASE  3.31044  314  4.89804  304  -2.1  100   -2.1  0     0     985.4    NA       0.0000   9999     890   0     0    
2019/11/12  02:36:01  BASE  3.2046   316  4.89804  304  -2.1  100   -2.1  0     0     985.4    NA       0.0000   9999     920   0     0    
2019/11/12  02:37:02  BASE  3.22812  308  4.89804  304  -2.1  100   -2.1  0     0     985.4    NA       0.0000   9999     890   0     0    
2019/11/12  02:38:02  BASE  3.22224  304  4.116    301  -2.1  100   -2.1  0     0     985.4    NA       0.0000   9999     890   0     0    
2019/11/12  02:39:01  BASE  3.40452  304  4.116    301  -2.2  100   -2.2  0     0     985.4    NA       0.0000   9999     920   0     0    
2019/11/12  02:40:01  BASE  3.57504  304  4.2336   302  -2.2  100   -2.2  0     0     985.4    NA       0.0000   9999     890   0     0    
2019/11/12  02:41:01  BASE  3.59268  306  4.2336   302  -2.2  100   -2.2  0     0     985.4    NA       0.0000   9999     850   0     0    
2019/11/12  02:42:01  BASE  3.45744  305  4.2336   302  -2.2  100   -2.2  0     0     985.4    NA       0.0000   9999     890   0     0    
2019/11/12  02:43:02  BASE  3.51624  307  4.2336   302  -2.2  100   -2.2  0     0     985.5    NA       0.0000   9999     850   0     0    
2019/11/12  02:44:01  BASE  3.69264  307  4.2336   302  -2.2  100   -2.2  0     0     985.6    NA       0.0000   9999     890   0     0    
2019/11/12  02:45:01  BASE  3.78672  305  4.263    297  -2.2  100   -2.2  0     0     985.6    NA       0.0000   9999     850   0     0    
2019/11/12  02:46:02  BASE  3.81024  304  4.263    297  -2.2  100   -2.2  0     0     985.6    NA       0.0000   9999     850   0     0    
2019/11/12  02:47:02  BASE  3.8808   303  4.50996  305  -2.2  100   -2.2  0     0     985.6    NA       0.0000   9999     890   0     0    
2019/11/12  02:48:02  BASE  3.71028  306  4.50996  305  -2.2  100   -2.2  0     0     985.6    NA       0.0000   9999     850   0     0    
2019/11/12  02:49:01  BASE  3.22224  306  4.50996  305  -2.2  100   -2.2  0     0     985.6    NA       0.0000   9999     850   0     0    
2019/11/12  02:50:01  BASE  3.21636  306  4.50996  305  -2.2  100   -2.2  0     0     985.6    NA       0.0000   9999     890   0     0    
2019/11/12  02:51:02  BASE  3.56328  311  4.50996  305  -2.2  100   -2.2  0     0     985.6    NA       0.0000   9999     890   0     0    
2019/11/12  02:52:01  BASE  3.56916  312  4.50996  305  -2.2  100   -2.2  0     0     985.6    NA       0.0000   9999     890   0     0    
2019/11/12  02:53:01  BASE  3.381    313  4.50996  305  -2.2  100   -2.2  0     0     985.7    NA       0.0000   9999     890   0     0    
2019/11/12  02:54:00  BASE  3.08112  313  4.50996  305  -2.2  100   -2.2  0     0     985.7    NA       0.0000   9999     890   0     0    
2019/11/12  02:55:00  BASE  3.15756  311  4.50996  305  -2.2  100   -2.2  0     0     985.7    NA       0.0000   9999     890   0     0    
2019/11/12  02:56:01  BASE  3.42804  311  4.50996  305  -2.2  100   -2.2  0     0     985.7    NA       0.0000   9999     850   0     0    
2019/11/12  02:57:01  BASE  3.3516   312  4.41588  308  -2.2  100   -2.2  0     0     985.7    NA       0.0000   9999     890   0     0    
2019/11/12  02:58:00  BASE  3.31044  315  4.41588  308  -2.2  100   -2.2  0     0     985.7    NA       0.0000   9999     890   0     0    
2019/11/12  02:59:01  BASE  3.30456  314  4.41588  308  -2.2  100   -2.2  0     0     985.7    NA       0.0000   9999     890   0     0    
2019/11/12  03:00:01  BASE  3.33396  315  4.41588  308  -2.2  100   -2.2  0     0     985.7    NA       0.0000   9999     950   0     0    
2019/11/12  03:01:01  BASE  3.50448  316  4.29828  310  -2.2  100   -2.2  0     0     985.7    NA       0.0000   9999     920   0     0    
2019/11/12  03:02:00  BASE  3.68088  314  4.29828  309  -2.2  100   -2.2  0     0     985.7    NA       0.0000   9999     890   0     0    
2019/11/12  03:03:00  BASE  3.78672  313  4.29828  309  -2.2  100   -2.2  0     0     985.7    NA       0.0000   9999     920   0     0    
2019/11/12  03:04:00  BASE  4.01604  313  4.89804  307  -2.2  100   -2.2  0     0     985.7    NA       0.0000   9999     920   0     0    
2019/11/12  03:05:01  BASE  4.15128  313  4.89804  307  -2.2  100   -2.2  0     0     985.7    NA       0.0000   9999     920   0     0    
2019/11/12  03:06:01  BASE  4.07484  312  4.89804  307  -2.2  100   -2.2  0     0     985.8    NA       0.0000   9999     920   0     0    
2019/11/12  03:07:01  BASE  4.04544  308  4.89804  307  -2.2  100   -2.2  0     0     985.8    NA       0.0000   9999     920   0     0    
2019/11/12  03:08:01  BASE  3.86316  310  4.89804  307  -2.2  100   -2.2  0     0     985.8    NA       0.0000   9999     950   0     0    
2019/11/12  03:09:01  BASE  3.77496  312  4.89804  307  -2.2  100   -2.2  0     0     985.8    NA       0.0000   9999     950   0     0    
2019/11/12  03:10:01  BASE  3.822    310  4.89804  307  -2.2  100   -2.2  0     0     985.8    NA       0.0000   9999     950   0     0    
2019/11/12  03:11:01  BASE  3.92784  305  4.89804  307  -2.2  100   -2.2  0     0     985.8    NA       0.0000   9999     980   0     0    
2019/11/12  03:12:01  BASE  4.02192  300  4.89804  307  -2.2  100   -2.2  0     0     985.8    NA       0.0000   9999     980   0     0    
2019/11/12  03:13:01  BASE  3.77496  301  4.89804  307  -2.3  100   -2.3  0     0     985.8    NA       0.0000   9999     980   0     0    
2019/11/12  03:14:01  BASE  3.8514   300  4.59816  300  -2.3  100   -2.3  0     0     985.8    NA       0.0000   9999     950   0     0    
2019/11/12  03:15:01  BASE  3.95724  299  4.59816  300  -2.3  100   -2.3  0     0     985.8    NA       0.0000   9999     1020  0     0    
2019/11/12  03:16:01  BASE  3.65736  301  4.53936  291  -2.3  100   -2.3  0     0     985.8    NA       0.0000   9999     1050  3310  0    
2019/11/12  03:17:01  BASE  3.39276  301  4.53936  291  -2.3  100   -2.3  0     0     985.8    NA       0.0000   9999     1050  0     0    
2019/11/12  03:18:01  BASE  3.28692  303  4.53936  291  -2.3  100   -2.3  0     0     985.8    NA       0.0000   9999     1050  0     0    
2019/11/12  03:19:01  BASE  3.1752   302  4.53936  291  -2.3  100   -2.3  0     0     985.8    NA       0.0000   9999     1050  0     0    
2019/11/12  03:20:01  BASE  3.22812  300  4.53936  291  -2.3  100   -2.3  0     0     985.8    NA       0.0000   9999     1050  3580  0    
2019/11/12  03:21:01  BASE  3.40452  302  4.53936  291  -2.3  100   -2.3  0     0     985.9    NA       0.0000   9999     1050  3610  4760 
2019/11/12  03:22:01  BASE  3.5868   304  4.53936  291  -2.3  100   -2.3  0     0     985.9    NA       0.0000   9999     1050  0     0    
2019/11/12  03:23:01  BASE  3.44568  309  4.53936  291  -2.3  100   -2.3  0     0     985.9    NA       0.0000   9999     1050  0     0    
2019/11/12  03:24:01  BASE  3.4104   313  4.29828  309  -2.3  100   -2.3  0     0     985.9    NA       0.0000   9999     1050  0     0    
2019/11/12  03:25:01  BASE  3.65736  315  4.263    303  -2.3  100   -2.3  0     0     985.9    NA       0.0000   9999     1050  0     0    
2019/11/12  03:26:01  BASE  3.6456   317  4.263    303  -2.3  100   -2.3  0     0     985.9    NA       0.0000   9999     980   0     0    
2019/11/12  03:27:01  BASE  3.72204  318  4.263    303  -2.3  100   -2.3  0     0     986.0    NA       0.0000   9999     1020  0     0    
2019/11/12  03:28:01  BASE  4.05132  316  4.68636  308  -2.3  100   -2.3  0     0     986.0    NA       0.0000   9999     980   0     0    
2019/11/12  03:29:00  BASE  4.01604  315  4.68636  308  -2.3  100   -2.3  0     0     986.0    NA       0.0000   9999     1020  0     0    
2019/11/12  03:30:01  BASE  3.87492  314  4.68636  308  -2.3  100   -2.3  0     0     986.0    NA       0.0000   9999     1020  0     0    
2019/11/12  03:31:02  BASE  3.79848  311  4.68636  308  -2.3  100   -2.3  0     0     985.9    NA       0.0000   9999     1020  0     0    
2019/11/12  03:32:01  BASE  3.7044   314  4.68636  308  -2.3  100   -2.3  0     0     985.9    NA       0.0000   9999     980   0     0    
2019/11/12  03:33:00  BASE  3.71028  318  4.68636  308  -2.3  100   -2.3  0     0     986.0    NA       0.0000   9999     1020  0     0    
2019/11/12  03:34:00  BASE  3.57504  320  4.68636  308  -2.2  100   -2.2  0     0     986.0    NA       0.0000   9999     1020  0     0    
2019/11/12  03:35:01  BASE  3.56328  317  4.68636  308  -2.2  100   -2.2  0     0     986.0    NA       0.0000   9999     1050  0     0    
2019/11/12  03:36:01  BASE  3.51036  320  4.68636  308  -2.2  100   -2.2  0     0     986.0    NA       0.0000   9999     950   0     0    
2019/11/12  03:37:01  BASE  3.48096  325  4.68636  308  -2.2  100   -2.2  0     0     986.0    NA       0.0000   9999     950   0     0    
2019/11/12  03:38:00  BASE  3.51036  323  4.29828  310  -2.2  100   -2.2  0     0     986.0    NA       0.0000   9999     950   0     0    
2019/11/12  03:39:01  BASE  3.54564  324  4.29828  310  -2.2  100   -2.2  0     0     986.0    NA       0.0000   9999     950   0     0    
2019/11/12  03:40:00  BASE  3.63384  326  4.08072  323  -2.2  100   -2.2  0     0     986.0    NA       0.0000   9999     980   0     0    
2019/11/12  03:41:01  BASE  3.98664  325  4.56876  321  -2.2  100   -2.2  0     0     986.0    NA       0.0000   9999     980   0     0    
2019/11/12  03:42:00  BASE  4.38648  322  4.72164  327  -2.2  100   -2.2  0     0     986.0    NA       0.0000   9999     980   0     0    
2019/11/12  03:43:01  BASE  4.2042   322  4.72164  327  -2.2  100   -2.2  0     0     986.0    NA       0.0000   9999     980   0     0    
2019/11/12  03:44:01  BASE  3.9984   323  4.72164  327  -2.2  100   -2.2  0     0     986.1    NA       0.0000   9999     980   0     0    
2019/11/12  03:45:01  BASE  4.22184  321  4.75104  318  -2.2  100   -2.2  0     0     986.2    NA       0.0000   9999     950   0     0    
2019/11/12  03:46:00  BASE  4.22184  316  4.75104  318  -2.2  100   -2.2  0     0     986.2    NA       0.0000   9999     950   0     0    
2019/11/12  03:47:01  BASE  3.9396   314  4.75104  318  -2.2  100   -2.2  0     0     986.2    NA       0.0000   9999     950   0     0    
2019/11/12  03:48:01  BASE  3.77496  317  4.75104  318  -2.2  100   -2.2  0     0     986.2    NA       0.0000   9999     950   0     0    
2019/11/12  03:49:01  BASE  3.65736  324  4.75104  318  -2.2  100   -2.2  0     0     986.2    NA       0.0000   9999     920   0     0    
2019/11/12  03:50:01  BASE  3.59268  324  4.75104  318  -2.2  100   -2.2  0     0     986.2    NA       0.0000   9999     980   0     0    
2019/11/12  03:51:01  BASE  3.66912  320  4.75104  318  -2.2  100   -2.2  0     0     986.2    NA       0.0000   9999     950   0     0    
2019/11/12  03:52:00  BASE  3.53976  318  4.75104  318  -2.2  100   -2.2  0     0     986.2    NA       0.0000   9999     950   0     0    
2019/11/12  03:53:01  BASE  3.48096  317  4.75104  318  -2.2  100   -2.2  0     0     986.2    NA       0.0000   9999     890   0     0    
2019/11/12  03:54:01  BASE  3.60444  322  4.75104  318  -2.2  100   -2.2  0     0     986.2    NA       0.0000   9999     920   0     0    
2019/11/12  03:55:02  BASE  3.9396   327  4.75104  316  -2.2  100   -2.2  0     0     986.2    NA       0.0000   9999     920   0     0    
2019/11/12  03:56:00  BASE  4.15716  325  4.75104  316  -2.2  100   -2.2  0     0     986.3    NA       0.0000   9999     920   0     0    
2019/11/12  03:57:02  BASE  3.79848  326  4.75104  316  -2.2  100   -2.2  0     0     986.3    NA       0.0000   9999     920   0     0    
2019/11/12  03:58:01  BASE  3.72792  323  4.75104  316  -2.2  100   -2.2  0     0     986.3    NA       0.0000   9999     890   0     0    
2019/11/12  03:59:02  BASE  3.8514   320  4.75104  316  -2.2  100   -2.2  0     0     986.3    NA       0.0000   9999     920   0     0    
2019/11/12  04:00:02  BASE  3.9102   321  4.75104  316  -2.2  100   -2.2  0     0     986.3    NA       0.0000   9999     890   0     0    
2019/11/12  04:02:00  BASE  3.56916  317  4.75104  316  -2.2  100   -2.2  0     0     986.2    NA       0.0000   9999     920   0     0    
2019/11/12  04:03:00  BASE  3.21048  322  4.75104  316  -2.2  100   -2.2  0     0     986.3    NA       0.0000   9999     890   0     0    
2019/11/12  04:04:00  BASE  3.05172  323  4.75104  316  -2.2  100   -2.2  0     0     986.3    NA       0.0000   9999     890   0     0    
2019/11/12  04:05:00  BASE  2.95764  322  4.75104  316  -2.2  100   -2.2  0     0     986.3    NA       0.0000   9999     890   0     0    
2019/11/12  04:06:00  BASE  3.2046   321  4.29828  319  -2.2  100   -2.2  0     0     986.3    NA       0.0000   9999     890   0     0    
2019/11/12  04:07:00  BASE  3.29868  323  4.29828  319  -2.2  100   -2.2  0     0     986.3    NA       0.0000   9999     920   0     0    
2019/11/12  04:08:00  BASE  3.18108  325  4.2042   322  -2.2  100   -2.2  0     0     986.3    NA       0.0000   9999     890   0     0    
2019/11/12  04:09:01  BASE  3.2634   324  4.2042   322  -2.2  100   -2.2  0     0     986.3    NA       0.0000   9999     890   0     0    
2019/11/12  04:10:00  BASE  3.36336  324  4.2042   322  -2.2  100   -2.2  0     0     986.3    NA       0.0000   9999     890   0     0    
2019/11/12  04:11:00  BASE  3.4692   323  3.86904  326  -2.2  100   -2.2  0     0     986.4    NA       0.0000   9999     920   1610  0    
2019/11/12  04:12:00  BASE  3.49272  322  3.86904  326  -2.2  100   -2.2  0     0     986.4    NA       0.0000   9999     980   0     0    
2019/11/12  04:13:00  BASE  3.45156  324  3.86904  326  -2.2  100   -2.2  0     0     986.4    NA       0.0000   9999     950   0     0    
2019/11/12  04:14:00  BASE  3.52212  325  3.86904  326  -2.3  100   -2.3  0     0     986.4    NA       0.0000   9999     920   0     0    
2019/11/12  04:15:00  BASE  3.4986   324  3.86904  326  -2.3  100   -2.3  0     0     986.4    NA       0.0000   9999     950   0     0    
2019/11/12  04:16:00  BASE  3.46332  325  3.86904  326  -2.3  100   -2.3  0     0     986.4    NA       0.0000   9999     950   0     0    
2019/11/12  04:17:00  BASE  3.63384  326  4.38648  319  -2.3  100   -2.3  0     0     986.5    NA       0.0000   9999     1020  0     0    
2019/11/12  04:18:00  BASE  3.74556  324  4.38648  319  -2.3  100   -2.3  0     0     986.5    NA       0.0000   9999     1050  0     0    
2019/11/12  04:19:00  BASE  3.55152  323  4.38648  319  -2.3  100   -2.3  0     0     986.5    NA       0.0000   9999     1020  0     0    
2019/11/12  04:20:00  BASE  3.45156  324  4.38648  319  -2.3  100   -2.3  0     0     986.5    NA       0.0000   9999     980   0     0    
2019/11/12  04:21:00  BASE  3.4398   324  4.38648  319  -2.3  100   -2.3  0     0     986.5    NA       0.0000   9999     980   0     0    
2019/11/12  04:22:00  BASE  3.24576  324  4.38648  319  -2.3  100   -2.3  0     0     986.5    NA       0.0000   9999     980   0     0    
2019/11/12  04:23:00  BASE  3.1164   328  4.38648  319  -2.3  100   -2.3  0     0     986.5    NA       0.0000   9999     950   0     0    
2019/11/12  04:24:00  BASE  3.234    332  4.38648  319  -2.3  100   -2.3  0     0     986.5    NA       0.0000   9999     980   0     0    
2019/11/12  04:25:00  BASE  3.31632  329  4.38648  319  -2.3  100   -2.3  0     0     986.5    NA       0.0000   9999     950   0     0    
2019/11/12  04:26:00  BASE  3.22812  326  4.38648  319  -2.3  100   -2.3  0     0     986.5    NA       0.0000   9999     980   0     0    
2019/11/12  04:27:00  BASE  3.33984  329  3.96312  320  -2.3  100   -2.3  0     0     986.5    NA       0.0000   9999     1020  0     0    
2019/11/12  04:28:00  BASE  3.43392  330  3.81024  326  -2.3  100   -2.3  0     0     986.5    NA       0.0000   9999     980   0     0    
2019/11/12  04:29:00  BASE  3.63384  334  4.2042   336  -2.3  100   -2.3  0     0     986.5    NA       0.0000   9999     980   0     0    
2019/11/12  04:30:00  BASE  3.77496  336  4.2042   336  -2.3  100   -2.3  0     0     986.5    NA       0.0000   9999     980   0     0    
2019/11/12  04:31:00  BASE  3.62208  336  4.2042   336  -2.3  100   -2.3  0     0     986.5    NA       0.0000   9999     1020  0     0    
2019/11/12  04:32:00  BASE  3.66324  334  4.2042   336  -2.3  100   -2.3  0     0     986.5    NA       0.0000   9999     1020  0     0    
2019/11/12  04:33:00  BASE  3.62796  332  4.2042   336  -2.3  100   -2.3  0     0     986.5    NA       0.0000   9999     980   0     0    
2019/11/12  04:34:00  BASE  3.53388  335  4.2042   336  -2.2  100   -2.2  0     0     986.5    NA       0.0000   9999     1020  0     0    
2019/11/12  04:35:00  BASE  3.72792  337  4.2042   336  -2.2  100   -2.2  0     0     986.6    NA       0.0000   9999     1080  0     0    
2019/11/12  04:36:00  BASE  3.822    336  4.2042   336  -2.2  100   -2.2  0     0     986.6    NA       0.0000   9999     980   0     0    
2019/11/12  04:37:00  BASE  3.7338   333  4.2042   336  -2.2  100   -2.2  0     0     986.5    NA       0.0000   9999     1120  0     0    
2019/11/12  04:38:00  BASE  3.42804  330  4.2042   336  -2.2  100   -2.2  0     0     986.5    NA       0.0000   9999     1050  0     0    
2019/11/12  04:39:00  BASE  3.36924  332  4.2042   336  -2.2  100   -2.2  0     0     986.5    NA       0.0000   9999     980   0     0    
2019/11/12  04:40:00  BASE  3.33396  337  4.2042   336  -2.2  100   -2.2  0     0     986.5    NA       0.0000   9999     980   0     0    
2019/11/12  04:41:00  BASE  3.16344  337  4.2042   336  -2.2  100   -2.2  0     0     986.5    NA       0.0000   9999     1080  0     0    
2019/11/12  04:42:00  BASE  3.19284  337  4.2042   336  -2.2  100   -2.2  0     0     986.5    NA       0.0000   9999     1080  0     0    
2019/11/12  04:43:00  BASE  3.3222   342  4.2042   336  -2.2  100   -2.2  0     0     986.5    NA       0.0000   9999     1080  0     0    
2019/11/12  04:44:00  BASE  3.42804  342  4.2042   336  -2.2  100   -2.2  0     0     986.5    NA       0.0000   9999     1080  0     0    
2019/11/12  04:45:00  BASE  3.0576   340  4.08072  325  -2.2  100   -2.2  0     0     986.5    NA       0.0000   9999     1080  0     0    
2019/11/12  04:46:00  BASE  2.71068  341  4.08072  325  -2.2  100   -2.2  0     0     986.5    NA       0.0000   9999     1020  0     0    
2019/11/12  04:47:00  BASE  2.71068  345  3.83964  345  -2.2  100   -2.2  0     0     986.5    NA       0.0000   9999     980   0     0    
2019/11/12  04:48:00  BASE  2.75184  346  3.83964  345  -2.2  100   -2.2  0     0     986.5    NA       0.0000   9999     980   0     0    
2019/11/12  04:49:00  BASE  2.72832  345  3.83964  345  -2.2  100   -2.2  0     0     986.6    NA       0.0000   9999     980   0     0    
2019/11/12  04:50:00  BASE  2.68128  346  3.83964  345  -2.2  100   -2.2  0     0     986.6    NA       0.0000   9999     1050  0     0    
2019/11/12  04:51:00  BASE  2.76948  350  3.83964  345  -2.2  100   -2.2  0     0     986.6    NA       0.0000   9999     920   0     0    
2019/11/12  04:52:00  BASE  2.9988   351  3.83964  345  -2.2  100   -2.2  0     0     986.6    NA       0.0000   9999     1020  0     0    
2019/11/12  04:53:00  BASE  3.10464  354  3.83964  345  -2.2  100   -2.2  0     0     986.6    NA       0.0000   9999     1020  0     0    
2019/11/12  04:54:00  BASE  3.03408  352  3.41628  354  -2.1  100   -2.1  0     0     986.6    NA       0.0000   9999     950   0     0    
2019/11/12  04:55:00  BASE  3.16932  352  3.53976  354  -2.1  100   -2.1  0     0     986.6    NA       0.0000   9999     950   0     0    
2019/11/12  04:56:00  BASE  3.29868  354  3.53976  354  -2.1  100   -2.1  0     0     986.6    NA       0.0000   9999     950   0     0    
2019/11/12  04:57:00  BASE  3.47508  354  4.1454   352  -2.1  100   -2.1  0     0     986.6    NA       0.0000   9999     920   0     0    
2019/11/12  04:58:00  BASE  3.675    357  4.1454   352  -2.1  100   -2.1  0     0     986.6    NA       0.0000   9999     950   0     0    
2019/11/12  04:59:00  BASE  3.66912  356  4.1454   352  -2.1  100   -2.1  0     0     986.6    NA       0.0000   9999     980   2590  0    
2019/11/12  05:00:00  BASE  3.51624  356  4.1454   352  -2.1  100   -2.1  0     0     986.6    NA       0.0000   9999     980   0     0    
2019/11/12  05:01:00  BASE  3.25164  351  4.1454   352  -2.1  100   -2.1  0     0     986.6    NA       0.0000   9999     1020  2430  0    
2019/11/12  05:02:00  BASE  3.1458   349  4.1454   352  -2.1  100   -2.1  0     0     986.6    NA       0.0000   9999     1020  0     0    
2019/11/12  05:03:00  BASE  3.29868  350  4.1454   352  -2.1  100   -2.1  0     0     986.6    NA       0.0000   9999     980   0     0    
2019/11/12  05:04:00  BASE  3.06936  346  4.1454   352  -2.1  100   -2.1  0     0     986.6    NA       0.0000   9999     980   0     0    
2019/11/12  05:05:00  BASE  2.56368  346  4.1454   352  -2.1  100   -2.1  0     0     986.6    NA       0.0000   9999     1020  0     0    
2019/11/12  05:06:00  BASE  2.62836  349  4.1454   352  -2.1  100   -2.1  0     0     986.6    NA       0.0000   9999     1050  0     0    
2019/11/12  05:07:00  BASE  2.43432  344  4.02192  2    -2.1  100   -2.1  0     0     986.6    NA       0.0000   9999     1050  0     0    
2019/11/12  05:08:00  BASE  2.34024  344  4.02192  2    -2.1  100   -2.1  0     0     986.6    NA       0.0000   9999     1050  0     0    
2019/11/12  05:09:00  BASE  2.75772  352  3.93372  353  -2.1  100   -2.1  0     0     986.6    NA       0.0000   9999     1050  0     0    
2019/11/12  05:10:00  BASE  2.74596  357  3.93372  353  -2.1  100   -2.1  0     0     986.6    NA       0.0000   9999     1050  0     0    
2019/11/12  05:11:00  BASE  2.83416  350  3.93372  353  -2.0  100   -2.0  0     0     986.6    NA       0.0000   9999     1020  0     0    
2019/11/12  05:12:00  BASE  3.19284  343  4.02192  350  -2.0  100   -2.0  0     0     986.6    NA       0.0000   9999     1020  1940  0    
2019/11/12  05:13:00  BASE  3.27516  347  4.02192  350  -2.0  100   -2.0  0     0     986.6    NA       0.0000   9999     1050  2030  0    
2019/11/12  05:14:00  BASE  3.19872  344  4.02192  350  -2.0  100   -2.0  0     0     986.6    NA       0.0000   9999     1020  2000  0    
2019/11/12  05:15:00  BASE  3.18108  345  4.02192  350  -2.0  100   -2.0  0     0     986.6    NA       0.0000   9999     1080  0     0    
2019/11/12  05:16:00  BASE  3.12228  351  4.02192  350  -2.0  100   -2.0  0     0     986.6    NA       0.0000   9999     1080  0     0    
2019/11/12  05:17:00  BASE  3.39276  354  4.2042   360  -2.0  100   -2.0  0     0     986.6    NA       0.0000   9999     1050  0     0    
2019/11/12  05:18:00  BASE  3.59268  355  4.2042   360  -2.0  100   -2.0  0     0     986.6    NA       0.0000   9999     1050  0     0    
2019/11/12  05:19:00  BASE  3.528    347  4.2042   360  -2.0  100   -2.0  0     0     986.6    NA       0.0000   9999     1050  2000  0    
2019/11/12  05:20:00  BASE  3.69264  343  4.2042   360  -2.0  100   -2.0  0     0     986.6    NA       0.0000   9999     1050  1970  0    
2019/11/12  05:21:00  BASE  3.53388  342  4.2042   360  -2.0  100   -2.0  0     0     986.6    NA       0.0000   9999     1150  2100  0    
2019/11/12  05:22:00  BASE  3.16344  343  4.2042   360  -2.0  100   -2.0  0     0     986.6    NA       0.0000   9999     1120  2070  0    
2019/11/12  05:23:00  BASE  3.1458   346  4.2042   360  -2.0  100   -2.0  0     0     986.6    NA       0.0000   9999     1080  1940  0    
2019/11/12  05:24:00  BASE  3.45744  341  4.2042   360  -2.0  100   -2.0  0     0     986.6    NA       0.0000   9999     1080  1870  0    
2019/11/12  05:25:00  BASE  3.39864  331  4.2042   360  -2.0  100   -2.0  0     0     986.6    NA       0.0000   9999     1020  1970  0    
2019/11/12  05:26:00  BASE  3.00468  337  4.2042   360  -2.0  100   -2.0  0     0     986.6    NA       0.0000   9999     980   0     0    
2019/11/12  05:27:00  BASE  2.86944  346  4.116    346  -2.0  100   -2.0  0     0     986.6    NA       0.0000   9999     1020  1940  0    
2019/11/12  05:28:00  BASE  2.84592  343  4.116    346  -2.0  100   -2.0  0     0     986.6    NA       0.0000   9999     980   0     0    
2019/11/12  05:29:00  BASE  3.05172  341  4.116    346  -2.0  100   -2.0  0     0     986.6    NA       0.0000   9999     980   1970  0    
2019/11/12  05:30:00  BASE  2.99292  340  3.99252  337  -2.0  100   -2.0  0     0     986.6    NA       0.0000   9999     980   1940  0    
2019/11/12  05:31:00  BASE  2.81652  337  3.93372  336  -2.0  100   -2.0  0     0     986.6    NA       0.0000   9999     980   0     0    
2019/11/12  05:32:00  BASE  2.92824  337  3.93372  336  -2.0  100   -2.0  0     0     986.6    NA       0.0000   9999     1020  0     0    
2019/11/12  05:33:00  BASE  2.78124  334  3.93372  336  -2.0  100   -2.0  0     0     986.6    NA       0.0000   9999     1020  1900  0    
2019/11/12  05:34:00  BASE  2.56956  333  3.86904  331  -2.0  100   -2.0  0     0     986.6    NA       0.0000   9999     1120  1940  0    
2019/11/12  05:35:00  BASE  2.47548  337  3.86904  331  -2.0  100   -2.0  0     0     986.6    NA       0.0000   9999     1080  0     0    
2019/11/12  05:36:00  BASE  2.37552  342  3.86904  331  -2.0  100   -2.0  0     0     986.6    NA       0.0000   9999     1050  0     0    
2019/11/12  05:37:00  BASE  2.0874   346  3.86904  331  -2.0  100   -2.0  0     0     986.6    NA       0.0000   9999     950   0     0    
2019/11/12  05:38:00  BASE  2.18148  351  3.86904  331  -2.0  100   -2.0  0     0     986.6    NA       0.0000   9999     920   0     0    
2019/11/12  05:39:00  BASE  2.62836  355  3.1458   340  -2.0  100   -2.0  0     0     986.6    NA       0.0000   9999     920   0     0    
2019/11/12  05:40:00  BASE  3.00468  352  3.81024  215  -2.0  100   -2.0  0     0     986.6    NA       0.0000   9999     920   0     0    
2019/11/12  05:41:00  BASE  3.23988  347  3.81024  215  -1.9  100   -1.9  0     0     986.6    NA       0.0000   9999     980   0     0    
2019/11/12  05:42:00  BASE  3.2634   346  3.81024  215  -1.9  100   -1.9  0     0     986.6    NA       0.0000   9999     950   0     0    
2019/11/12  05:43:00  BASE  3.36336  337  3.83964  330  -1.9  100   -1.9  0     0     986.6    NA       0.0000   9999     950   0     0    
2019/11/12  05:44:00  BASE  3.47508  330  3.83964  330  -1.9  100   -1.9  0     0     986.6    NA       0.0000   9999     980   0     0    
2019/11/12  05:45:00  BASE  3.4398   332  3.83964  330  -1.9  100   -1.9  0     0     986.6    NA       0.0000   9999     1020  0     0    
2019/11/12  05:46:00  BASE  3.15756  334  3.83964  330  -1.9  100   -1.9  0     0     986.6    NA       0.0000   9999     1050  0     0    
2019/11/12  05:47:00  BASE  2.88708  333  3.83964  330  -1.9  100   -1.9  0     0     986.6    NA       0.0000   9999     1120  0     0    
2019/11/12  05:48:00  BASE  2.69304  335  3.83964  330  -1.9  100   -1.9  0     0     986.6    NA       0.0000   9999     950   0     0    
2019/11/12  05:49:00  BASE  2.61072  336  3.83964  330  -1.9  100   -1.9  0     0     986.6    NA       0.0000   9999     980   0     0    
2019/11/12  05:50:00  BASE  2.52252  336  3.83964  330  -1.9  100   -1.9  0     0     986.6    NA       0.0000   9999     1020  0     0    
2019/11/12  05:51:00  BASE  2.25204  337  3.83964  330  -1.9  100   -1.9  0     0     986.6    NA       0.0000   9999     890   0     0    
2019/11/12  05:52:00  BASE  2.09916  339  3.83964  330  -2.0  100   -2.0  0     0     986.6    NA       0.0000   9999     1080  0     0    
2019/11/12  05:53:00  BASE  2.22264  346  3.72204  328  -2.0  100   -2.0  0     0     986.6    NA       0.0000   9999     1150  0     0    
2019/11/12  05:54:00  BASE  2.39904  351  3.53976  337  -2.0  100   -2.0  0     0     986.6    NA       0.0000   9999     1150  0     0    
2019/11/12  05:55:00  BASE  2.36964  348  3.1458   332  -2.0  100   -2.0  0     0     986.6    NA       0.0000   9999     1180  0     0    
2019/11/12  05:56:00  BASE  2.31672  346  2.96352  334  -2.0  100   -2.0  0     0     986.6    NA       0.0000   9999     1120  0     0    
2019/11/12  05:57:00  BASE  2.45196  358  2.75184  6    -2.0  100   -2.0  0     0     986.6    NA       0.0000   9999     1150  0     0    
2019/11/12  05:58:00  BASE  2.43432  1    2.75184  6    -2.0  100   -2.0  0     0     986.6    NA       0.0000   9999     1080  0     0    
2019/11/12  05:59:00  BASE  2.12856  360  2.75184  6    -2.0  100   -2.0  0     0     986.6    NA       0.0000   9999     1050  0     0    
2019/11/12  06:00:00  BASE  2.1168   1    2.75184  6    -2.0  100   -2.0  0     0     986.6    NA       0.0000   9999     1080  0     0    
2019/11/12  06:01:01  BASE  2.45196  3    3.1164   14   -2.0  100   -2.0  0     0     986.6    NA       0.0000   9999     1120  0     0    
2019/11/12  06:02:01  BASE  2.95764  9    3.59856  18   -1.9  100   -1.9  0     0     986.6    NA       0.0000   9999     1120  0     0    
2019/11/12  06:03:01  BASE  3.22812  10   3.59856  18   -1.9  100   -1.9  0     0     986.6    NA       0.0000   9999     1120  0     0    
2019/11/12  06:04:01  BASE  2.94588  3    3.59856  18   -1.9  100   -1.9  0     0     986.6    NA       0.0000   9999     1150  0     0    
2019/11/12  06:05:01  BASE  2.89296  355  3.59856  18   -1.9  100   -1.9  0     0     986.6    NA       0.0000   9999     1120  0     0    
2019/11/12  06:06:01  BASE  3.03408  355  3.59856  18   -1.9  100   -1.9  0     0     986.6    NA       0.0000   9999     1080  0     0    
2019/11/12  06:07:00  BASE  2.88708  356  3.59856  18   -1.9  100   -1.9  0     0     986.6    NA       0.0000   9999     1120  0     0    
2019/11/12  06:08:00  BASE  2.91648  354  3.59856  18   -1.9  100   -1.9  0     0     986.6    NA       0.0000   9999     1120  0     0    
2019/11/12  06:09:00  BASE  3.13404  353  3.59856  18   -1.9  100   -1.9  0     0     986.6    NA       0.0000   9999     1150  0     0    
2019/11/12  06:10:00  BASE  3.234    356  3.59856  18   -1.9  100   -1.9  0     0     986.6    NA       0.0000   9999     1120  0     0    
2019/11/12  06:11:00  BASE  3.16932  357  3.59856  18   -1.9  100   -1.9  0     0     986.6    NA       0.0000   9999     1120  0     0    
2019/11/12  06:12:00  BASE  2.9988   354  3.53976  351  -1.8  100   -1.8  0     0     986.6    NA       0.0000   9999     1120  0     0    
2019/11/12  06:13:00  BASE  2.8518   352  3.53976  351  -1.8  100   -1.8  0     0     986.6    NA       0.0000   9999     1120  0     0    
2019/11/12  06:14:00  BASE  2.76948  354  3.53976  351  -1.8  100   -1.8  0     0     986.6    NA       0.0000   9999     1020  0     0    
2019/11/12  06:15:00  BASE  2.88708  354  3.53976  351  -1.8  100   -1.8  0     0     986.6    NA       0.0000   9999     1050  0     0    
2019/11/12  06:16:00  BASE  3.24576  344  3.65736  343  -1.8  100   -1.8  0     0     986.6    NA       0.0000   9999     1080  0     0    
2019/11/12  06:17:00  BASE  3.13404  336  3.65736  343  -1.8  100   -1.8  0     0     986.6    NA       0.0000   9999     1050  0     0    
2019/11/12  06:18:01  BASE  2.86944  343  3.65736  343  -1.8  100   -1.8  0     0     986.6    NA       0.0000   9999     1050  0     0    
2019/11/12  06:19:00  BASE  3.21048  343  3.69264  338  -1.8  100   -1.8  0     0     986.6    NA       0.0000   9999     790   0     0    
2019/11/12  06:20:00  BASE  3.28692  335  3.69264  338  -1.8  100   -1.8  0     0     986.6    NA       0.0000   9999     980   0     0    
2019/11/12  06:21:00  BASE  2.91648  337  3.69264  338  -1.8  100   -1.8  0     0     986.6    NA       0.0000   9999     980   0     0    
2019/11/12  06:22:00  BASE  3.19872  340  3.90432  335  -1.8  100   -1.8  0     0     986.6    NA       0.0000   9999     1080  0     0    
2019/11/12  06:23:00  BASE  3.44568  340  3.90432  335  -1.8  100   -1.8  0     0     986.6    NA       0.0000   9999     1020  0     0    
2019/11/12  06:24:00  BASE  3.22224  353  3.90432  335  -1.8  100   -1.8  0     0     986.6    NA       0.0000   9999     950   0     0    
2019/11/12  06:25:00  BASE  3.18696  3    3.90432  335  -1.8  100   -1.8  0     0     986.6    NA       0.0000   9999     1080  0     0    
2019/11/12  06:26:01  BASE  3.3222   1    3.90432  335  -1.8  100   -1.8  0     0     986.6    NA       0.0000   9999     1150  0     0    
2019/11/12  06:27:01  BASE  3.39864  355  3.90432  335  -1.8  100   -1.8  0     0     986.6    NA       0.0000   9999     1080  0     0    
2019/11/12  06:28:00  BASE  3.13404  350  3.90432  335  -1.8  100   -1.8  0     0     986.6    NA       0.0000   9999     920   0     0    
2019/11/12  06:29:00  BASE  2.95176  343  3.90432  335  -1.7  100   -1.7  0     0     986.6    NA       0.0000   9999     920   0     0    
2019/11/12  06:30:00  BASE  2.82828  336  3.90432  335  -1.7  100   -1.7  0     0     986.5    NA       0.0000   9999     980   0     0    
2019/11/12  06:31:00  BASE  2.77536  333  3.90432  335  -1.7  100   -1.7  0     0     986.5    NA       0.0000   9999     890   0     0    
2019/11/12  06:32:01  BASE  2.78124  331  3.81024  1    -1.7  100   -1.7  0     0     986.5    NA       0.0000   9999     890   0     0    
2019/11/12  06:33:01  BASE  2.44608  329  3.62796  360  -1.8  100   -1.8  0     0     986.5    NA       0.0000   9999     790   0     0    
2019/11/12  06:34:00  BASE  2.29908  329  3.62796  360  -1.8  100   -1.8  0     0     986.5    NA       0.0000   9999     1120  0     0    
2019/11/12  06:35:00  BASE  2.56368  336  3.62796  360  -1.8  100   -1.8  0     0     986.5    NA       0.0000   9999     1120  0     0    
2019/11/12  06:36:00  BASE  2.95176  341  3.75144  334  -1.8  100   -1.8  0     0     986.5    NA       0.0000   9999     1050  0     0    
2019/11/12  06:37:00  BASE  3.19872  340  3.75144  334  -1.8  100   -1.8  0     0     986.5    NA       0.0000   9999     850   0     0    
2019/11/12  06:38:00  BASE  3.0282   333  3.75144  334  -1.8  100   -1.8  0     0     986.5    NA       0.0000   9999     920   0     0    
2019/11/12  06:39:00  BASE  2.68716  323  3.75144  334  -1.8  100   -1.8  0     0     986.5    NA       0.0000   9999     920   0     0    
2019/11/12  06:40:00  BASE  2.21676  326  3.75144  334  -1.8  100   -1.8  1     0     986.5    NA       0.0000   9999     890   0     0    
2019/11/12  06:41:00  BASE  1.95804  335  3.75144  334  -1.8  100   -1.8  1     0     986.5    NA       0.0000   9999     1080  0     0    
2019/11/12  06:42:00  BASE  2.06976  337  3.75144  334  -1.8  100   -1.8  1     0     986.5    NA       0.0000   9999     1080  0     0    
2019/11/12  06:43:00  BASE  2.26968  338  3.75144  334  -1.8  100   -1.8  1     0     986.5    NA       0.0000   9999     850   0     0    
2019/11/12  06:44:00  BASE  2.56368  344  3.75144  334  -1.8  100   -1.8  1     0     986.5    NA       0.0000   9999     850   0     0    
2019/11/12  06:45:00  BASE  2.69892  344  3.75144  334  -1.7  100   -1.7  1     0     986.6    NA       0.0000   9999     890   0     0    
2019/11/12  06:46:00  BASE  2.89884  339  3.48096  341  -1.7  100   -1.7  1     0     986.6    NA       0.0000   9999     850   0     0    
2019/11/12  06:47:00  BASE  3.11052  337  3.51036  336  -1.7  100   -1.7  1     0     986.6    NA       0.0000   9999     980   0     0    
2019/11/12  06:48:00  BASE  3.12816  337  3.59856  341  -1.7  100   -1.7  1     0     986.6    NA       0.0000   9999     950   0     0    
2019/11/12  06:49:00  BASE  3.02232  334  3.59856  341  -1.7  100   -1.7  1     0     986.6    NA       0.0000   9999     920   0     0    
2019/11/12  06:50:00  BASE  3.06936  332  3.59856  341  -1.7  100   -1.7  1     0     986.5    NA       0.0000   9999     920   0     0    
2019/11/12  06:51:00  BASE  3.18696  334  3.59856  341  -1.7  100   -1.7  1     0     986.5    NA       0.0000   9999     850   0     0    
2019/11/12  06:52:00  BASE  3.03408  335  3.59856  341  -1.7  100   -1.7  1     0     986.5    NA       0.0000   9999     1020  0     0    
2019/11/12  06:53:00  BASE  3.09288  334  3.59856  341  -1.7  100   -1.7  1     0     986.5    NA       0.0000   9999     920   0     0    
2019/11/12  06:54:00  BASE  3.35748  335  3.65736  337  -1.7  100   -1.7  1     0     986.5    NA       0.0000   9999     750   0     0    
2019/11/12  06:55:00  BASE  3.48096  336  3.65736  337  -1.7  100   -1.7  1     0     986.5    NA       0.0000   9999     790   0     0    
2019/11/12  06:56:00  BASE  3.33984  336  3.65736  337  -1.7  100   -1.7  1     0     986.5    NA       0.0000   9999     750   0     0    
2019/11/12  06:57:00  BASE  3.2046   335  3.65736  337  -1.7  100   -1.7  2     0     986.5    NA       0.0000   9999     750   0     0    
2019/11/12  06:58:00  BASE  3.18108  336  3.65736  337  -1.7  100   -1.7  2     0     986.4    NA       0.0000   9999     890   0     0    
2019/11/12  06:59:00  BASE  3.11052  336  3.65736  337  -1.7  100   -1.7  2     0     986.4    NA       0.0000   9999     920   0     0    
2019/11/12  07:00:00  BASE  3.07524  337  3.65736  337  -1.7  100   -1.7  2     0     986.4    NA       0.0000   9999     1020  0     0    
2019/11/12  07:01:00  BASE  3.05172  337  3.65736  337  -1.7  100   -1.7  2     0     986.4    NA       0.0000   9999     920   0     0    
2019/11/12  07:02:00  BASE  3.05172  336  3.65736  337  -1.7  100   -1.7  2     0     986.3    NA       0.0000   9999     920   0     0    
2019/11/12  07:03:00  BASE  3.10464  336  3.65736  337  -1.7  100   -1.7  2     0     986.3    NA       0.0000   9999     890   0     0    
2019/11/12  07:04:00  BASE  3.12228  337  3.62796  334  -1.7  100   -1.7  3     0     986.3    NA       0.0000   9999     980   0     0    
2019/11/12  07:05:00  BASE  3.15756  337  3.51036  334  -1.7  100   -1.7  3     0     986.3    NA       0.0000   9999     1050  0     0    
2019/11/12  07:06:00  BASE  3.22224  336  3.51036  334  -1.7  100   -1.7  3     0     986.3    NA       0.0000   9999     920   0     0    
2019/11/12  07:07:00  BASE  3.16344  335  3.38688  334  -1.7  100   -1.7  4     0     986.3    NA       0.0000   9999     890   5840  0    
2019/11/12  07:08:00  BASE  3.15756  335  3.38688  334  -1.7  100   -1.7  5     0     986.3    NA       0.0000   9999     890   5810  0    
2019/11/12  07:09:00  BASE  3.2634   335  3.48096  333  -1.7  100   -1.7  5     0     986.3    NA       0.0000   9999     720   5710  0    
2019/11/12  07:10:00  BASE  3.34572  334  3.75144  333  -1.7  100   -1.7  6     0     986.3    NA       0.0000   9999     720   1770  0    
2019/11/12  07:11:00  BASE  3.39864  333  3.75144  333  -1.7  100   -1.7  6     0     986.3    NA       0.0000   9999     660   1740  0    
2019/11/12  07:12:00  BASE  3.234    333  3.75144  333  -1.7  100   -1.7  7     0     986.3    NA       0.0000   9999     590   1740  0    
2019/11/12  07:13:00  BASE  2.9988   334  3.75144  333  -1.7  100   -1.7  7     0     986.3    NA       0.0000   9999     590   2130  0    
2019/11/12  07:14:00  BASE  2.9106   333  3.75144  333  -1.7  100   -1.7  8     0     986.2    NA       0.0000   9999     620   2200  0    
2019/11/12  07:15:00  BASE  3.01644  332  3.75144  333  -1.7  100   -1.7  8     0     986.2    NA       0.0000   9999     620   2200  0    
2019/11/12  07:16:00  BASE  3.16932  328  3.75144  333  -1.7  100   -1.7  8     0     986.2    NA       0.0000   9999     660   2200  0    
2019/11/12  07:17:00  BASE  3.22224  324  3.75144  333  -1.7  100   -1.7  9     0     986.2    NA       0.0000   9999     2170  0     0    
2019/11/12  07:18:00  BASE  3.12816  322  3.75144  333  -1.7  100   -1.7  9     0     986.2    NA       0.0000   9999     2200  5840  0    
2019/11/12  07:19:00  BASE  2.96352  325  3.75144  333  -1.7  100   -1.7  9     0     986.2    NA       0.0000   9999     2170  5770  0    
2019/11/12  07:20:00  BASE  2.88708  325  3.56916  334  -1.7  100   -1.7  9     0     986.2    NA       0.0000   9999     2170  0     0    
2019/11/12  07:21:00  BASE  2.84592  322  3.41628  322  -1.8  100   -1.8  9     0     986.2    NA       0.0000   9999     2200  0     0    
2019/11/12  07:22:00  BASE  2.69892  320  3.41628  322  -1.8  100   -1.8  9     0     986.2    NA       0.0000   9999     1840  0     0    
2019/11/12  07:23:00  BASE  2.5284   319  3.41628  322  -1.8  100   -1.8  9     0     986.2    NA       0.0000   9999     1670  2230  0    
2019/11/12  07:24:01  BASE  2.65188  314  3.41628  322  -1.8  100   -1.8  9     0     986.3    NA       0.0000   9999     1610  0     0    
2019/11/12  07:25:00  BASE  2.92236  311  3.41628  322  -1.9  100   -1.9  9     0     986.3    NA       0.0000   9999     1570  2330  0    
2019/11/12  07:26:00  BASE  3.09288  311  3.41628  322  -1.9  100   -1.9  9     0     986.3    NA       0.0000   9999     1570  2330  0    
2019/11/12  07:27:00  BASE  3.15168  311  3.26928  307  -1.9  100   -1.9  10    0     986.3    NA       0.0000   9999     1310  2300  0    
2019/11/12  07:28:00  BASE  3.16932  312  3.26928  307  -1.9  100   -1.9  11    0     986.3    NA       0.0000   9999     1310  0     0    
2019/11/12  07:29:00  BASE  3.1752   313  3.26928  313  -1.9  100   -1.9  12    0     986.3    NA       0.0000   9999     1410  0     0    
2019/11/12  07:30:00  BASE  3.1752   313  3.26928  313  -1.9  100   -1.9  14    0     986.3    NA       0.0000   9999     1410  0     0    
2019/11/12  07:31:01  BASE  3.07524  315  3.26928  313  -1.9  100   -1.9  15    0     986.3    NA       0.0000   9999     1350  0     0    
2019/11/12  07:32:00  BASE  2.98704  315  3.26928  313  -1.9  100   -1.9  15    0     986.3    NA       0.0000   9999     1410  0     0    
2019/11/12  07:33:00  BASE  2.94588  315  3.26928  313  -1.9  100   -1.9  15    0     986.2    NA       0.0000   9999     1440  0     0    
2019/11/12  07:34:00  BASE  2.92236  315  3.26928  313  -1.9  100   -1.9  15    0     986.3    NA       0.0000   9999     1380  0     0    
2019/11/12  07:35:00  BASE  3.01644  315  3.26928  313  -1.9  100   -1.9  15    0     986.3    NA       0.0000   9999     1410  0     0    
2019/11/12  07:36:00  BASE  3.13404  315  3.26928  314  -1.9  100   -1.9  15    0     986.3    NA       0.0000   9999     1410  0     0    
2019/11/12  07:37:00  BASE  3.15756  314  3.29868  313  -1.9  100   -1.9  15    0     986.3    NA       0.0000   9999     1380  0     0    
2019/11/12  07:38:00  BASE  2.9694   311  3.29868  313  -1.9  100   -1.9  16    0     986.3    NA       0.0000   9999     1310  0     0    
2019/11/12  07:39:00  BASE  2.57544  307  3.29868  313  -1.9  100   -1.9  18    0     986.3    NA       0.0000   9999     1310  0     0    
2019/11/12  07:40:00  BASE  2.28732  303  3.29868  313  -2.0  100   -2.0  20    0     986.2    NA       0.0000   9999     1310  0     0    
2019/11/12  07:41:00  BASE  2.2344   300  3.29868  313  -2.0  100   -2.0  21    0     986.2    NA       0.0000   9999     1310  0     0    
2019/11/12  07:42:00  BASE  2.27556  298  3.29868  313  -2.0  100   -2.0  22    0     986.2    NA       0.0000   9999     1280  0     0    
2019/11/12  07:43:00  BASE  2.2638   298  3.29868  313  -2.0  100   -2.0  23    0     986.3    NA       0.0000   9999     1250  0     0    
2019/11/12  07:44:01  BASE  2.21088  298  3.29868  313  -2.0  100   -2.0  25    0     986.3    NA       0.0000   9999     1280  0     0    
2019/11/12  07:45:00  BASE  2.16384  296  3.29868  313  -2.0  100   -2.0  26    0     986.2    NA       0.0000   9999     1250  0     0    
2019/11/12  07:46:01  BASE  2.12856  293  3.29868  313  -2.0  100   -2.0  26    0     986.2    NA       0.0000   9999     1250  0     0    
2019/11/12  07:47:01  BASE  2.13444  292  3.087    313  -2.0  100   -2.0  27    0     986.2    NA       0.0000   9999     1250  0     0    
2019/11/12  07:48:01  BASE  2.14032  292  2.54016  304  -2.0  100   -2.0  27    0     986.2    NA       0.0000   9999     1250  0     0    
2019/11/12  07:49:01  BASE  2.06976  294  2.42256  300  -2.0  100   -2.0  28    0     986.2    NA       0.0000   9999     1210  0     0    
2019/11/12  07:50:01  BASE  1.91688  294  2.42256  300  -2.0  100   -2.0  28    0     986.2    NA       0.0000   9999     1180  0     0    
2019/11/12  07:51:00  BASE  1.83456  293  2.42256  300  -1.9  100   -1.9  29    0     986.2    NA       0.0000   9999     1150  0     0    
2019/11/12  07:52:00  BASE  1.90512  293  2.42256  300  -1.9  100   -1.9  31    0     986.2    NA       0.0000   9999     1080  0     0    
2019/11/12  07:53:01  BASE  1.9992   294  2.35788  301  -1.9  100   -1.9  32    0     986.2    NA       0.0000   9999     1050  0     0    
2019/11/12  07:54:00  BASE  2.1168   297  2.32848  299  -1.9  100   -1.9  33    0     986.2    NA       0.0000   9999     980   0     0    
2019/11/12  07:55:00  BASE  2.25204  300  2.38728  302  -1.9  100   -1.9  35    0     986.2    NA       0.0000   9999     1080  0     0    
2019/11/12  07:56:01  BASE  2.2638   305  2.38728  302  -1.9  100   -1.9  36    0     986.2    NA       0.0000   9999     1210  0     0    
2019/11/12  07:57:00  BASE  2.22852  310  2.38728  302  -1.9  100   -1.9  37    0     986.2    NA       0.0000   9999     1120  0     0    
2019/11/12  07:58:00  BASE  2.1462   312  2.38728  302  -1.9  100   -1.9  39    0     986.2    NA       0.0000   9999     1150  0     0    
2019/11/12  07:59:00  BASE  1.95216  309  2.38728  302  -1.9  100   -1.9  43    0     986.2    NA       0.0000   9999     1380  0     0    
2019/11/12  08:00:00  BASE  1.77576  305  2.38728  302  -1.9  100   -1.9  48    0     986.2    NA       0.0000   9999     1310  0     0    
2019/11/12  08:01:00  BASE  1.74636  305  2.38728  302  -1.9  100   -1.9  51    0     986.1    NA       0.0000   9999     1310  0     0    
2019/11/12  08:02:00  BASE  1.77576  303  2.38728  302  -1.9  100   -1.9  55    0     986.1    NA       0.0000   9999     1380  0     0    
2019/11/12  08:03:00  BASE  1.69932  298  2.38728  302  -1.9  100   -1.9  57    0     986.1    NA       0.0000   9999     1350  0     0    
2019/11/12  08:04:00  BASE  1.64052  299  2.38728  302  -1.8  100   -1.8  57    0     986.1    NA       0.0000   9999     1280  0     0    
2019/11/12  08:05:00  BASE  1.60524  303  2.29908  313  -1.8  100   -1.8  56    0     986.1    NA       0.0000   9999     1310  0     0    
2019/11/12  08:06:00  BASE  1.39356  304  2.29908  313  -1.8  100   -1.8  58    0     986.1    NA       0.0000   9999     1250  0     0    
2019/11/12  08:07:00  BASE  1.21128  306  2.1168   313  -1.8  100   -1.8  60    0     986.1    NA       0.0000   9999     1150  0     0    
2019/11/12  08:08:00  BASE  1.1172   309  2.0286   312  -1.8  100   -1.8  62    0     986.1    NA       0.0000   9999     1180  0     0    
2019/11/12  08:09:00  BASE  0.91728  311  1.87572  301  -1.8  100   -1.8  64    0     986.2    NA       0.0000   9999     1150  0     0    
2019/11/12  08:10:00  BASE  0.77028  306  1.87572  301  -1.8  100   -1.8  65    0     986.2    NA       0.0000   9999     1180  0     0    
2019/11/12  08:11:00  BASE  0.79968  302  1.87572  301  -1.8  100   -1.8  65    0     986.2    NA       0.0000   9999     1280  0     0    
2019/11/12  08:12:00  BASE  0.87024  306  1.78752  310  -1.8  100   -1.8  64    0     986.2    NA       0.0000   9999     1250  23070 0    
2019/11/12  08:13:00  BASE  0.75264  309  1.78752  310  -1.8  100   -1.8  63    0     986.2    NA       0.0000   9999     1210  0     0    
2019/11/12  08:14:00  BASE  0.67032  309  1.75224  303  -1.8  100   -1.8  62    0     986.2    NA       0.0000   9999     1250  0     0    
2019/11/12  08:15:00  BASE  0.588    306  1.29948  304  -1.8  100   -1.8  61    0     986.1    NA       0.0000   9999     1180  0     0    
2019/11/12  08:16:00  BASE  0.37044  302  1.24068  307  -1.8  100   -1.8  60    0     986.0    NA       0.0000   9999     1050  0     0    
2019/11/12  08:17:00  BASE  0.147    299  1.18188  308  -1.8  100   -1.8  59    0     986.0    NA       0.0000   9999     1120  0     0    
2019/11/12  08:18:00  BASE  0        298  1.0878   306  -1.8  100   -1.8  59    0     986.0    NA       0.0000   9999     1180  0     0    
2019/11/12  08:19:00  BASE  0.0588   304  1.0878   306  -1.8  100   -1.8  59    0     986.0    NA       0.0000   9999     1150  0     0    
2019/11/12  08:20:00  BASE  0.11172  317  1.0878   306  -1.8  100   -1.8  61    0     986.0    NA       0.0000   9999     1150  0     0    
2019/11/12  08:21:01  BASE  0.05292  327  1.0878   306  -1.9  100   -1.9  64    0     986.0    NA       0.0000   9999     1120  0     0    
2019/11/12  08:22:01  BASE  0.14112  323  1.0878   306  -1.9  100   -1.9  65    0     986.0    NA       0.0000   9999     1120  0     0    
2019/11/12  08:23:01  BASE  0.17052  311  0.90552  307  -1.9  100   -1.9  67    0     986.0    NA       0.0000   9999     1120  0     0    
2019/11/12  08:24:01  BASE  0.0294   306  0.90552  307  -1.9  100   -1.9  71    0     986.0    NA       0.0000   9999     1080  0     0    
2019/11/12  08:25:01  BASE  0        306  0.90552  307  -1.9  100   -1.9  73    0     986.0    NA       0.0000   9999     1080  0     0    
2019/11/12  08:26:01  BASE  0        306  0.75852  303  -1.8  100   -1.8  75    0     986.0    NA       0.0000   9999     1080  0     0    
2019/11/12  08:27:01  BASE  0        306  0.75852  303  -1.8  100   -1.8  75    0     986.0    NA       0.0000   9999     1050  0     0    
2019/11/12  08:28:01  BASE  0        306  0.75852  303  -1.8  100   -1.8  77    0     985.9    NA       0.0000   9999     1050  0     0    
2019/11/12  08:29:00  BASE  0        306  0.75852  303  -1.8  100   -1.8  79    0     985.9    NA       0.0000   9999     1080  0     0    
2019/11/12  08:30:00  BASE  0        315  0.75852  303  -1.7  100   -1.7  83    0     985.9    NA       0.0000   9999     1020  0     0    
2019/11/12  08:31:01  BASE  0        332  0.75852  303  -1.7  100   -1.7  85    0     985.8    NA       0.0000   9999     1050  0     0    
2019/11/12  08:32:01  BASE  0        345  0.63504  304  -1.8  100   -1.8  84    0     985.8    NA       0.0000   9999     1020  0     0    
2019/11/12  08:33:00  BASE  0        7    0        M    -1.8  100   -1.8  80    0     985.8    NA       0.0000   9999     1050  0     0    
2019/11/12  08:34:01  BASE  0        17   0        M    -1.8  100   -1.8  75    0     985.8    NA       0.0000   9999     1020  0     0    
2019/11/12  08:35:00  BASE  0        358  0        M    -1.8  100   -1.8  70    0     985.8    NA       0.0000   9999     1020  0     0    
2019/11/12  08:36:00  BASE  0.02352  345  0.60564  345  -1.8  100   -1.8  67    0     985.8    NA       0.0000   9999     1050  0     0    
2019/11/12  08:37:00  BASE  0.21756  346  0.72324  345  -1.8  100   -1.8  64    0     985.8    NA       0.0000   9999     1050  0     0    
2019/11/12  08:38:00  BASE  0.34692  347  0.72324  345  -1.8  100   -1.8  63    0     985.7    NA       0.0000   9999     1080  0     0    
2019/11/12  08:39:00  BASE  0.15288  353  0.72324  345  -1.8  100   -1.8  62    0     985.7    NA       0.0000   9999     1050  0     0    
2019/11/12  08:40:00  BASE  0.02352  357  0.72324  345  -1.8  100   -1.8  61    0     985.7    NA       0.0000   9999     1080  1800  0    
2019/11/12  08:41:00  BASE  0.12936  354  0.72324  345  -1.8  100   -1.8  59    0     985.7    NA       0.0000   9999     1080  1770  0    
2019/11/12  08:42:00  BASE  0.12936  349  0.72324  345  -1.8  100   -1.8  58    0     985.7    NA       0.0000   9999     1080  1770  0    
2019/11/12  08:43:00  BASE  0.0294   348  0.72324  345  -1.8  100   -1.8  58    0     985.7    NA       0.0000   9999     1080  1770  0    
2019/11/12  08:44:00  BASE  0        349  0.72324  345  -1.8  100   -1.8  59    0     985.7    NA       0.0000   9999     1080  0     0    
2019/11/12  08:45:00  BASE  0        348  0.72324  345  -1.8  100   -1.8  61    0     985.7    NA       0.0000   9999     1120  0     0    
2019/11/12  08:46:00  BASE  0        346  0.72324  345  -1.8  100   -1.8  63    0     985.7    NA       0.0000   9999     1150  0     0    
2019/11/12  08:47:00  BASE  0        342  0.66444  354  -1.8  100   -1.8  65    0     985.6    NA       0.0000   9999     1150  0     0    
2019/11/12  08:48:00  BASE  0        339  0.66444  354  -1.8  100   -1.8  69    0     985.6    NA       0.0000   9999     1150  0     0    
2019/11/12  08:49:00  BASE  0        339  0.66444  354  -1.8  100   -1.8  73    0     985.6    NA       0.0000   9999     1150  0     0    
2019/11/12  08:50:00  BASE  0        339  0.66444  354  -1.8  100   -1.8  77    0     985.6    NA       0.0000   9999     1180  0     0    
2019/11/12  08:51:00  BASE  0        344  0.63504  346  -1.7  100   -1.7  81    0     985.6    NA       0.0000   9999     1180  0     0    
2019/11/12  08:52:00  BASE  0        356  0        M    -1.7  100   -1.7  84    0     985.6    NA       0.0000   9999     1180  0     0    
2019/11/12  08:53:01  BASE  0        3    0        M    -1.7  100   -1.7  88    0     985.6    NA       0.0000   9999     1180  0     0    
2019/11/12  08:54:01  BASE  0        3    0        M    -1.7  100   -1.7  91    0     985.7    NA       0.0000   9999     1210  0     0    
2019/11/12  08:55:01  BASE  0        3    0        M    -1.6  100   -1.6  95    0     985.7    NA       0.0000   9999     1180  0     0    
2019/11/12  08:56:01  BASE  0        3    0        M    -1.6  100   -1.6  97    0     985.7    NA       0.0000   9999     1150  0     0    
2019/11/12  08:57:01  BASE  0        2    0        M    -1.7  100   -1.7  99    0     985.7    NA       0.0000   9999     1180  0     0    
2019/11/12  08:58:01  BASE  0        9    0        M    -1.7  100   -1.7  100   0     985.7    NA       0.0000   9999     1180  0     0    
2019/11/12  08:59:01  BASE  0.12936  140  0.66444  163  -1.6  100   -1.6  101   0     985.7    NA       0.0000   9999     1180  0     0    
2019/11/12  09:00:01  BASE  0.42336  166  0.72324  177  -1.6  100   -1.6  102   0     985.7    NA       0.0000   9999     1310  0     0    
2019/11/12  09:01:01  BASE  0.54684  177  0.72324  177  -1.6  100   -1.6  101   0     985.7    NA       0.0000   9999     1280  0     0    
2019/11/12  09:02:01  BASE  0.58212  184  0.93492  175  -1.6  100   -1.6  100   0     985.7    NA       0.0000   9999     1250  0     0    
2019/11/12  09:03:01  BASE  0.72912  175  0.93492  175  -1.6  100   -1.6  97    0     985.7    NA       0.0000   9999     1180  0     0    
2019/11/12  09:04:01  BASE  0.75264  165  0.93492  175  -1.6  100   -1.6  95    0     985.7    NA       0.0000   9999     1280  0     0    
2019/11/12  09:05:01  BASE  0.68208  162  0.93492  175  -1.6  100   -1.6  93    0     985.7    NA       0.0000   9999     1280  0     0    
2019/11/12  09:06:01  BASE  0.58212  159  0.93492  175  -1.6  100   -1.6  91    0     985.7    NA       0.0000   9999     1350  0     0    
2019/11/12  09:07:01  BASE  0.62916  159  0.93492  175  -1.6  100   -1.6  90    0     985.6    NA       0.0000   9999     1380  0     0    
2019/11/12  09:08:01  BASE  0.75264  155  0.93492  175  -1.6  100   -1.6  89    0     985.6    NA       0.0000   9999     1310  0     0    
2019/11/12  09:09:00  BASE  0.79968  151  0.9702   151  -1.5  100   -1.5  90    0     985.6    NA       0.0000   9999     1210  0     0    
2019/11/12  09:10:00  BASE  0.80556  156  0.9702   151  -1.5  100   -1.5  91    0     985.6    NA       0.0000   9999     1210  0     0    
2019/11/12  09:11:00  BASE  0.43512  168  0.9702   151  -1.5  100   -1.5  93    0     985.6    NA       0.0000   9999     1250  0     0    
2019/11/12  09:12:01  BASE  0.06468  166  0.9702   151  -1.5  100   -1.5  96    0     985.6    NA       0.0000   9999     1210  0     0    
2019/11/12  09:13:00  BASE  0        167  0.9702   151  -1.5  100   -1.5  100   0     985.6    NA       0.0000   9999     1210  0     0    
2019/11/12  09:14:00  BASE  0        182  0.9702   151  -1.5  100   -1.5  103   0     985.7    NA       0.0000   9999     1280  0     0    
2019/11/12  09:15:00  BASE  0        203  0.9702   151  -1.5  100   -1.5  105   0     985.7    NA       0.0000   9999     1210  0     0    
2019/11/12  09:16:00  BASE  0        220  0.9702   151  -1.5  100   -1.5  106   0     985.6    NA       0.0000   9999     1280  0     0    
2019/11/12  09:17:00  BASE  0        220  0.9702   151  -1.4  100   -1.4  106   0     985.6    NA       0.0000   9999     1310  0     0    
2019/11/12  09:18:00  BASE  0        220  0.9702   151  -1.4  100   -1.4  106   0     985.6    NA       0.0000   9999     1210  0     0    
2019/11/12  09:19:00  BASE  0        220  0.81732  163  -1.4  100   -1.4  106   0     985.6    NA       0.0000   9999     1250  0     0    
2019/11/12  09:20:00  BASE  0        220  0.81732  163  -1.3  100   -1.3  106   0     985.6    NA       0.0000   9999     1210  1640  0    
2019/11/12  09:21:00  BASE  0        257  0        M    -1.3  100   -1.3  105   0     985.6    NA       0.0000   9999     1210  0     0    
2019/11/12  09:22:00  BASE  0        299  0        M    -1.3  100   -1.3  103   0     985.6    NA       0.0000   9999     1280  0     0    
2019/11/12  09:23:00  BASE  0.27636  307  0.69384  311  -1.3  100   -1.3  101   0     985.6    NA       0.0000   9999     1180  0     0    
2019/11/12  09:24:01  BASE  0.48804  314  0.69384  311  -1.3  100   -1.3  98    0     985.7    NA       0.0000   9999     1180  0     0    
2019/11/12  09:25:01  BASE  0.34692  315  0.69384  311  -1.3  100   -1.3  97    0     985.6    NA       0.0000   9999     1150  0     0    
2019/11/12  09:26:01  BASE  0.13524  318  0.69384  311  -1.2  100   -1.2  95    0     985.6    NA       0.0000   9999     1210  0     0    
2019/11/12  09:27:01  BASE  0        324  0.69384  311  -1.3  100   -1.3  94    0     985.6    NA       0.0000   9999     1180  0     0    
2019/11/12  09:28:01  BASE  0        326  0.69384  311  -1.3  100   -1.3  93    0     985.6    NA       0.0000   9999     1150  0     0    
2019/11/12  09:29:01  BASE  0        326  0.69384  311  -1.3  100   -1.3  91    0     985.6    NA       0.0000   9999     1150  0     0    
2019/11/12  09:30:01  BASE  0        326  0.69384  311  -1.4  100   -1.4  89    0     985.5    NA       0.0000   9999     1150  0     0    
2019/11/12  09:31:01  BASE  0        326  0.69384  311  -1.4  100   -1.4  88    0     985.6    NA       0.0000   9999     1150  0     0    
2019/11/12  09:32:01  BASE  0        321  0.69384  311  -1.4  100   -1.4  87    0     985.5    NA       0.0000   9999     1210  0     0    
2019/11/12  09:33:01  BASE  0        305  0.66444  310  -1.4  100   -1.4  87    0     985.6    NA       0.0000   9999     1210  0     0    
2019/11/12  09:34:01  BASE  0        296  0.66444  310  -1.4  100   -1.4  87    0     985.5    NA       0.0000   9999     1250  0     0    
2019/11/12  09:35:01  BASE  0        287  0        M    -1.4  100   -1.4  88    0     985.4    NA       0.0000   9999     1250  0     0    
2019/11/12  09:36:01  BASE  0        258  0        M    -1.4  100   -1.4  90    0     985.4    NA       0.0000   9999     1180  0     0    
2019/11/12  09:37:01  BASE  0        238  0        M    -1.5  100   -1.5  94    0     985.4    NA       0.0000   9999     1280  0     0    
2019/11/12  09:38:01  BASE  0        213  0        M    -1.5  100   -1.5  99    0     985.4    NA       0.0000   9999     1210  0     0    
2019/11/12  09:39:01  BASE  0        200  0        M    -1.5  100   -1.5  104   0     985.4    NA       0.0000   9999     1210  0     0    
2019/11/12  09:40:01  BASE  0        229  0        M    -1.5  100   -1.5  108   0     985.4    NA       0.0000   9999     1210  0     0    
2019/11/12  09:41:01  BASE  0        201  0        M    -1.5  100   -1.5  111   0     985.4    NA       0.0000   9999     1180  0     0    
2019/11/12  09:42:01  BASE  0        165  0        M    -1.5  100   -1.5  111   0     985.4    NA       0.0000   9999     1180  0     0    
2019/11/12  09:43:01  BASE  0        183  0        M    -1.5  100   -1.5  108   0     985.4    NA       0.0000   9999     1180  0     0    
2019/11/12  09:44:01  BASE  0        200  0        M    -1.5  100   -1.5  107   0     985.4    NA       0.0000   9999     1180  0     0    
2019/11/12  09:45:01  BASE  0.02352  198  0.60564  183  -1.5  100   -1.5  108   0     985.4    NA       0.0000   9999     1150  0     0    
2019/11/12  09:46:01  BASE  0.02352  191  0.60564  183  -1.5  100   -1.5  112   0     985.4    NA       0.0000   9999     1020  0     0    
2019/11/12  09:47:00  BASE  0        188  0.60564  183  -1.5  100   -1.5  118   0     985.4    NA       0.0000   9999     1050  0     0    
2019/11/12  09:48:01  BASE  0.07644  192  0.60564  195  -1.5  100   -1.5  127   0     985.4    NA       0.0000   9999     1050  0     0    
2019/11/12  09:49:00  BASE  0.07644  224  0.60564  195  -1.5  100   -1.5  136   0     985.4    NA       0.0000   9999     1050  0     0    
2019/11/12  09:50:01  BASE  0        212  0.60564  195  -1.5  100   -1.5  144   0     985.4    NA       0.0000   9999     1050  0     0    
2019/11/12  09:51:01  BASE  0.07644  214  0.90552  259  -1.5  100   -1.5  150   0     985.4    NA       0.0000   9999     1050  0     0    
2019/11/12  09:52:01  BASE  0.37632  254  0.9702   255  -1.5  100   -1.5  155   0     985.4    NA       0.0000   9999     1050  0     0    
2019/11/12  09:53:00  BASE  0.74088  264  1.0878   271  -1.4  100   -1.4  158   0     985.4    NA       0.0000   9999     1020  0     0    
2019/11/12  09:54:00  BASE  0.65856  277  1.0878   271  -1.4  100   -1.4  160   0     985.4    NA       0.0000   9999     1020  0     0    
2019/11/12  09:55:00  BASE  0.59388  293  1.1466   267  -1.3  100   -1.3  161   0     985.4    NA       0.0000   9999     980   0     0    
2019/11/12  09:56:01  BASE  0.69972  292  1.21128  281  -1.2  100   -1.2  161   0     985.3    NA       0.0000   9999     980   0     0    
2019/11/12  09:57:00  BASE  0.88788  284  1.69344  281  -1.1  100   -1.1  161   0     985.3    NA       0.0000   9999     950   0     0    
2019/11/12  09:58:01  BASE  1.04076  281  1.69344  281  -1.0  100   -1.0  160   0     985.3    NA       0.0000   9999     920   0     0    
2019/11/12  09:59:01  BASE  0.95256  284  1.69344  281  -0.9  100   -0.9  158   0     985.3    NA       0.0000   9999     920   0     0    
2019/11/12  10:00:01  BASE  1.01136  285  1.69344  281  -0.9  100   -0.9  156   0     985.3    NA       0.0000   9999     920   0     0    
2019/11/12  10:01:01  BASE  0.89964  301  1.69344  281  -0.9  100   -0.9  154   0     985.3    NA       0.0000   9999     920   0     0    
2019/11/12  10:02:01  BASE  0.9408   299  1.72284  270  -0.9  100   -0.9  151   0     985.2    NA       0.0000   UP       9000  950   0    
2019/11/12  10:03:01  BASE  1.50528  290  2.1168   326  -0.9  100   -0.9  147   0     985.2    NA       0.0000   UP       9000  980   0    
2019/11/12  10:04:01  BASE  1.58172  317  2.1168   326  -0.9  100   -0.9  143   0     985.2    NA       0.0000   UP       9000  980   0    
2019/11/12  10:05:01  BASE  1.2936   307  2.1168   326  -0.9  100   -0.9  139   0     985.2    NA       0.0000   UP       8000  980   0    
2019/11/12  10:06:01  BASE  1.18776  288  2.1168   326  -0.9  100   -0.9  137   0     985.2    NA       0.0000   UP       BR    7000  1050 
2019/11/12  10:07:01  BASE  0.89964  295  2.1168   326  -0.9  100   -0.9  137   0     985.2    NA       0.0000   UP       BR    6000  980  
2019/11/12  10:08:01  BASE  0.735    297  2.1168   326  -0.9  100   -0.9  137   0     985.2    NA       0.0000   UP       BR    6000  1020 
2019/11/12  10:09:01  BASE  0.94668  292  2.1168   326  -0.9  100   -0.9  139   0     985.2    NA       0.0000   UP       BR    5000  390  
2019/11/12  10:10:01  BASE  1.32888  282  2.1168   326  -0.9  100   -0.9  141   0     985.1    NA       0.0000   UP       BR    4500  390  
2019/11/12  10:11:01  BASE  1.2936   272  2.1168   326  -0.9  100   -0.9  143   0     985.1    NA       0.0000   UP       BR    5000  360  
2019/11/12  10:12:01  BASE  0.98196  265  2.1168   326  -0.9  100   -0.9  146   0     985.1    NA       0.0000   UP       BR    4500  360  
2019/11/12  10:13:01  BASE  0.58212  242  2.0286   302  -1.0  100   -1.0  152   0     985.1    NA       0.0000   -SN      BR    4600  390  
2019/11/12  10:14:01  BASE  0.49392  210  2.0286   302  -1.1  100   -1.1  158   0     985.1    NA       0.0000   -SN      BR    4500  1120 
2019/11/12  10:15:01  BASE  0.48804  195  1.87572  272  -1.1  100   -1.1  166   0     985.0    NA       0.0000   -SN      BR    4500  1150 
2019/11/12  10:16:01  BASE  0.37044  183  1.87572  272  -1.2  100   -1.2  174   0     984.9    NA       0.0000   -SN      BR    5000  1080 
2019/11/12  10:17:01  BASE  0.6762   170  1.87572  272  -1.3  100   -1.3  182   0     984.9    NA       0.0000   -SN      BR    5000  1050 
2019/11/12  10:18:01  BASE  0.53508  165  1.87572  272  -1.3  100   -1.3  189   0     984.9    NA       0.0000   -SN      BR    5000  1280 
2019/11/12  10:19:01  BASE  0.42336  151  1.87572  272  -1.2  100   -1.2  196   0     984.9    NA       0.0000   -SN      BR    5000  390  
2019/11/12  10:20:01  BASE  0.48804  133  1.48176  278  -1.2  100   -1.2  201   0     984.9    NA       0.0000   -SN      BR    5000  1280 
2019/11/12  10:21:01  BASE  0.59976  139  1.45236  263  -1.2  100   -1.2  206   0     984.9    NA       0.0000   -SN      BR    6000  1280 
2019/11/12  10:22:01  BASE  0.80556  161  0.9996   153  -1.2  100   -1.2  209   0     984.9    NA       0.0000   -SN      BR    4300  390  
2019/11/12  10:23:01  BASE  0.54096  169  0.9996   153  -1.2  100   -1.2  207   0     984.9    NA       0.0000   -SN      BR    3100  430  
2019/11/12  10:24:01  BASE  0.294    193  0.9996   153  -1.2  100   -1.2  207   0     984.9    NA       0.0000   -SN      BR    4400  390  
2019/11/12  10:25:01  BASE  0.49392  184  1.29948  168  -1.1  100   -1.1  208   0     984.9    NA       0.0000   -SN      BR    9999  1350 
2019/11/12  10:26:01  BASE  0.98196  157  1.42296  168  -1.1  100   -1.1  209   0     984.9    NA       0.0000   -SN      BR    9999  1380 
2019/11/12  10:27:00  BASE  1.46412  163  1.81692  163  -1.0  100   -1.0  211   0     984.9    NA       0.0000   -SN      BR    9999  1350 
2019/11/12  10:28:01  BASE  1.66992  162  1.90512  167  -1.0  100   -1.0  213   0     984.8    NA       0.0000   -SN      BR    9999  1480 
2019/11/12  10:29:00  BASE  1.66992  158  1.90512  167  -1.0  100   -1.0  214   0     984.8    NA       0.0000   -SN      BR    7000  1510 
2019/11/12  10:30:01  BASE  1.617    153  1.90512  167  -1.0  100   -1.0  214   0     984.8    NA       0.0000   -SN      BR    3700  1510 
2019/11/12  10:31:01  BASE  1.39944  158  1.90512  167  -1.0  100   -1.0  211   0     984.8    NA       0.0000   -SN      BR    3300  1570 
2019/11/12  10:32:01  BASE  1.18188  160  1.90512  167  -1.0  100   -1.0  205   0     984.8    NA       0.0000   -SN      BR    3200  1540 
2019/11/12  10:33:01  BASE  1.34652  155  1.90512  167  -1.0  100   -1.0  197   0     984.8    NA       0.0000   -SN      BR    3300  1540 
2019/11/12  10:34:01  BASE  1.62876  154  2.0286   158  -0.9  100   -0.9  191   0     984.8    NA       0.0000   -SN      BR    3100  1640 
2019/11/12  10:35:01  BASE  1.78752  156  2.1168   155  -0.9  100   -0.9  189   0     984.8    NA       0.0000   -SN      BR    2800  2230 
2019/11/12  10:36:01  BASE  2.02272  158  2.35788  162  -0.9  100   -0.9  189   0     984.7    NA       0.0000   -SN      BR    3200  2260 
2019/11/12  10:37:01  BASE  2.1756   157  2.35788  162  -0.9  100   -0.9  190   0     984.7    NA       0.0000   -SN      BR    3600  2260 
2019/11/12  10:38:01  BASE  2.16972  153  2.35788  162  -0.9  100   -0.9  193   0     984.7    NA       0.0000   -SN      BR    3600  1940 
2019/11/12  10:39:01  BASE  2.43432  146  3.1458   146  -0.9  100   -0.9  195   0     984.6    NA       0.0000   -SN      BR    3600  2260 
2019/11/12  10:40:00  BASE  2.66364  141  3.2046   134  -0.9  100   -0.9  196   0     984.6    NA       0.0000   -SN      BR    3500  2260 
2019/11/12  10:41:00  BASE  2.78124  138  3.53976  133  -1.0  100   -1.0  197   0     984.6    NA       0.0000   -SN      BR    5000  2130 
2019/11/12  10:42:00  BASE  2.7636   132  3.53976  133  -1.1  100   -1.1  199   0     984.6    NA       0.0000   -SN      BR    6000  2170 
2019/11/12  10:43:01  BASE  2.71656  132  3.53976  133  -1.1  100   -1.1  201   0     984.5    NA       0.0000   -SN      BR    6000  2200 
2019/11/12  10:44:01  BASE  3.6162   131  5.35668  113  -1.1  100   -1.1  205   0     984.5    NA       0.0000   -SN      BR    6000  2230 
2019/11/12  10:45:01  BASE  4.70988  127  5.53308  119  -1.2  100   -1.2  210   0     984.5    NA       0.0000   -SN      BR    5000  2260 
2019/11/12  10:46:01  BASE  4.77456  131  5.53308  119  -1.2  100   -1.2  213   0     984.4    NA       0.0000   -SN      BR    4300  2300 
2019/11/12  10:47:01  BASE  4.1454   130  5.53308  119  -1.3  100   -1.3  215   0     984.4    NA       0.0000   -SN      BR    3800  2260 
2019/11/12  10:48:01  BASE  4.53936  125  5.68596  124  -1.3  100   -1.3  214   0     984.3    NA       0.0000   -SN      BR    4100  2170 
2019/11/12  10:49:01  BASE  5.28024  122  5.92704  118  -1.4  100   -1.4  211   0     984.3    NA       0.0000   -SN      BR    9999  390  
2019/11/12  10:50:01  BASE  5.2038   122  5.99172  121  -1.5  100   -1.5  209   0     984.3    NA       0.0000   -SN      BR    9999  430  
2019/11/12  10:51:01  BASE  4.97448  125  5.99172  121  -1.5  100   -1.5  207   0     984.3    NA       0.0000   -SN      BR    9999  360  
2019/11/12  10:52:01  BASE  5.00976  123  6.02112  124  -1.6  100   -1.6  207   0     984.3    NA       0.0000   -SN      BR    9999  330  
2019/11/12  10:53:01  BASE  5.21556  122  6.02112  124  -1.6  100   -1.6  210   0     984.3    NA       0.0000   -SN      BR    8000  590  
2019/11/12  10:54:01  BASE  5.39196  121  6.10932  124  -1.7  100   -1.7  216   0     984.2    NA       0.0000   -SN      BR    5000  0    
2019/11/12  10:55:01  BASE  5.4684   122  6.10932  124  -1.7  100   -1.7  225   0     984.2    NA       0.0000   -SN      BR    9999  0    
2019/11/12  10:56:01  BASE  5.41548  124  6.13872  134  -1.7  100   -1.7  236   0     984.2    NA       0.0000   -SN      BR    9999  0    
2019/11/12  10:57:01  BASE  5.50956  125  6.13872  131  -1.7  100   -1.7  246   0     984.1    NA       0.0000   -SN      BR    9000  0    
2019/11/12  10:58:01  BASE  5.37432  125  6.13872  131  -1.7  100   -1.7  255   0     984.1    NA       0.0000   -SN      BR    9000  0    
2019/11/12  10:59:01  BASE  5.60952  127  6.71496  131  -1.6  100   -1.6  261   0     984.1    NA       0.0000   -SN      BR    9000  0    
2019/11/12  11:00:01  BASE  5.47428  127  6.71496  131  -1.6  100   -1.6  266   0     984.1    NA       0.0000   -SN      BR    9999  0    
2019/11/12  11:01:01  BASE  5.6448   125  7.19712  130  -1.6  100   -1.6  269   0     984.1    NA       0.0000   -SN      BR    9999  0    
2019/11/12  11:02:01  BASE  6.47388  126  7.35     132  -1.7  100   -1.7  270   0     984.1    NA       0.0000   -SN      BR    9999  0    
2019/11/12  11:03:01  BASE  6.47976  123  7.35     132  -1.7  100   -1.7  270   0     984.1    NA       0.0000   -SN      BR    9999  1480 
2019/11/12  11:04:01  BASE  6.52092  124  7.35     132  -1.7  100   -1.7  269   0     984.0    NA       0.0000   -SN      9999  1480  0    
2019/11/12  11:05:01  BASE  6.57384  126  7.35     132  -1.8  100   -1.8  266   0     984.0    NA       0.0000   -SN      9999  1480  0    
2019/11/12  11:06:01  BASE  6.3798   126  7.35     132  -1.8  100   -1.8  260   0     984.0    NA       0.0000   -SN      6000  1410  0    
2019/11/12  11:07:01  BASE  6.41508  127  7.65576  125  -1.8  100   -1.8  255   0     984.0    NA       0.0000   -SN      BR    5000  1480 
2019/11/12  11:08:01  BASE  6.68556  126  7.71456  127  -1.8  100   -1.8  251   0     984.0    NA       0.0000   -SN      BR    7000  1020 
2019/11/12  11:09:01  BASE  6.60912  126  7.71456  127  -1.8  100   -1.8  246   0     984.0    NA       0.0000   -SN      BR    7000  620  
2019/11/12  11:10:00  BASE  6.60912  126  7.71456  125  -1.8  100   -1.8  241   0     984.0    NA       0.0000   -SN      BR    7000  460  
2019/11/12  11:11:00  BASE  6.77376  126  7.71456  125  -1.9  100   -1.9  238   0     984.0    NA       0.0000   -SN      BR    9999  390  
2019/11/12  11:12:00  BASE  6.63852  126  7.71456  125  -1.9  100   -1.9  238   0     984.0    NA       0.0000   -SN      BR    9999  0    
2019/11/12  11:13:00  BASE  6.78552  125  8.07912  127  -1.9  100   -1.9  238   0     983.9    NA       0.0000   -SN      BR    9999  330  
2019/11/12  11:14:00  BASE  7.0266   125  8.07912  127  -1.9  100   -1.9  238   0     983.9    NA       0.0000   -SN      BR    8000  330  
2019/11/12  11:15:00  BASE  6.95016  124  8.07912  127  -1.9  100   -1.9  236   0     983.9    NA       0.0000   -SN      BR    5000  0    
2019/11/12  11:16:00  BASE  7.02072  125  8.07912  127  -1.9  100   -1.9  232   0     983.9    NA       0.0000   -SN      BR    9999  0    
2019/11/12  11:17:01  BASE  7.203    124  8.07912  127  -1.9  100   -1.9  227   0     983.9    NA       0.0000   -SN      BR    9999  0    
2019/11/12  11:18:01  BASE  7.07364  124  8.07912  127  -1.9  100   -1.9  224   0     983.8    NA       0.0000   -SN      BR    9999  0    
2019/11/12  11:19:01  BASE  7.0854   125  8.22612  123  -1.9  100   -1.9  224   0     983.8    NA       0.0000   -SN      BR    9999  0    
2019/11/12  11:20:01  BASE  7.24416  123  8.22612  123  -1.9  100   -1.9  227   0     983.7    NA       0.0000   -SN      BR    9999  0    
2019/11/12  11:21:01  BASE  7.04424  123  8.22612  123  -1.9  100   -1.9  233   0     983.7    NA       0.0000   -SN      BR    9999  0    
2019/11/12  11:22:01  BASE  7.09128  124  8.22612  123  -1.9  100   -1.9  241   0     983.7    NA       0.0000   -SN      BR    7000  0    
2019/11/12  11:23:01  BASE  7.19712  123  8.22612  123  -2.0  100   -2.0  250   0     983.7    NA       0.0000   -SN      BR    5000  0    
2019/11/12  11:24:01  BASE  7.12068  126  8.22612  123  -2.0  100   -2.0  260   0     983.7    NA       0.0000   -SN      BR    7000  0    
2019/11/12  11:25:01  BASE  7.00896  128  8.22612  123  -2.0  100   -2.0  269   0     983.7    NA       0.0000   -SN      BR    4100  0    
2019/11/12  11:26:01  BASE  7.13244  128  8.22612  123  -2.0  100   -2.0  280   0     983.6    NA       0.0000   -SN      BR    3800  0    
2019/11/12  11:27:01  BASE  7.44408  128  8.3202   129  -1.9  100   -1.9  290   0     983.6    NA       0.0000   -SN      BR    3700  0    
2019/11/12  11:28:01  BASE  7.03836  131  8.3202   129  -1.9  100   -1.9  298   0     983.6    NA       0.0000   -SN      BR    4100  0    
2019/11/12  11:29:01  BASE  6.56208  130  8.3202   129  -1.9  100   -1.9  304   0     983.5    NA       0.0000   -SN      BR    4100  22380
2019/11/12  11:30:01  BASE  6.76788  126  8.3202   129  -1.9  100   -1.9  310   0     983.5    NA       0.0000   -SN      BR    4400  0    
2019/11/12  11:31:01  BASE  7.4676   124  8.4672   123  -1.9  100   -1.9  321   0     983.5    NA       0.0000   -SN      BR    8000  260  
2019/11/12  11:32:01  BASE  7.74984  123  8.4672   123  -1.9  100   -1.9  338   0     983.5    NA       0.0000   -SN      BR    7000  0    
2019/11/12  11:33:01  BASE  7.17948  126  8.4672   123  -1.9  100   -1.9  359   0     983.4    NA       0.0000   -SN      BR    7000  0    
2019/11/12  11:34:01  BASE  6.74436  130  8.59068  137  -1.9  100   -1.9  380   0     983.4    NA       0.0000   -SN      BR    7000  0    
2019/11/12  11:35:01  BASE  7.30296  128  8.59068  137  -1.9  100   -1.9  394   0     983.3    NA       0.0000   -SN      BR    7000  0    
2019/11/12  11:36:01  BASE  7.87332  131  8.59068  137  -1.8  100   -1.8  400   0     983.3    NA       0.0000   -SN      BR    4700  0    
2019/11/12  11:37:01  BASE  7.40292  130  8.59068  137  -1.8  100   -1.8  401   0     983.4    NA       0.0000   -SN      BR    2800  0    
2019/11/12  11:38:01  BASE  7.36764  124  8.59068  137  -1.8  100   -1.8  400   0     983.4    NA       0.0000   -SN      BR    6000  0    
2019/11/12  11:39:01  BASE  7.36176  125  8.59068  137  -1.8  100   -1.8  390   0     983.4    NA       0.0000   -SN      BR    7000  300  
2019/11/12  11:40:01  BASE  6.77376  128  8.59068  137  -1.8  100   -1.8  367   0     983.3    NA       0.0000   -SN      BR    8000  300  
2019/11/12  11:41:01  BASE  6.909    128  8.59068  137  -1.8  100   -1.8  342   0     983.3    NA       0.0000   -SN      BR    7000  0    
2019/11/12  11:42:01  BASE  7.04424  129  8.59068  137  -1.8  100   -1.8  321   0     983.3    NA       0.0000   -SN      BR    4600  330  
2019/11/12  11:43:01  BASE  6.68556  128  8.59068  137  -1.8  100   -1.8  306   0     983.3    NA       0.0000   -SN      BR    5000  950  
2019/11/12  11:44:01  BASE  6.71496  128  8.50248  133  -1.8  100   -1.8  294   0     983.2    NA       0.0000   -SN      BR    7000  300  
2019/11/12  11:45:01  BASE  7.03836  125  8.50248  133  -1.8  100   -1.8  285   0     983.2    NA       0.0000   -SN      BR    4500  0    
2019/11/12  11:46:01  BASE  7.29708  125  8.25552  120  -1.8  100   -1.8  278   0     983.1    NA       0.0000   -SN      BR    4300  300  
2019/11/12  11:47:01  BASE  7.05012  129  8.25552  120  -1.8  100   -1.8  271   0     983.2    NA       0.0000   -SN      BR    4400  330  
2019/11/12  11:48:01  BASE  6.30336  129  8.22612  122  -1.8  100   -1.8  266   0     983.1    NA       0.0000   -SN      BR    5000  330  
2019/11/12  11:49:00  BASE  6.16812  127  8.22612  122  -1.8  100   -1.8  262   0     983.1    NA       0.0000   -SN      BR    9999  330  
2019/11/12  11:50:00  BASE  6.7914   125  8.22612  122  -1.9  100   -1.9  261   0     983.1    NA       0.0000   -SN      BR    9999  360  
2019/11/12  11:51:00  BASE  6.90312  128  8.22612  122  -1.9  100   -1.9  263   0     983.1    NA       0.0000   -SN      BR    9999  360  
2019/11/12  11:52:01  BASE  6.40332  131  8.22612  122  -1.9  100   -1.9  267   0     983.0    NA       0.0000   -SN      BR    9999  360  
2019/11/12  11:53:00  BASE  6.25632  132  8.22612  122  -1.9  100   -1.9  270   0     983.0    NA       0.0000   -SN      BR    9999  360  
2019/11/12  11:54:01  BASE  5.99172  129  8.22612  122  -1.8  100   -1.8  271   0     983.0    NA       0.0000   -SN      BR    9999  360  
2019/11/12  11:55:00  BASE  5.87412  127  8.07912  127  -1.8  100   -1.8  279   0     982.9    NA       0.0000   -SN      BR    9999  360  
2019/11/12  11:56:01  BASE  5.84472  125  8.07912  127  -1.8  100   -1.8  293   0     982.9    NA       0.0000   -SN      BR    9999  360  
2019/11/12  11:57:00  BASE  6.03876  124  8.07912  127  -1.8  100   -1.8  307   0     982.9    NA       0.0000   -SN      9000  330   0    
2019/11/12  11:58:00  BASE  5.95644  130  8.07912  127  -1.8  100   -1.8  308   0     982.9    NA       0.0000   -SN      5000  330   0    
2019/11/12  11:59:00  BASE  5.57424  132  8.01444  120  -1.8  100   -1.8  305   0     982.9    NA       0.0000   -SN      BR    6000  300  
2019/11/12  12:00:00  BASE  6.15048  127  7.4088   123  -1.8  100   -1.8  301   0     982.9    NA       0.0000   -SN      BR    6000  330  
2019/11/12  12:01:00  BASE  5.56248  127  7.4088   123  -1.8  100   -1.8  295   0     982.9    NA       0.0000   -SN      BR    3000  300  
2019/11/12  12:02:01  BASE  4.83336  130  7.4088   123  -1.8  100   -1.8  287   0     982.9    NA       0.0000   -SN      BR    2900  330  
2019/11/12  12:03:00  BASE  5.2626   131  7.4088   123  -1.8  100   -1.8  280   0     982.9    NA       0.0000   -SN      BR    2500  330  
2019/11/12  12:04:01  BASE  5.41548  130  7.4088   123  -1.8  100   -1.8  275   0     982.9    NA       0.0000   -SN      BR    9000  330  
2019/11/12  12:05:00  BASE  5.50368  132  7.4088   123  -1.8  100   -1.8  275   0     982.9    NA       0.2540   -SN      BR    8000  330  
2019/11/12  12:06:01  BASE  5.62128  134  7.4088   123  -1.8  100   -1.8  279   0     982.9    NA       0.0000   -SN      BR    5000  330  
2019/11/12  12:07:00  BASE  5.53896  133  7.2912   125  -1.7  100   -1.7  284   0     982.9    NA       0.0000   -SN      BR    9999  330  
2019/11/12  12:08:01  BASE  5.28612  135  7.2912   125  -1.7  100   -1.7  289   0     982.9    NA       0.0000   -SN      BR    9999  330  
2019/11/12  12:09:00  BASE  4.89216  141  7.2912   125  -1.7  100   -1.7  293   0     982.9    NA       0.0000   -SN      BR    9000  330  
2019/11/12  12:10:00  BASE  4.6158   145  6.10932  137  -1.7  100   -1.7  297   0     982.9    NA       0.0000   -SN      BR    7000  330  
2019/11/12  12:11:00  BASE  4.35708  140  6.10932  137  -1.7  100   -1.7  302   0     982.8    NA       0.0000   -SN      BR    5000  0    
2019/11/12  12:12:00  BASE  4.36884  135  6.10932  137  -1.7  100   -1.7  304   0     982.8    NA       0.0000   -SN      BR    9999  0    
2019/11/12  12:13:00  BASE  5.22144  137  6.2916   140  -1.7  100   -1.7  306   0     982.7    NA       0.0000   -SN      BR    9999  0    
2019/11/12  12:14:01  BASE  5.75064  141  6.2916   140  -1.7  100   -1.7  306   0     982.7    NA       0.0000   -SN      BR    9999  1310 
2019/11/12  12:15:01  BASE  5.30964  140  6.2916   140  -1.7  100   -1.7  306   0     982.7    NA       0.0000   -SN      BR    9999  4100 
2019/11/12  12:16:01  BASE  4.98036  136  6.2916   140  -1.6  100   -1.6  305   0     982.6    NA       0.0000   -SN      BR    9999  4000 
2019/11/12  12:17:01  BASE  5.18028  134  6.2916   140  -1.6  100   -1.6  301   0     982.6    NA       0.0000   -SN      BR    6000  3870 
2019/11/12  12:18:01  BASE  5.39784  133  6.2916   140  -1.6  100   -1.6  295   0     982.6    NA       0.0000   -SN      BR    8000  3770 
2019/11/12  12:19:01  BASE  5.35668  133  6.2916   140  -1.6  100   -1.6  289   0     982.6    NA       0.0000   -SN      BR    7000  3810 
2019/11/12  12:20:01  BASE  5.18028  134  6.2916   140  -1.6  100   -1.6  285   0     982.6    NA       0.0000   -SN      BR    9999  3810 
2019/11/12  12:21:01  BASE  4.82748  139  6.2916   140  -1.6  100   -1.6  281   0     982.6    NA       0.0000   -SN      BR    9999  3540 
2019/11/12  12:22:01  BASE  4.75104  140  6.2916   140  -1.6  100   -1.6  274   0     982.6    NA       0.0000   -SN      9999  3510  0    
2019/11/12  12:23:01  BASE  4.97448  135  6.02112  139  -1.6  100   -1.6  265   0     982.6    NA       0.0000   -SN      9999  3450  0    
2019/11/12  12:24:01  BASE  4.77456  133  5.83884  138  -1.6  100   -1.6  257   0     982.6    NA       0.0000   -SN      9999  2030  3510 
2019/11/12  12:25:01  BASE  4.83924  134  5.83884  138  -1.6  100   -1.6  252   0     982.6    NA       0.0000   -SN      9999  2070  3540 
2019/11/12  12:26:01  BASE  4.91568  129  5.83884  138  -1.6  100   -1.6  250   0     982.6    NA       0.0000   -SN      9999  2030  0    
2019/11/12  12:27:01  BASE  4.9392   126  5.83884  138  -1.6  100   -1.6  252   0     982.5    NA       0.0000   -SN      9999  2000  0    
2019/11/12  12:28:01  BASE  5.18616  128  5.83884  138  -1.6  100   -1.6  258   0     982.4    NA       0.0000   -SN      9999  2030  0    
2019/11/12  12:29:01  BASE  5.23908  131  5.83884  138  -1.6  100   -1.6  266   0     982.3    NA       0.0000   -SN      9999  2030  3540 
2019/11/12  12:30:01  BASE  5.12148  134  5.74476  128  -1.6  100   -1.6  272   0     982.3    NA       0.0000   -SN      9999  1970  19360
2019/11/12  12:31:01  BASE  4.77456  131  5.74476  128  -1.6  100   -1.6  273   0     982.3    NA       0.0000   -SN      9999  1970  3380 
2019/11/12  12:32:01  BASE  4.41588  124  5.74476  128  -1.6  100   -1.6  270   0     982.3    NA       0.0000   -SN      9999  2030  3410 
2019/11/12  12:33:01  BASE  4.56876  122  5.74476  128  -1.6  100   -1.6  269   0     982.3    NA       0.0000   -SN      9999  2070  0    
2019/11/12  12:34:01  BASE  4.83336  126  5.74476  128  -1.6  100   -1.6  270   0     982.3    NA       0.0000   -SN      9999  2100  0    
2019/11/12  12:35:01  BASE  4.65108  127  5.74476  128  -1.6  100   -1.6  274   0     982.3    NA       0.0000   -SN      9999  2030  0    
2019/11/12  12:36:01  BASE  4.33356  123  5.74476  128  -1.6  100   -1.6  278   0     982.3    NA       0.0000   -SN      9999  2030  0    
2019/11/12  12:37:01  BASE  3.95724  118  5.68596  135  -1.6  100   -1.6  279   0     982.3    NA       0.0000   -SN      9999  2360  0    
2019/11/12  12:38:01  BASE  3.63972  121  5.68596  135  -1.6  100   -1.6  279   0     982.3    NA       0.0000   -SN      9999  2130  0    
2019/11/12  12:39:01  BASE  3.33984  123  5.68596  135  -1.6  100   -1.6  279   0     982.3    NA       0.0000   -SN      9999  2100  0    
2019/11/12  12:40:01  BASE  3.55152  119  5.292    113  -1.5  100   -1.5  282   0     982.3    NA       0.0000   -SN      9000  2490  0    
2019/11/12  12:41:01  BASE  4.07484  117  5.292    113  -1.5  100   -1.5  287   0     982.3    NA       0.0000   -SN      9999  2130  0    
2019/11/12  12:42:01  BASE  4.263    115  5.292    113  -1.5  100   -1.5  292   0     982.3    NA       0.0000   -SN      9999  2230  0    
2019/11/12  12:43:01  BASE  4.25712  116  5.145    130  -1.4  100   -1.4  296   0     982.2    NA       0.0000   -SN      6000  2530  0    
2019/11/12  12:44:01  BASE  3.59856  112  4.80984  124  -1.4  100   -1.4  297   0     982.2    NA       0.0000   -SN      5000  2560  0    
2019/11/12  12:45:01  BASE  2.65776  118  4.62756  113  -1.4  100   -1.4  296   0     982.2    NA       0.0000   -SN      BR    3000  2300 
2019/11/12  12:46:01  BASE  2.646    131  4.62756  113  -1.4  100   -1.4  294   0     982.2    NA       0.0000   -SN      BR    3200  2230 
2019/11/12  12:47:01  BASE  3.09288  133  4.62756  113  -1.4  100   -1.4  293   0     982.2    NA       0.0000   -SN      BR    3200  1970 
2019/11/12  12:48:01  BASE  3.0282   129  4.62756  113  -1.4  100   -1.4  293   0     982.3    NA       0.0000   -SN      BR    3900  2260 
2019/11/12  12:49:01  BASE  2.74008  127  4.62756  113  -1.4  100   -1.4  294   0     982.3    NA       0.0000   -SN      BR    9999  2000 
2019/11/12  12:50:01  BASE  2.5284   130  4.62756  113  -1.3  100   -1.3  297   0     982.3    NA       0.0000   -SN      BR    7000  1870 
2019/11/12  12:51:01  BASE  2.18736  125  4.53936  120  -1.3  100   -1.3  304   0     982.3    NA       0.0000   -SN      BR    3900  2460 
2019/11/12  12:52:01  BASE  1.95216  130  4.35708  116  -1.3  100   -1.3  312   0     982.3    NA       0.0000   -SN      BR    7000  1800 
2019/11/12  12:53:01  BASE  2.03448  142  3.93372  112  -1.3  100   -1.3  316   0     982.3    NA       0.0000   UP       BR    3900  2530 
2019/11/12  12:54:01  BASE  2.04036  146  3.69264  124  -1.3  100   -1.3  317   0     982.3    NA       0.0000   UP       BR    7000  2230 
2019/11/12  12:55:01  BASE  2.06388  150  3.69264  124  -1.3  100   -1.3  317   0     982.3    NA       0.0000   UP       BR    3800  2360 
2019/11/12  12:56:01  BASE  2.0874   156  3.69264  124  -1.3  100   -1.3  315   0     982.2    NA       0.0000   UP       BR    9000  390  
2019/11/12  12:57:01  BASE  1.9698   160  3.234    134  -1.3  100   -1.3  312   0     982.2    NA       0.0000   UP       BR    9999  460  
2019/11/12  12:58:01  BASE  2.00508  158  2.90472  129  -1.3  100   -1.3  308   0     982.2    NA       0.0000   UP       BR    8000  2300 
2019/11/12  12:59:00  BASE  2.25204  160  2.81064  128  -1.3  100   -1.3  305   0     982.1    NA       0.0000   UP       BR    8000  2820 
2019/11/12  13:00:01  BASE  2.4108   166  2.66364  166  -1.3  100   -1.3  303   0     982.1    NA       0.0000   UP       BR    8000  1800 
2019/11/12  13:01:01  BASE  2.19912  164  2.66364  166  -1.3  100   -1.3  303   0     982.2    NA       0.0000   UP       BR    9999  2000 
2019/11/12  13:02:01  BASE  1.90512  156  2.66364  166  -1.3  100   -1.3  304   0     982.2    NA       0.0000   UP       BR    9999  2360 
2019/11/12  13:03:00  BASE  2.00508  152  2.66364  166  -1.3  100   -1.3  305   0     982.1    NA       0.0000   UP       BR    9999  2920 
2019/11/12  13:04:01  BASE  2.18148  153  2.66364  166  -1.3  100   -1.3  307   0     982.1    NA       0.0000   UP       BR    9999  1800 
2019/11/12  13:05:01  BASE  2.15208  155  2.66364  166  -1.3  100   -1.3  313   0     982.1    NA       0.0000   UP       9999  1640  0    
2019/11/12  13:06:01  BASE  2.12856  161  2.66364  166  -1.3  100   -1.3  320   0     982.1    NA       0.0000   UP       9999  1510  0    
2019/11/12  13:07:00  BASE  2.1462   166  2.66364  166  -1.3  100   -1.3  324   0     982.0    NA       0.0000   UP       9999  1800  0    
2019/11/12  13:08:00  BASE  2.18736  169  2.66364  166  -1.3  100   -1.3  328   0     982.0    NA       0.0000   UP       9999  1740  0    
2019/11/12  13:09:00  BASE  2.21088  165  2.66364  166  -1.3  100   -1.3  331   0     982.0    NA       0.0000   9999     1670  0     0    
2019/11/12  13:10:01  BASE  2.22264  162  2.48136  170  -1.3  100   -1.3  334   0     982.0    NA       0.0000   9999     3540  0     0    
2019/11/12  13:11:01  BASE  2.16384  159  2.48136  170  -1.3  100   -1.3  337   0     982.0    NA       0.0000   9999     2030  0     0    
2019/11/12  13:12:00  BASE  2.09328  161  2.48136  170  -1.3  100   -1.3  340   0     981.9    NA       0.0000   9999     1540  0     0    
2019/11/12  13:13:00  BASE  2.12268  171  2.48136  170  -1.3  100   -1.3  340   0     981.8    NA       0.0000   9999     1940  0     0    
2019/11/12  13:14:00  BASE  2.25792  176  2.63424  173  -1.3  100   -1.3  339   0     981.8    NA       0.0000   9999     2130  0     0    
2019/11/12  13:15:00  BASE  2.58132  175  3.02232  170  -1.3  100   -1.3  336   0     981.8    NA       0.0000   9999     1710  3080  0    
2019/11/12  13:16:00  BASE  2.76948  167  3.02232  168  -1.3  100   -1.3  330   0     981.8    NA       0.0000   9999     2490  0     0    
2019/11/12  13:17:00  BASE  2.62836  156  3.02232  168  -1.2  100   -1.2  322   0     981.8    NA       0.0000   9999     1610  3120  0    
2019/11/12  13:18:00  BASE  2.55192  153  3.02232  168  -1.2  100   -1.2  314   0     981.8    NA       0.0000   9999     1250  0     0    
2019/11/12  13:19:00  BASE  2.51076  157  3.02232  168  -1.2  100   -1.2  306   0     981.7    NA       0.0000   9999     2890  0     0    
2019/11/12  13:20:00  BASE  2.34612  158  3.02232  168  -1.2  100   -1.2  299   0     981.7    NA       0.0000   UP       8000  620   22340
2019/11/12  13:21:00  BASE  2.22852  160  3.02232  168  -1.2  100   -1.2  297   0     981.7    NA       0.0000   UP       4500  2990  0    
2019/11/12  13:22:00  BASE  2.45196  163  3.53976  166  -1.2  100   -1.2  296   0     981.6    NA       0.0000   -SN      BR    5000  360  
2019/11/12  13:23:00  BASE  3.44568  161  4.80984  157  -1.2  100   -1.2  298   0     981.6    NA       0.0000   -SN      BR    9999  0    
2019/11/12  13:24:01  BASE  4.263    157  4.80984  153  -1.2  100   -1.2  301   0     981.6    NA       0.0000   -SN      BR    9999  0    
2019/11/12  13:25:01  BASE  4.4982   151  4.96272  146  -1.2  100   -1.2  305   0     981.6    NA       0.0000   -SN      BR    9000  360  
2019/11/12  13:26:01  BASE  4.5276   145  4.96272  146  -1.2  100   -1.2  308   0     981.6    NA       0.0000   -SN      BR    9999  1640 
2019/11/12  13:27:01  BASE  4.68048  147  5.38608  146  -1.2  100   -1.2  309   0     981.5    NA       0.0000   -SN      BR    9000  0    
2019/11/12  13:28:01  BASE  5.08032  151  5.65656  152  -1.2  100   -1.2  309   0     981.4    NA       0.0000   -SN      BR    9000  0    
2019/11/12  13:29:01  BASE  5.4684   155  6.50328  159  -1.2  100   -1.2  305   0     981.4    NA       0.0000   -SN      BR    9999  0    
2019/11/12  13:30:01  BASE  5.38608  153  6.50328  159  -1.3  100   -1.3  298   0     981.4    NA       0.0000   -SN      BR    9999  3250 
2019/11/12  13:31:01  BASE  4.96272  147  6.50328  159  -1.3  100   -1.3  291   0     981.5    NA       0.0000   -SN      BR    9999  980  
2019/11/12  13:32:01  BASE  4.75692  147  6.50328  159  -1.3  100   -1.3  285   0     981.4    NA       0.0000   -SN      9999  950   2990 
2019/11/12  13:33:01  BASE  5.6154   154  7.07952  153  -1.3  100   -1.3  279   0     981.3    NA       0.0000   -SN      9999  3840  0    
2019/11/12  13:34:01  BASE  6.16224  159  7.07952  153  -1.3  100   -1.3  275   0     981.3    NA       0.0000   -SN      9999  3120  0    
2019/11/12  13:35:01  BASE  5.86236  156  7.07952  153  -1.3  100   -1.3  272   0     981.3    NA       0.0000   -SN      9999  3840  0    
2019/11/12  13:36:01  BASE  6.174    148  7.07952  153  -1.4  100   -1.4  268   0     981.3    NA       0.0000   -SN      9999  3810  0    
2019/11/12  13:37:01  BASE  5.7918   148  7.07952  153  -1.4  100   -1.4  266   0     981.3    NA       0.0000   -SN      9999  3710  0    
2019/11/12  13:38:01  BASE  4.99212  150  7.07952  153  -1.4  100   -1.4  266   0     981.3    NA       0.0000   -SN      9999  2920  0    
2019/11/12  13:39:01  BASE  4.7334   147  7.07952  153  -1.4  100   -1.4  267   0     981.4    NA       0.0000   -SN      9999  3510  0    
2019/11/12  13:40:01  BASE  4.41588  147  7.07952  153  -1.4  100   -1.4  269   0     981.4    NA       0.0000   -SN      9999  0     0    
2019/11/12  13:41:01  BASE  4.08072  150  7.07952  153  -1.5  100   -1.5  272   0     981.4    NA       0.0000   -SN      9999  0     0    
2019/11/12  13:42:01  BASE  3.91608  145  7.07952  153  -1.5  100   -1.5  276   0     981.3    NA       0.0000   -SN      9999  0     0    
2019/11/12  13:43:01  BASE  4.0278   140  6.68556  150  -1.5  100   -1.5  283   0     981.2    NA       0.0000   -SN      9999  460   0    
2019/11/12  13:44:01  BASE  4.12188  141  6.68556  150  -1.5  100   -1.5  291   0     981.2    NA       0.0000   -SN      9999  720   0    
2019/11/12  13:45:01  BASE  3.6162   140  6.59148  147  -1.4  100   -1.4  301   0     981.2    NA       0.0000   -SN      9999  0     0    
2019/11/12  13:46:01  BASE  3.33984  151  5.83884  147  -1.4  100   -1.4  311   0     981.2    NA       0.0000   -SN      9999  0     0    
2019/11/12  13:47:01  BASE  3.87492  159  5.10972  140  -1.4  100   -1.4  320   0     981.1    NA       0.0000   -SN      8000  0     0    
2019/11/12  13:48:01  BASE  4.37472  152  5.10972  140  -1.4  100   -1.4  326   0     981.1    NA       0.0000   -SN      9999  0     0    
2019/11/12  13:49:01  BASE  4.7922   142  6.13872  131  -1.4  100   -1.4  328   0     981.0    NA       0.0000   -SN      9999  0     0    
2019/11/12  13:50:01  BASE  5.5272   136  6.2034   133  -1.3  100   -1.3  327   0     981.0    NA       0.0000   -SN      9999  0     0    
2019/11/12  13:51:01  BASE  5.6742   138  6.2034   133  -1.3  100   -1.3  324   0     981.0    NA       0.0000   -SN      9999  0     0    
2019/11/12  13:52:01  BASE  5.79768  143  6.92664  141  -1.3  100   -1.3  321   0     980.8    NA       0.0000   -SN      9999  0     0    
2019/11/12  13:53:01  BASE  6.16812  143  6.92664  141  -1.3  100   -1.3  319   0     980.8    NA       0.0000   -SN      9999  0     0    
2019/11/12  13:54:01  BASE  6.52092  139  7.92624  137  -1.3  100   -1.3  317   0     980.8    NA       0.0000   -SN      9999  0     0    
2019/11/12  13:55:01  BASE  6.42096  143  7.92624  137  -1.3  100   -1.3  316   0     980.8    NA       0.0000   -SN      9999  2330  0    
2019/11/12  13:56:01  BASE  5.50368  154  7.92624  137  -1.3  100   -1.3  319   0     980.8    NA       0.0000   -SN      9999  1570  0    
2019/11/12  13:57:01  BASE  4.29828  151  7.92624  137  -1.3  100   -1.3  322   0     980.9    NA       0.0000   -SN      6000  1380  2100 
2019/11/12  13:58:01  BASE  3.12228  131  7.92624  137  -1.3  100   -1.3  324   0     980.9    NA       0.0000   -SN      7000  1280  2100 
2019/11/12  13:59:01  BASE  3.5574   120  7.92624  137  -1.3  100   -1.3  328   0     980.8    NA       0.0000   -SN      8000  2100  0    
2019/11/12  14:00:01  BASE  4.77456  125  7.92624  137  -1.3  100   -1.3  332   0     980.8    NA       0.0000   -SN      BR    6000  1050 
2019/11/12  14:01:01  BASE  5.12148  130  7.92624  137  -1.2  100   -1.2  336   0     980.7    NA       0.0000   -SN      BR    5000  2030 
2019/11/12  14:02:01  BASE  4.98624  135  7.92624  137  -1.2  100   -1.2  338   0     980.7    NA       0.0000   -SN      BR    8000  2000 
2019/11/12  14:03:01  BASE  4.88628  135  7.92624  137  -1.2  100   -1.2  339   0     980.7    NA       0.0000   -SN      BR    5000  2170 
2019/11/12  14:04:01  BASE  4.98036  128  6.56208  160  -1.2  100   -1.2  343   0     980.6    NA       0.0000   -SN      BR    9000  1180 
2019/11/12  14:05:01  BASE  4.84512  130  6.56208  160  -1.2  100   -1.2  347   0     980.6    NA       0.0000   -SN      BR    9999  2530 
2019/11/12  14:06:01  BASE  4.85688  132  5.99172  126  -1.2  100   -1.2  349   0     980.5    NA       0.0000   -SN      BR    9999  2850 
2019/11/12  14:07:01  BASE  5.2626   125  5.99172  126  -1.2  100   -1.2  349   0     980.5    NA       0.0000   -SN      BR    9999  2890 
2019/11/12  14:08:01  BASE  5.48016  123  5.99172  126  -1.2  100   -1.2  348   0     980.4    NA       0.0000   -SN      BR    9999  2720 
2019/11/12  14:09:00  BASE  5.42724  121  6.02112  122  -1.3  100   -1.3  347   0     980.4    NA       0.0000   -SN      BR    9999  2560 
2019/11/12  14:10:01  BASE  5.66832  126  6.44448  129  -1.3  100   -1.3  348   0     980.4    NA       0.0000   -SN      BR    9999  2620 
2019/11/12  14:11:00  BASE  5.68008  134  6.44448  129  -1.3  100   -1.3  348   0     980.4    NA       0.0000   -SN      9999  2620  0    
2019/11/12  14:12:00  BASE  4.65108  133  6.44448  129  -1.3  100   -1.3  346   0     980.4    NA       0.0000   -SN      9999  3640  0    
2019/11/12  14:13:00  BASE  3.21636  99   6.44448  129  -1.2  100   -1.2  343   0     980.4    NA       0.0000   -SN      9999  2790  0    
2019/11/12  14:14:01  BASE  3.45156  19   6.62676  23   -0.9  100   -0.9  343   0     980.3    NA       0.0000   -SN      9999  2820  0    
2019/11/12  14:15:00  BASE  3.234    323  6.62676  23   -0.7  100   -0.7  342   0     980.3    NA       0.0000   9999     2950  0     0    
2019/11/12  14:16:00  BASE  1.86396  309  6.62676  23   -0.4  100   -0.4  343   0     980.3    NA       0.0000   9999     2620  0     0    
2019/11/12  14:17:00  BASE  3.18108  347  6.62676  23   -0.2  100   -0.2  344   0     980.2    NA       0.0000   9999     2590  0     0    
2019/11/12  14:18:00  BASE  4.75104  346  6.62676  23   -0.0  100   -0.0  344   0     980.1    NA       0.0000   9999     2590  0     0    
2019/11/12  14:19:01  BASE  4.34532  332  6.62676  23   -0.0  100   -0.0  344   0     980.1    NA       0.0000   9999     2620  3120  0    
2019/11/12  14:20:01  BASE  4.60404  339  6.62676  14   -0.0  100   -0.0  345   0     980.1    NA       0.0000   9999     2560  0     0    
2019/11/12  14:21:00  BASE  5.66832  352  7.19712  5    -0.0  100   -0.0  346   0     980.1    NA       0.0000   9999     2560  0     0    
2019/11/12  14:22:00  BASE  6.35628  13   7.19712  26   0.2   100   0.2   347   0     980.1    NA       0.0000   9999     2660  0     0    
2019/11/12  14:23:00  BASE  7.27356  28   9.67848  28   0.4   100   0.4   347   0     980.1    NA       0.0000   9999     2690  22840 0    
2019/11/12  14:24:00  BASE  8.07324  29   9.67848  28   0.7   100   0.7   347   0     980.0    NA       0.0000   9999     2720  0     0    
2019/11/12  14:25:00  BASE  8.085    31   9.67848  28   1.0   100   1.0   347   0     980.0    NA       0.0000   9999     2690  0     0    
2019/11/12  14:26:00  BASE  7.60284  31   9.67848  28   1.4   100   1.4   348   0     979.9    NA       0.0000   9999     2790  0     0    
2019/11/12  14:27:00  BASE  7.79688  29   10.1665  24   1.6   100   1.6   349   0     979.9    NA       0.0000   9999     2920  0     0    
2019/11/12  14:28:00  BASE  8.1732   29   10.1665  24   1.7   100   1.7   351   0     979.9    NA       0.0000   9999     2920  0     0    
2019/11/12  14:29:00  BASE  8.36724  30   10.1665  24   1.8   100   1.8   351   0     979.9    NA       0.0000   9999     3120  0     0    
2019/11/12  14:30:00  BASE  8.50836  30   10.1665  24   1.9   100   1.8   351   0     979.8    NA       0.0000   9999     3150  0     0    
2019/11/12  14:31:00  BASE  8.30256  30   10.1665  24   1.9   99    1.8   349   0     979.8    NA       0.0000   9999     3180  0     0    
2019/11/12  14:32:01  BASE  8.94936  31   11.1014  34   2.0   98    1.6   346   0     979.8    NA       0.0000   9999     3220  0     0    
2019/11/12  14:33:01  BASE  8.7612   30   11.1014  34   2.0   96    1.5   343   0     979.8    NA       0.0000   9999     3180  0     0    
2019/11/12  14:34:01  BASE  8.21436  29   11.1014  34   2.0   95    1.3   340   0     979.8    NA       0.0000   9999     3220  0     0    
2019/11/12  14:35:01  BASE  8.54952  28   11.1014  34   2.1   93    1.1   337   0     979.8    NA       0.0000   9999     3250  0     0    
2019/11/12  14:36:01  BASE  8.72004  28   11.1014  34   2.1   92    1.0   334   0     979.8    NA       0.0000   9999     3150  0     0    
2019/11/12  14:37:01  BASE  8.73768  26   11.1014  34   2.1   92    0.9   331   0     979.8    NA       0.0000   9999     3220  20670 0    
2019/11/12  14:38:01  BASE  8.47896  26   11.1014  34   2.2   91    0.8   329   0     979.8    NA       0.0000   9999     3180  0     0    
2019/11/12  14:39:01  BASE  8.41428  25   11.1014  34   2.2   91    0.8   327   0     979.8    NA       0.0000   9999     3150  0     0    
2019/11/12  14:40:01  BASE  8.33196  24   11.1014  34   2.2   90    0.8   324   0     979.8    NA       0.0000   9999     3180  0     0    
2019/11/12  14:41:01  BASE  7.938    24   11.1014  34   2.2   90    0.8   322   0     979.8    NA       0.0000   9999     3080  0     0    
2019/11/12  14:42:01  BASE  7.38528  26   10.3782  29   2.2   90    0.7   322   0     979.8    NA       0.0000   9999     3020  0     0    
2019/11/12  14:43:01  BASE  7.27356  26   10.3782  29   2.2   90    0.7   323   0     979.8    NA       0.0000   9999     2990  24440 0    
2019/11/12  14:44:01  BASE  6.96192  25   10.3782  29   2.2   90    0.7   327   0     979.8    NA       0.0000   9999     3020  0     0    
2019/11/12  14:45:01  BASE  6.0564   25   9.408    26   2.2   90    0.7   331   0     979.8    NA       0.0000   9999     2890  0     0    
2019/11/12  14:46:01  BASE  6.40332  23   9.3786   25   2.2   90    0.7   337   0     979.8    NA       0.0000   9999     2950  0     0    
2019/11/12  14:47:01  BASE  6.28572  20   9.25512  31   2.1   90    0.7   341   0     979.8    NA       0.0000   9999     3050  0     0    
2019/11/12  14:48:01  BASE  5.88588  21   9.22572  16   2.1   90    0.7   345   0     979.8    NA       0.0000   9999     3120  0     0    
2019/11/12  14:49:01  BASE  6.10344  19   9.22572  16   2.1   90    0.6   348   0     979.7    NA       0.0000   9999     3250  0     0    
2019/11/12  14:50:01  BASE  6.45624  14   9.22572  16   2.1   90    0.7   352   0     979.7    NA       0.0000   9999     3250  0     0    
2019/11/12  14:51:01  BASE  7.12656  11   9.22572  16   2.1   90    0.7   356   0     979.7    NA       0.0000   9999     3280  0     0    
2019/11/12  14:52:01  BASE  6.86784  11   9.22572  16   2.1   90    0.7   362   0     979.6    NA       0.0000   9999     3280  0     0    
2019/11/12  14:53:01  BASE  6.63264  11   9.16692  16   2.1   90    0.7   367   0     979.6    NA       0.0000   9999     3870  0     0    
2019/11/12  14:54:01  BASE  6.59736  15   9.16692  16   2.1   90    0.7   372   0     979.6    NA       0.0000   9999     3940  0     0    
2019/11/12  14:55:01  BASE  6.13284  20   9.16692  16   2.1   90    0.7   375   0     979.6    NA       0.0000   9999     3810  0     0    
2019/11/12  14:56:01  BASE  6.1152   15   9.16692  16   2.1   90    0.7   376   0     979.5    NA       0.0000   9999     4130  0     0    
2019/11/12  14:57:01  BASE  5.90352  18   9.16692  16   2.1   91    0.7   376   0     979.5    NA       0.0000   9999     4330  0     0    
2019/11/12  14:58:01  BASE  6.52092  25   9.70788  22   2.1   91    0.7   376   0     979.4    NA       0.0000   9999     4430  0     0    
2019/11/12  14:59:01  BASE  8.43192  26   9.80196  25   2.0   91    0.7   377   0     979.3    NA       0.0000   9999     4400  22250 0    
2019/11/12  15:00:01  BASE  9.3198   25   10.8604  25   2.0   91    0.7   379   0     979.2    NA       0.0000   9999     0     0     0    
2019/11/12  15:01:01  BASE  8.9082   23   10.8604  25   2.0   91    0.7   384   0     979.2    NA       0.0000   9999     4040  0     0    
2019/11/12  15:02:01  BASE  8.89056  23   10.8604  25   2.0   91    0.7   391   0     979.2    NA       0.0000   9999     3870  0     0    
2019/11/12  15:03:01  BASE  9.40212  24   10.8604  25   1.9   91    0.7   398   0     979.1    NA       0.0000   9999     3770  0     0    
2019/11/12  15:04:01  BASE  9.41976  25   10.8604  25   1.9   92    0.7   404   0     979.1    NA       0.0000   9999     3740  0     0    
2019/11/12  15:05:01  BASE  8.89644  29   10.8604  25   1.9   92    0.7   408   0     979.1    NA       0.0000   9999     0     0     0    
2019/11/12  15:06:01  BASE  7.87332  32   10.8604  25   1.9   92    0.8   414   0     979.1    NA       0.0000   9999     0     0     0    
2019/11/12  15:07:01  BASE  7.62048  30   10.8604  25   1.9   92    0.7   422   0     979.0    NA       0.0000   9999     0     0     0    
2019/11/12  15:08:01  BASE  8.3496   30   10.8604  25   1.9   92    0.7   433   0     979.0    NA       0.0000   UP       9999  0     0    
2019/11/12  15:09:01  BASE  8.77296  34   10.8604  25   1.9   91    0.7   445   0     978.9    NA       0.0000   UP       9000  0     0    
2019/11/12  15:10:01  BASE  8.38488  37   10.8604  35   1.9   91    0.6   452   0     978.9    NA       0.0000   UP       9000  0     0    
2019/11/12  15:11:01  BASE  7.83216  39   10.8604  35   1.9   91    0.6   454   0     978.9    NA       0.0000   UP       9999  0     0    
2019/11/12  15:12:01  BASE  6.84432  44   10.8604  35   1.9   91    0.6   452   0     978.9    NA       0.0000   UP       9999  8100  0    
2019/11/12  15:13:01  BASE  5.88588  50   10.8604  35   2.0   91    0.7   447   0     978.9    NA       0.0000   UP       9999  5810  0    
2019/11/12  15:14:01  BASE  5.95056  61   10.8604  35   2.0   91    0.7   442   0     978.9    NA       0.0000   UP       9999  6230  0    
2019/11/12  15:15:01  BASE  6.52092  68   10.8604  35   2.0   92    0.8   437   0     978.9    NA       0.0000   UP       9999  6230  7090 
2019/11/12  15:16:01  BASE  6.9678   85   10.8604  35   2.0   91    0.7   432   0     978.8    NA       0.0000   UP       9999  6140  7220 
2019/11/12  15:17:00  BASE  7.03836  105  10.8604  35   1.7   91    0.4   429   0     978.7    NA       0.0000   UP       9999  6140  7380 
2019/11/12  15:18:01  BASE  7.69692  116  10.8604  35   1.4   91    0.0   426   0     978.6    NA       0.0000   UP       9999  6560  0    
2019/11/12  15:19:00  BASE  8.24964  123  10.8604  35   1.0   91    -0.3  424   0     978.6    NA       0.0000   UP       9999  6200  0    
2019/11/12  15:20:01  BASE  7.60872  120  9.22572  127  0.6   91    -0.7  421   0     978.6    NA       0.0000   UP       9999  6270  0    
2019/11/12  15:21:00  BASE  7.16772  122  9.22572  127  0.3   92    -0.8  417   0     978.5    NA       0.0000   UP       9999  6890  0    
2019/11/12  15:22:00  BASE  7.07952  124  9.22572  127  0.2   93    -0.8  413   0     978.5    NA       0.0000   9999     4130  6070  0    
2019/11/12  15:23:00  BASE  6.42684  119  9.22572  127  0.1   95    -0.6  409   0     978.5    NA       0.0000   9999     4130  0     0    
2019/11/12  15:24:01  BASE  5.3802   119  9.22572  127  0.1   96    -0.4  408   0     978.5    NA       0.0000   9999     4130  17950 21260
2019/11/12  15:25:00  BASE  5.29788  123  9.22572  127  0.1   97    -0.3  408   0     978.4    NA       0.0000   9999     4360  0     0    
2019/11/12  15:26:01  BASE  6.47976  125  9.22572  127  0.1   98    -0.2  408   0     978.3    NA       0.0000   9999     4270  0     0    
2019/11/12  15:27:00  BASE  7.22652  122  9.22572  127  0.1   98    -0.1  406   0     978.3    NA       0.0000   9999     4230  0     0    
2019/11/12  15:28:00  BASE  7.57932  122  9.22572  127  0.1   99    -0.1  404   0     978.2    NA       0.0000   9999     4270  0     0    
2019/11/12  15:29:00  BASE  7.9674   124  9.80196  124  0.0   99    -0.1  401   0     978.2    NA       0.0000   9999     4230  0     0    
2019/11/12  15:30:00  BASE  8.03208  123  9.80196  124  -0.0  100   -0.1  398   0     978.2    NA       0.0000   9999     4230  0     0    
2019/11/12  15:31:01  BASE  7.92624  124  9.80196  124  -0.0  100   -0.1  395   0     978.2    NA       0.0000   9999     4200  0     0    
2019/11/12  15:32:00  BASE  7.44408  129  9.80196  124  -0.1  100   -0.1  391   0     978.1    NA       0.0000   9999     4000  0     0    
2019/11/12  15:33:00  BASE  7.29708  129  9.80196  124  -0.1  100   -0.1  389   0     978.1    NA       0.0000   9999     4000  0     0    
2019/11/12  15:34:00  BASE  7.83216  129  9.80196  124  -0.1  100   -0.1  387   0     978.0    NA       0.0000   9999     3970  0     0    
2019/11/12  15:35:00  BASE  8.0556   134  9.80196  124  -0.1  100   -0.1  384   0     977.9    NA       0.0000   9999     3840  0     0    
2019/11/12  15:36:00  BASE  7.10892  134  9.80196  124  -0.1  100   -0.1  382   0     978.1    NA       0.0000   9999     3900  0     0    
2019/11/12  15:37:00  BASE  5.733    129  9.80196  124  -0.1  100   -0.1  379   0     978.1    NA       0.0000   9999     3900  0     0    
2019/11/12  15:38:01  BASE  5.48604  122  9.80196  124  -0.1  100   -0.1  374   0     978.1    NA       0.0000   9999     3940  0     0    
2019/11/12  15:39:00  BASE  5.96232  125  9.25512  130  -0.1  100   -0.1  370   0     978.1    NA       0.0000   9999     3900  0     0    
2019/11/12  15:40:01  BASE  6.4974   128  9.25512  130  -0.0  100   -0.0  367   0     978.0    NA       0.0000   9999     3580  4000  0    
2019/11/12  15:41:01  BASE  6.82668  124  9.25512  130  0.0   100   0.0   365   0     978.0    NA       0.0000   9999     3610  0     0    
2019/11/12  15:42:01  BASE  6.9972   128  9.25512  130  0.1   100   0.1   365   0     977.9    NA       0.0000   9999     3710  0     0    
2019/11/12  15:43:01  BASE  6.60912  129  9.25512  130  0.2   100   0.2   367   0     977.9    NA       0.0000   9999     3740  16470 0    
2019/11/12  15:44:01  BASE  6.57972  126  9.25512  130  0.2   100   0.2   370   0     977.9    NA       0.0000   9999     3770  21360 0    
2019/11/12  15:45:01  BASE  7.02072  127  7.62048  122  0.3   100   0.3   374   0     977.9    NA       0.0000   9999     3900  0     0    
2019/11/12  15:46:01  BASE  6.99132  130  7.62048  122  0.3   100   0.3   376   0     977.9    NA       0.0000   9999     3970  0     0    
2019/11/12  15:47:01  BASE  6.45624  125  7.62048  122  0.3   100   0.2   377   0     978.0    NA       0.0000   9999     3970  0     0    
2019/11/12  15:48:01  BASE  5.19792  117  7.62048  122  0.2   100   0.2   377   0     978.1    NA       0.0000   9999     3900  0     0    
2019/11/12  15:49:01  BASE  4.81572  116  7.62048  122  0.2   100   0.2   379   0     978.0    NA       0.0000   9999     3840  0     0    
2019/11/12  15:50:01  BASE  5.48016  121  7.62048  122  0.2   100   0.2   382   0     977.9    NA       0.0000   9999     3810  0     0    
2019/11/12  15:51:01  BASE  6.20928  122  7.62048  122  0.3   100   0.3   384   0     977.9    NA       0.0000   9999     3640  0     0    
2019/11/12  15:52:01  BASE  6.75612  125  7.86744  132  0.4   100   0.4   385   0     977.8    NA       0.0000   9999     3870  0     0    
2019/11/12  15:53:01  BASE  6.5562   127  7.86744  132  0.6   100   0.6   387   0     977.8    NA       0.0000   9999     3310  0     0    
2019/11/12  15:54:01  BASE  6.24456  123  7.86744  132  0.7   100   0.7   391   0     977.8    NA       0.0000   9999     3310  0     0    
2019/11/12  15:55:01  BASE  6.48564  121  7.86744  132  0.8   99    0.7   395   0     977.8    NA       0.0000   9999     3280  0     0    
2019/11/12  15:56:01  BASE  6.65028  121  7.86744  132  0.9   99    0.7   396   0     977.7    NA       0.0000   9999     3350  0     0    
2019/11/12  15:57:01  BASE  6.53268  119  7.86744  132  0.9   98    0.6   394   0     977.7    NA       0.0000   9999     2950  0     0    
2019/11/12  15:58:01  BASE  6.39156  119  7.86744  132  0.8   97    0.4   392   0     977.7    NA       0.0000   9999     3120  0     0    
2019/11/12  15:59:01  BASE  6.7326   127  7.86744  132  0.8   97    0.3   389   0     977.6    NA       0.0000   9999     3310  0     0    
2019/11/12  16:00:01  BASE  7.69104  132  8.92584  128  0.7   96    0.1   385   0     977.5    NA       0.0000   9999     3280  0     0    
2019/11/12  16:01:01  BASE  7.92036  132  8.92584  128  0.6   96    0.0   381   0     977.6    NA       0.0000   9999     3450  0     0    
2019/11/12  16:02:01  BASE  7.29708  131  8.92584  128  0.5   96    -0.1  377   0     977.5    NA       0.0000   9999     3670  0     0    
2019/11/12  16:03:01  BASE  7.43232  136  8.92584  128  0.3   96    -0.2  373   0     977.4    NA       0.0000   9999     3640  0     0    
2019/11/12  16:04:01  BASE  7.62048  144  8.92584  128  0.2   96    -0.4  368   0     977.4    NA       0.0000   9999     3640  0     0    
2019/11/12  16:05:01  BASE  7.10892  147  8.92584  128  0.0   97    -0.4  364   0     977.5    NA       0.0000   9999     3710  21920 0    
2019/11/12  16:06:01  BASE  6.67968  149  8.92584  128  -0.1  98    -0.5  358   0     977.4    NA       0.0000   9999     3870  0     0    
2019/11/12  16:07:01  BASE  7.00308  147  8.92584  128  -0.2  98    -0.4  352   0     977.4    NA       0.0000   9999     3940  0     0    
2019/11/12  16:08:01  BASE  7.57344  146  8.92584  128  -0.2  99    -0.4  346   0     977.3    NA       0.0000   9999     3840  0     0    
2019/11/12  16:09:01  BASE  7.497    145  8.92584  128  -0.2  100   -0.2  340   0     977.3    NA       0.0000   9999     3940  0     0    
2019/11/12  16:10:01  BASE  6.9972   144  8.59068  131  -0.1  100   -0.1  333   0     977.4    NA       0.0000   9999     3900  0     0    
2019/11/12  16:11:00  BASE  6.10932  136  8.3202   149  0.0   100   0.0   326   0     977.4    NA       0.0000   9999     3900  0     0    
2019/11/12  16:12:01  BASE  5.3214   128  8.3202   149  0.1   100   0.1   320   0     977.4    NA       0.0000   9999     4130  0     0    
2019/11/12  16:13:01  BASE  5.41548  130  8.3202   149  0.1   100   0.1   316   0     977.4    NA       0.0000   9999     4200  0     0    
2019/11/12  16:14:01  BASE  5.9976   132  8.10852  146  0.1   100   0.1   312   0     977.4    NA       0.0000   9999     4360  0     0    
2019/11/12  16:15:01  BASE  5.85648  129  8.10852  146  0.1   100   0.1   310   0     977.4    NA       0.0000   9999     4230  0     0    
2019/11/12  16:16:01  BASE  5.29788  126  8.10852  146  0.1   100   0.1   308   0     977.4    NA       0.0000   9999     4360  0     0    
2019/11/12  16:17:01  BASE  5.53896  125  8.10852  146  0.1   100   0.1   306   0     977.3    NA       0.0000   9999     4230  0     0    
2019/11/12  16:18:01  BASE  5.9976   127  7.86744  144  0.2   100   0.2   304   0     977.3    NA       0.0000   9999     4040  0     0    
2019/11/12  16:19:01  BASE  5.89764  128  7.07952  147  0.2   100   0.2   302   0     977.3    NA       0.0000   9999     4000  0     0    
2019/11/12  16:20:00  BASE  5.60952  128  6.47388  132  0.2   100   0.2   300   0     977.3    NA       0.0000   9999     3670  0     0    
2019/11/12  16:21:01  BASE  5.42136  129  6.47388  132  0.3   100   0.3   298   0     977.3    NA       0.0000   9999     3900  0     0    
2019/11/12  16:22:00  BASE  5.09796  130  6.47388  132  0.4   100   0.4   296   0     977.3    NA       0.0000   9999     3810  0     0    
2019/11/12  16:23:00  BASE  4.4394   127  6.47388  132  0.4   100   0.4   295   0     977.3    NA       0.0000   9999     3770  0     0    
2019/11/12  16:24:01  BASE  4.0278   129  6.3504   125  0.4   100   0.4   296   0     977.3    NA       0.0000   9999     3810  0     0    
2019/11/12  16:25:00  BASE  4.28652  137  6.3504   125  0.4   100   0.4   297   0     977.2    NA       0.0000   9999     2330  0     0    
2019/11/12  16:26:01  BASE  4.66872  140  6.3504   125  0.4   100   0.4   298   0     977.2    NA       0.0000   9999     3870  0     0    
2019/11/12  16:27:01  BASE  4.69224  143  6.3504   125  0.3   100   0.3   297   0     977.2    NA       0.0000   9999     4040  0     0    
2019/11/12  16:28:00  BASE  4.53348  146  5.86824  126  0.2   100   0.2   294   0     977.2    NA       0.0000   9999     20540 0     0    
2019/11/12  16:29:00  BASE  4.50408  147  5.80944  124  0.2   100   0.2   288   0     977.2    NA       0.0000   9999     19330 20280 22380
2019/11/12  16:30:00  BASE  4.19244  146  5.56836  131  0.2   100   0.2   283   0     977.2    NA       0.0000   9999     0     0     0    
2019/11/12  16:31:00  BASE  3.63384  143  5.2038   132  0.2   100   0.2   278   0     977.2    NA       0.0000   9999     0     0     0    
2019/11/12  16:32:01  BASE  3.12228  149  5.08032  138  0.2   100   0.2   274   0     977.1    NA       0.0000   9999     0     0     0    
2019/11/12  16:33:00  BASE  2.77536  154  5.08032  138  0.2   100   0.2   271   0     977.1    NA       0.0000   9999     0     0     0    
2019/11/12  16:34:00  BASE  2.40492  147  5.08032  138  0.2   100   0.2   269   0     977.2    NA       0.0000   9999     0     0     0    
2019/11/12  16:35:00  BASE  1.86396  134  5.08032  138  0.3   100   0.3   268   0     977.2    NA       0.0000   9999     0     0     0    
2019/11/12  16:36:00  BASE  1.5582   128  4.99212  146  0.3   100   0.3   268   0     977.2    NA       0.0000   9999     0     0     0    
2019/11/12  16:37:00  BASE  1.66992  146  4.80984  146  0.3   100   0.3   268   0     977.2    NA       0.0000   9999     0     0     0    
2019/11/12  16:38:00  BASE  1.62288  168  4.78044  146  0.3   100   0.3   274   0     977.2    NA       0.0000   UP       9000  0     0    
2019/11/12  16:39:00  BASE  1.5288   171  4.47468  140  0.4   100   0.4   283   0     977.1    NA       0.0000   UP       6000  0     0    
2019/11/12  16:40:00  BASE  1.47588  161  3.75144  147  0.4   100   0.4   294   0     977.1    NA       0.0000   UP       BR    3300  0    
2019/11/12  16:41:00  BASE  1.5582   148  3.62796  148  0.4   100   0.4   303   0     977.1    NA       0.0000   -SN      BR    3900  0    
2019/11/12  16:42:00  BASE  2.01684  140  2.93412  154  0.4   100   0.4   310   0     977.0    NA       0.0000   -SN      BR    3900  0    
2019/11/12  16:43:00  BASE  2.34612  138  2.72244  134  0.4   100   0.4   314   0     977.0    NA       0.0000   -SN      BR    9999  0    
2019/11/12  16:44:00  BASE  2.39904  137  2.72244  134  0.4   100   0.4   314   0     977.0    NA       0.0000   -SN      BR    9999  0    
2019/11/12  16:45:00  BASE  2.3814   134  2.75184  123  0.4   100   0.4   317   0     977.0    NA       0.0000   -SN      BR    9999  0    
2019/11/12  16:46:00  BASE  2.39316  129  2.75184  123  0.4   100   0.4   319   0     977.0    NA       0.0000   -SN      BR    9999  0    
2019/11/12  16:47:00  BASE  2.29908  122  3.087    140  0.5   100   0.4   323   0     977.0    NA       0.0000   -SN      BR    9999  0    
2019/11/12  16:48:01  BASE  2.35788  125  3.087    140  0.5   100   0.5   329   0     976.9    NA       0.0000   -SN      BR    9999  0    
2019/11/12  16:49:00  BASE  2.4696   132  4.50996  122  0.6   99    0.5   338   0     976.9    NA       0.0000   -SN      BR    8000  0    
2019/11/12  16:50:01  BASE  2.72244  122  4.50996  122  0.7   99    0.5   348   0     976.8    NA       0.0000   -SN      BR    7000  0    
2019/11/12  16:51:01  BASE  2.51664  126  4.50996  122  0.8   98    0.5   356   0     976.8    NA       0.0000   -SN      BR    6000  0    
2019/11/12  16:52:01  BASE  1.8522   136  4.50996  122  0.8   98    0.5   364   0     976.7    NA       0.0000   -SN      BR    5000  0    
2019/11/12  16:53:01  BASE  1.96392  139  4.50996  122  0.8   97    0.4   369   0     976.7    NA       0.0000   -SN      BR    5000  0    
2019/11/12  16:54:01  BASE  2.29908  147  4.50996  122  0.8   97    0.4   373   0     976.7    NA       0.0000   -SN      BR    9000  0    
2019/11/12  16:55:01  BASE  2.19324  153  4.50996  122  0.8   96    0.3   377   0     976.7    NA       0.0000   -SN      BR    8000  0    
2019/11/12  16:56:01  BASE  2.07564  157  4.50996  122  0.8   96    0.2   381   0     976.7    NA       0.0000   -SN      BR    9999  4460 
2019/11/12  16:57:01  BASE  1.83456  160  4.50996  122  0.7   96    0.2   385   0     976.7    NA       0.0000   -SN      BR    9999  20410
2019/11/12  16:58:01  BASE  1.58172  156  4.50996  122  0.7   96    0.1   388   0     976.7    NA       0.0000   -SN      BR    9999  4720 
2019/11/12  16:59:01  BASE  1.7052   165  3.41628  126  0.7   96    0.1   390   0     976.6    NA       0.0000   -SN      BR    9999  5120 
2019/11/12  17:00:01  BASE  1.54644  181  2.75184  133  0.7   96    0.1   391   0     976.6    NA       0.0000   -SN      BR    9999  4660 
2019/11/12  17:01:01  BASE  1.22892  180  2.59896  159  0.6   96    0.1   392   0     976.6    NA       0.0000   -SN      BR    9999  4720 
2019/11/12  17:02:01  BASE  1.37004  183  2.59896  159  0.6   96    0.1   392   0     976.5    NA       0.0000   -SN      9999  4760  0    
2019/11/12  17:03:01  BASE  1.48176  191  2.59896  159  0.6   96    0.0   393   0     976.5    NA       0.0000   -SN      9999  4820  0    
2019/11/12  17:04:01  BASE  1.39356  193  2.32848  166  0.6   96    -0.0  395   0     976.5    NA       0.0000   -SN      9999  4790  0    
2019/11/12  17:05:01  BASE  1.4112   190  2.32848  166  0.5   96    -0.0  397   0     976.4    NA       0.0000   -SN      9999  4760  0    
2019/11/12  17:06:01  BASE  1.81104  190  2.48136  201  0.5   96    0.0   399   0     976.4    NA       0.0000   9999     4790  0     0    
2019/11/12  17:07:01  BASE  2.1756   192  2.48136  201  0.5   97    0.0   400   0     976.4    NA       0.0000   9999     4690  0     0    
2019/11/12  17:08:01  BASE  2.12856  191  2.48136  201  0.5   97    0.1   401   0     976.4    NA       0.0000   9999     4590  0     0    
2019/11/12  17:09:01  BASE  2.1462   192  2.48136  201  0.5   97    0.1   405   0     976.3    NA       0.0000   9999     4490  0     0    
2019/11/12  17:10:01  BASE  2.03448  190  2.48136  201  0.5   98    0.1   410   0     976.2    NA       0.0000   9999     4630  0     0    
2019/11/12  17:11:01  BASE  1.78752  188  2.48136  201  0.4   98    0.1   416   0     976.2    NA       0.0000   9999     4630  0     0    
2019/11/12  17:12:01  BASE  1.80516  194  2.48136  201  0.4   98    0.2   421   0     976.2    NA       0.0000   9999     4590  0     0    
2019/11/12  17:13:01  BASE  1.95216  199  2.48136  201  0.4   98    0.2   425   0     976.2    NA       0.0000   9999     4630  0     0    
2019/11/12  17:14:01  BASE  1.95804  200  2.48136  201  0.4   99    0.2   428   0     976.2    NA       0.0000   9999     4660  0     0    
2019/11/12  17:15:01  BASE  1.76988  208  2.48136  201  0.5   99    0.3   430   0     976.2    NA       0.0000   9999     4300  0     0    
2019/11/12  17:16:01  BASE  1.5876   219  2.32848  188  0.5   99    0.3   433   0     976.2    NA       0.0000   9999     4130  0     0    
2019/11/12  17:17:00  BASE  1.7934   219  2.32848  188  0.5   99    0.3   437   0     976.2    NA       0.0000   9999     3840  0     0    
2019/11/12  17:18:01  BASE  2.55192  216  3.48096  213  0.5   99    0.3   442   0     976.1    NA       0.0000   9999     3740  4530  0    
2019/11/12  17:19:01  BASE  3.22224  214  3.56916  209  0.5   99    0.4   447   0     976.0    NA       0.0000   9999     4000  0     0    
2019/11/12  17:20:01  BASE  3.53388  207  4.1454   203  0.5   99    0.4   453   0     976.0    NA       0.0000   9999     3770  0     0    
2019/11/12  17:21:01  BASE  4.01016  199  4.56876  197  0.6   99    0.4   458   0     975.9    NA       0.0000   9999     4200  21850 0    
2019/11/12  17:22:01  BASE  4.68048  196  5.35668  194  0.7   99    0.5   461   0     975.8    NA       0.0000   9999     4430  0     0    
2019/11/12  17:23:01  BASE  5.30376  197  5.99172  195  0.7   99    0.6   463   0     975.7    NA       0.0000   9999     4430  0     0    
2019/11/12  17:24:01  BASE  5.73888  197  6.05052  197  0.8   98    0.6   461   0     975.6    NA       0.0000   9999     4460  0     0    
2019/11/12  17:25:01  BASE  5.7918   196  6.2622   194  0.9   98    0.6   456   0     975.6    NA       0.0000   9999     4430  0     0    
2019/11/12  17:26:01  BASE  5.69184  199  6.2622   194  1.0   97    0.6   450   0     975.6    NA       0.0000   9999     4490  0     0    
2019/11/12  17:27:01  BASE  5.39196  199  6.2622   194  1.0   97    0.5   447   0     975.6    NA       0.0000   9999     4460  0     0    
2019/11/12  17:28:01  BASE  4.9686   197  6.2622   194  1.1   96    0.5   445   0     975.6    NA       0.0000   9999     4590  0     0    
2019/11/12  17:29:00  BASE  4.72752  194  6.2622   194  1.1   95    0.4   444   0     975.6    NA       0.0000   9999     4660  0     0    
2019/11/12  17:30:00  BASE  4.6158   186  6.2622   194  1.1   94    0.2   447   0     975.7    NA       0.0000   9999     4630  0     0    
2019/11/12  17:31:00  BASE  4.48644  183  6.2622   194  1.1   93    0.1   449   0     975.8    NA       0.0000   9999     4720  0     0    
2019/11/12  17:32:01  BASE  4.25712  180  6.2622   194  1.0   93    -0.1  453   0     975.9    NA       0.0000   9999     4400  0     0    
2019/11/12  17:33:00  BASE  4.33944  173  6.2622   194  0.9   93    -0.1  456   0     975.8    NA       0.0000   9999     4590  0     0    
2019/11/12  17:34:01  BASE  4.71576  168  6.2622   194  0.8   93    -0.2  453   0     975.7    NA       0.0000   9999     4630  0     0    
2019/11/12  17:35:00  BASE  4.62756  162  6.10932  197  0.7   94    -0.2  450   0     975.7    NA       0.0000   9999     4760  0     0    
2019/11/12  17:36:01  BASE  4.263    158  5.71536  194  0.7   94    -0.1  447   0     975.8    NA       0.0000   9999     2460  3150  4790 
2019/11/12  17:37:00  BASE  4.1748   162  5.2626   166  0.7   95    -0.0  446   0     975.6    NA       0.0000   9999     2400  3080  3640 
2019/11/12  17:38:00  BASE  4.0278   171  5.2626   166  0.7   95    0.0   443   0     975.6    NA       0.0000   9999     2260  3050  3480 
2019/11/12  17:39:00  BASE  3.51036  179  5.2626   166  0.7   96    0.1   441   0     975.6    NA       0.0000   9999     2170  3020  0    
2019/11/12  17:40:00  BASE  2.90472  182  5.2626   166  0.7   96    0.1   438   0     975.6    NA       0.0000   9999     2360  0     0    
2019/11/12  17:41:01  BASE  2.54604  181  5.2626   166  0.6   96    0.1   435   0     975.6    NA       0.0000   9999     2400  0     0    
2019/11/12  17:42:01  BASE  2.31084  176  5.2626   166  0.6   96    0.1   433   0     975.6    NA       0.0000   9999     2170  2950  0    
2019/11/12  17:43:00  BASE  1.54056  163  5.2626   166  0.6   96    0.1   430   0     975.7    NA       0.0000   9999     2030  0     0    
2019/11/12  17:44:01  BASE  0.97608  140  4.75104  163  0.6   97    0.1   431   0     975.8    NA       0.0000   9999     2070  0     0    
2019/11/12  17:45:00  BASE  1.2054   147  4.62756  159  0.6   97    0.2   430   0     975.7    NA       0.0000   9999     3050  4430  22380
2019/11/12  17:46:01  BASE  1.17012  183  4.41588  160  0.6   98    0.3   427   0     975.6    NA       0.0000   9999     3050  4430  0    
2019/11/12  17:47:00  BASE  0.4704   207  4.35708  179  0.6   98    0.3   423   0     975.6    NA       0.0000   9999     4430  0     0    
2019/11/12  17:48:00  BASE  0        159  3.38688  178  0.6   98    0.3   421   0     975.6    NA       0.0000   9999     4430  0     0    
2019/11/12  17:49:00  BASE  0.21756  93   2.96352  181  0.6   97    0.3   420   0     975.6    NA       0.0000   9999     2560  4490  0    
2019/11/12  17:50:00  BASE  0.21756  86   2.81064  177  0.7   97    0.3   419   0     975.6    NA       0.0000   9999     4490  0     0    
2019/11/12  17:51:00  BASE  0        174  2.48136  180  0.7   97    0.2   420   0     975.6    NA       0.0000   9999     4490  0     0    
2019/11/12  17:52:00  BASE  0.49392  189  1.81692  147  0.8   97    0.3   421   0     975.6    NA       0.0000   9999     4460  0     0    
2019/11/12  17:53:00  BASE  1.40532  202  2.1462   211  0.8   96    0.3   420   0     975.5    NA       0.0000   9999     4590  0     0    
2019/11/12  17:54:00  BASE  2.01684  207  2.48136  200  0.8   96    0.2   419   0     975.4    NA       0.0000   9999     4530  22900 0    
2019/11/12  17:55:00  BASE  2.16384  203  2.48136  200  0.8   95    0.1   420   0     975.4    NA       0.0000   9999     4530  0     0    
2019/11/12  17:56:01  BASE  1.911    201  2.48136  200  0.8   95    0.1   422   0     975.4    NA       0.0000   9999     4400  0     0    
2019/11/12  17:57:01  BASE  1.69932  193  2.48136  200  0.7   95    0.1   423   0     975.4    NA       0.0000   9999     4330  0     0    
2019/11/12  17:58:01  BASE  1.6464   187  2.48136  200  0.7   95    0.1   426   0     975.4    NA       0.0000   9999     4270  0     0    
2019/11/12  17:59:00  BASE  1.71696  193  2.48136  200  0.7   96    0.1   425   0     975.4    NA       0.0000   9999     4130  0     0    
2019/11/12  18:00:01  BASE  1.99332  183  2.48136  200  0.7   96    0.1   420   0     975.4    NA       0.0000   9999     4230  0     0    
2019/11/12  18:01:01  BASE  2.32848  162  2.87532  151  0.7   96    0.2   423   0     975.4    NA       0.0000   9999     4270  0     0    
2019/11/12  18:02:01  BASE  2.69304  157  3.1164   159  0.8   96    0.3   428   0     975.4    NA       0.0000   9999     4130  0     0    
2019/11/12  18:03:01  BASE  2.62836  162  3.1164   159  0.8   96    0.3   432   0     975.3    NA       0.0000   9999     4270  0     0    
2019/11/12  18:04:01  BASE  2.15208  160  3.1164   159  0.8   96    0.3   438   0     975.4    NA       0.0000   9999     4100  0     0    
2019/11/12  18:05:01  BASE  2.02272  151  3.1164   159  0.9   96    0.3   444   0     975.4    NA       0.0000   9999     4130  0     0    
2019/11/12  18:06:01  BASE  2.71068  155  3.81024  171  0.9   96    0.3   448   0     975.2    NA       0.0000   9999     4100  0     0    
2019/11/12  18:07:01  BASE  3.675    165  4.29828  166  0.9   95    0.2   449   0     975.2    NA       0.0000   9999     4000  0     0    
2019/11/12  18:08:01  BASE  4.03956  164  4.29828  166  0.9   95    0.2   445   0     975.1    NA       0.0000   9999     3900  20310 0    
2019/11/12  18:09:01  BASE  3.81612  166  4.29828  166  0.9   95    0.2   446   0     975.1    NA       0.0000   9999     4000  18800 0    
2019/11/12  18:10:01  BASE  3.53388  169  4.29828  166  0.8   96    0.2   446   0     975.1    NA       0.0000   9999     3870  0     0    
2019/11/12  18:11:01  BASE  3.56328  172  4.29828  166  0.8   96    0.2   444   0     975.1    NA       0.0000   9999     3710  0     0    
2019/11/12  18:12:01  BASE  3.60444  203  5.02152  315  0.8   96    0.2   439   0     975.0    NA       0.0000   9999     3740  0     0    
2019/11/12  18:13:00  BASE  3.65736  277  5.02152  315  0.7   96    0.2   431   0     974.9    NA       0.0000   9999     3740  0     0    
2019/11/12  18:14:01  BASE  3.22812  307  5.02152  315  0.8   97    0.3   429   0     974.9    NA       0.0000   9999     3740  0     0    
2019/11/12  18:15:01  BASE  3.77496  343  6.3504   19   1.0   97    0.6   421   0     974.9    NA       0.0000   9999     3540  21160 0    
2019/11/12  18:16:01  BASE  6.25044  5    9.77256  27   1.3   97    0.9   407   0     974.8    NA       0.0000   9999     3580  0     0    
2019/11/12  18:17:00  BASE  7.63224  12   9.77256  27   1.6   97    1.2   387   0     974.8    NA       0.0000   9999     3450  0     0    
2019/11/12  18:18:01  BASE  8.22612  12   10.3135  12   2.0   96    1.4   368   0     974.7    NA       0.0000   9999     3580  0     0    
2019/11/12  18:19:00  BASE  8.33196  22   10.3135  12   2.3   95    1.5   345   0     974.7    NA       0.0000   9999     3380  0     0    
2019/11/12  18:20:00  BASE  7.497    30   10.3135  12   2.4   93    1.5   327   0     974.6    NA       0.0000   9999     3310  0     0    
2019/11/12  18:21:01  BASE  8.30256  29   12.1598  18   2.5   92    1.3   316   0     974.3    NA       0.0000   9999     3180  0     0    
2019/11/12  18:22:00  BASE  9.47268  31   12.1598  18   2.6   90    1.1   309   0     974.4    NA       0.0000   9999     3250  0     0    
2019/11/12  18:23:00  BASE  10.3782  31   14.6412  35   2.6   89    0.9   305   0     974.3    NA       0.0000   9999     3080  0     0    
2019/11/12  18:24:01  BASE  12.1775  31   15.0646  30   2.6   87    0.7   302   0     974.2    NA       0.0000   9999     3050  0     0    
2019/11/12  18:25:00  BASE  12.3421  29   15.0646  30   2.6   86    0.6   303   0     974.2    NA       0.0000   9999     3150  0     0    
2019/11/12  18:26:00  BASE  11.1367  23   15.0646  30   2.7   85    0.4   308   0     974.2    NA       0.0000   9999     3150  0     0    
2019/11/12  18:27:00  BASE  10.8662  24   15.0646  30   2.6   85    0.3   315   0     974.2    NA       0.0000   9999     2950  0     0    
2019/11/12  18:28:01  BASE  11.1367  30   15.0646  30   2.6   84    0.2   317   0     974.2    NA       0.0000   9999     2950  3940  0    
2019/11/12  18:29:00  BASE  11.9129  31   15.0646  30   2.6   84    0.2   311   0     974.1    NA       0.0000   9999     2850  0     0    
2019/11/12  18:30:00  BASE  12.5714  29   15.0646  30   2.6   84    0.2   303   0     974.0    NA       0.0000   9999     2790  0     0    
2019/11/12  18:31:00  BASE  13.083   30   15.9113  33   2.6   83    0.1   297   0     974.0    NA       0.0000   9999     2720  0     0    
2019/11/12  18:32:00  BASE  12.689   29   15.9113  33   2.7   83    0.1   292   0     974.0    NA       0.0000   9999     2660  0     0    
2019/11/12  18:33:00  BASE  12.3245  27   15.9113  33   2.7   83    0.0   284   0     973.9    NA       0.0000   9999     2690  0     0    
2019/11/12  18:34:00  BASE  12.9654  25   15.9113  33   2.7   82    -0.0  273   0     973.9    NA       0.0000   9999     2560  0     0    
2019/11/12  18:35:00  BASE  13.2653  24   15.9113  33   2.7   82    -0.1  267   0     973.8    NA       0.0000   9999     2590  0     0    
2019/11/12  18:36:00  BASE  13.6534  24   16.3346  25   2.7   82    -0.1  266   0     973.8    NA       0.0000   9999     2660  0     0    
2019/11/12  18:37:00  BASE  14.8058  22   17.0285  21   2.7   82    -0.1  268   0     973.7    NA       0.0000   9999     2660  0     0    
2019/11/12  18:38:00  BASE  15.4879  20   17.0285  21   2.7   82    -0.1  263   0     973.7    NA       0.0000   9999     2690  0     0    
2019/11/12  18:39:00  BASE  14.1708  18   17.0285  21   2.8   81    -0.1  258   0     973.8    NA       0.0000   9999     2620  0     0    
2019/11/12  18:40:00  BASE  12.1304  12   17.0285  21   2.8   81    -0.1  255   0     973.9    NA       0.0000   9999     2590  0     0    
2019/11/12  18:41:00  BASE  11.1014  7    17.0285  21   2.7   81    -0.1  255   0     973.9    NA       0.0000   9999     2560  0     0    
2019/11/12  18:42:00  BASE  12.1775  13   17.0285  21   2.7   82    -0.1  254   0     973.7    NA       0.0000   9999     2530  0     0    
2019/11/12  18:43:00  BASE  14.5471  21   17.3342  32   2.6   82    -0.1  253   0     973.5    NA       0.0000   9999     2490  0     0    
2019/11/12  18:44:00  BASE  15.1645  24   17.3342  32   2.6   83    -0.1  252   0     973.6    NA       0.0000   9999     2490  0     0    
2019/11/12  18:45:00  BASE  14.8705  25   17.3342  32   2.6   83    0.0   250   0     973.6    NA       0.0000   9999     2530  0     0    
2019/11/12  18:46:00  BASE  15.2821  21   17.3342  32   2.6   83    0.0   247   0     973.6    NA       0.0000   9999     1020  0     0    
2019/11/12  18:47:00  BASE  14.6882  19   17.3342  32   2.6   83    0.0   246   0     973.7    NA       0.0000   9999     3510  0     0    
2019/11/12  18:48:00  BASE  14.3766  21   17.3342  32   2.5   83    0.0   246   0     973.6    NA       0.0000   9999     3770  0     0    
2019/11/12  18:49:00  BASE  14.5471  24   17.3342  32   2.5   84    0.0   245   0     973.6    NA       0.0000   9999     3450  0     0    
2019/11/12  18:50:00  BASE  14.4001  23   17.3342  32   2.5   84    -0.0  241   0     973.6    NA       0.0000   9999     2400  0     0    
2019/11/12  18:51:00  BASE  14.653   25   17.3342  32   2.4   84    -0.0  238   0     973.6    NA       0.0000   9999     0     0     0    
2019/11/12  18:52:00  BASE  14.6177  29   17.3342  32   2.4   84    0.0   235   0     973.7    NA       0.0000   9999     3580  0     0    
2019/11/12  18:53:00  BASE  14.212   28   16.9991  23   2.4   85    0.1   230   0     973.7    NA       0.0000   9999     3610  0     0    
2019/11/12  18:54:01  BASE  14.3472  28   16.9991  23   2.4   85    0.1   225   0     973.7    NA       0.0000   9999     0     0     0    
2019/11/12  18:55:00  BASE  13.9591  29   16.9991  23   2.4   85    0.1   222   0     973.8    NA       0.0000   9999     660   0     0    
2019/11/12  18:56:00  BASE  12.595   30   16.9991  23   2.4   84    0.0   218   0     973.8    NA       0.0000   9999     660   0     0    
2019/11/12  18:57:00  BASE  12.542   28   16.9991  23   2.4   84    0.0   212   0     973.7    NA       0.0000   9999     1250  0     0    
2019/11/12  18:58:01  BASE  13.0418  28   16.2464  32   2.4   85    0.0   206   0     973.7    NA       0.0000   9999     1150  0     0    
2019/11/12  18:59:00  BASE  12.9595  28   16.2464  32   2.4   85    0.1   198   0     973.8    NA       0.0000   9999     1210  0     0    
2019/11/12  19:00:00  BASE  12.8243  28   16.2464  32   2.3   85    0.1   191   0     973.8    NA       0.0000   9999     660   0     0    
2019/11/12  19:01:00  BASE  11.8541  27   16.0348  27   2.4   86    0.2   185   0     973.9    NA       0.0000   9999     720   0     0    
2019/11/12  19:02:00  BASE  11.566   28   16.0348  27   2.4   86    0.3   180   0     973.8    NA       0.0000   9999     1150  0     0    
2019/11/12  19:03:00  BASE  12.1598  28   16.0348  27   2.4   86    0.3   176   0     973.7    NA       0.0000   9999     1350  0     0    
2019/11/12  19:04:00  BASE  12.448   27   15.0352  33   2.4   86    0.3   173   0     973.7    NA       0.0000   9999     2850  0     0    
2019/11/12  19:05:00  BASE  12.6773  27   14.8529  30   2.4   86    0.3   170   0     973.7    NA       0.0000   9999     2360  0     0    
2019/11/12  19:06:00  BASE  11.9776  27   14.8529  30   2.4   86    0.3   169   0     973.8    NA       0.0000   9999     2360  0     0    
2019/11/12  19:07:00  BASE  10.7075  27   14.8529  30   2.4   86    0.3   167   0     973.9    NA       0.0000   9999     2360  0     0    
2019/11/12  19:08:00  BASE  11.1426  28   14.8529  30   2.4   86    0.3   165   0     973.8    NA       0.0000   9999     1710  0     0    
2019/11/12  19:09:00  BASE  12.5362  29   14.8529  30   2.4   86    0.3   165   0     973.7    NA       0.0000   9999     2330  0     0    
2019/11/12  19:10:00  BASE  12.4774  29   14.8529  30   2.4   86    0.3   165   0     973.8    NA       0.0000   UP       9999  2330  0    
2019/11/12  19:11:00  BASE  11.8835  29   14.8529  30   2.4   86    0.3   165   0     973.8    NA       0.0000   UP       9999  2360  0    
2019/11/12  19:12:00  BASE  11.76    30   14.8529  30   2.4   86    0.3   165   0     973.8    NA       0.0000   UP       9999  2360  0    
2019/11/12  19:13:00  BASE  11.7424  30   14.8529  30   2.4   86    0.3   166   0     973.8    NA       0.0000   UP       9999  2430  0    
2019/11/12  19:14:00  BASE  11.807   31   14.3354  23   2.4   86    0.3   169   0     973.8    NA       0.0000   UP       9999  2560  0    
2019/11/12  19:15:00  BASE  11.2308  31   14.0944  29   2.4   86    0.3   172   0     973.8    NA       0.0000   UP       9999  2530  0    
2019/11/12  19:16:00  BASE  10.6075  30   14.0944  29   2.4   86    0.3   175   0     973.8    NA       0.0000   UP       9999  2760  0    
2019/11/12  19:17:00  BASE  10.9074  31   14.0944  29   2.5   86    0.4   178   0     973.7    NA       0.0000   UP       9999  2400  0    
2019/11/12  19:18:00  BASE  11.2308  32   14.0944  29   2.5   86    0.4   183   0     973.7    NA       0.0000   UP       9999  2230  0    
2019/11/12  19:19:00  BASE  11.1838  31   13.4887  25   2.5   86    0.4   188   0     973.6    NA       0.0000   UP       9999  2100  0    
2019/11/12  19:20:00  BASE  11.1544  30   13.3123  33   2.5   86    0.4   194   0     973.6    NA       0.0000   UP       9999  2200  0    
2019/11/12  19:21:00  BASE  10.7604  31   13.3123  33   2.5   86    0.4   199   0     973.7    NA       0.0000   UP       9999  2430  0    
2019/11/12  19:22:00  BASE  10.8604  35   13.3123  33   2.6   86    0.4   205   0     973.6    NA       0.0000   9999     2360  0     0    
2019/11/12  19:23:00  BASE  11.7012  36   13.3123  33   2.6   86    0.4   208   0     973.6    NA       0.0000   9999     2260  3350  0    
2019/11/12  19:24:00  BASE  11.125   34   12.9772  30   2.6   85    0.4   209   0     973.6    NA       0.0000   9999     2260  0     0    
2019/11/12  19:25:00  BASE  10.1254  34   12.9772  30   2.6   85    0.4   207   0     973.6    NA       0.0000   9999     2300  0     0    
2019/11/12  19:26:00  BASE  10.1254  32   12.9772  30   2.7   85    0.4   205   0     973.5    NA       0.0000   9999     2360  0     0    
2019/11/12  19:27:00  BASE  10.5487  29   12.9772  30   2.7   85    0.3   203   0     973.5    NA       0.0000   9999     2230  0     0    
2019/11/12  19:28:00  BASE  10.6898  28   12.9772  30   2.7   84    0.3   201   0     973.5    NA       0.0000   9999     2200  0     0    
2019/11/12  19:29:00  BASE  10.7428  27   12.9772  30   2.7   84    0.3   200   0     973.5    NA       0.0000   9999     2260  0     0    
2019/11/12  19:30:00  BASE  11.0956  29   12.8243  32   2.7   84    0.3   200   0     973.5    NA       0.0000   9999     2300  0     0    
2019/11/12  19:31:00  BASE  11.1955  31   12.8243  32   2.7   84    0.3   201   0     973.5    NA       0.0000   9999     2260  0     0    
2019/11/12  19:32:00  BASE  10.684   29   12.8243  32   2.8   84    0.3   203   0     973.5    NA       0.0000   9999     2230  0     0    
2019/11/12  19:33:00  BASE  10.1312  28   12.3127  34   2.8   83    0.2   204   0     973.5    NA       0.0000   9999     2170  0     0    
2019/11/12  19:34:00  BASE  10.3606  28   12.5832  33   2.8   83    0.2   206   0     973.5    NA       0.0000   9999     2130  0     0    
2019/11/12  19:35:00  BASE  10.3018  27   12.5832  33   2.8   83    0.2   207   0     973.5    NA       0.0000   9999     2230  0     0    
2019/11/12  19:36:00  BASE  10.1724  27   12.5832  33   2.8   83    0.1   208   0     973.5    NA       0.0000   9999     2170  0     0    
2019/11/12  19:37:00  BASE  10.3606  28   12.5832  33   2.8   82    0.1   208   0     973.5    NA       0.0000   9999     2130  0     0    
2019/11/12  19:38:00  BASE  9.92544  28   12.5832  33   2.8   82    0.1   207   0     973.5    NA       0.0000   9999     2400  0     0    
2019/11/12  19:39:00  BASE  10.0195  27   12.5832  33   2.8   82    0.0   204   0     973.4    NA       0.0000   9999     2360  4330  0    
2019/11/12  19:40:00  BASE  10.6193  25   12.5832  33   2.8   82    0.0   200   0     973.4    NA       0.0000   9999     4230  0     0    
2019/11/12  19:41:00  BASE  10.3135  25   12.5832  33   2.8   82    0.0   196   0     973.4    NA       0.0000   9999     2330  0     0    
2019/11/12  19:42:00  BASE  10.1665  27   12.5832  33   2.7   82    0.0   194   0     973.4    NA       0.0000   9999     2260  4330  0    
2019/11/12  19:43:00  BASE  10.7251  29   13.0066  40   2.7   83    0.1   192   0     973.3    NA       0.0000   9999     2330  4170  0    
2019/11/12  19:44:00  BASE  11.0015  28   13.0066  40   2.7   83    0.1   190   0     973.3    NA       0.0000   9999     2230  0     0    
2019/11/12  19:45:00  BASE  11.3366  26   13.0066  40   2.7   83    0.1   189   0     973.2    NA       0.0000   9999     2200  0     0    
2019/11/12  19:46:00  BASE  11.4248  24   13.1594  26   2.6   83    0.1   188   0     973.3    NA       0.0000   9999     2460  4170  0    
2019/11/12  19:47:00  BASE  11.5248  22   13.7651  31   2.6   83    0.1   188   0     973.2    NA       0.0000   9999     2200  0     0    
2019/11/12  19:48:00  BASE  11.7541  24   13.7651  31   2.6   84    0.1   188   0     973.2    NA       0.0000   9999     2130  2760  0    
2019/11/12  19:49:00  BASE  11.1838  25   13.7651  31   2.6   84    0.1   187   0     973.2    NA       0.0000   9999     3870  0     0    
2019/11/12  19:50:00  BASE  10.9721  21   13.7651  31   2.6   84    0.2   186   0     973.2    NA       0.0000   9999     2820  4070  0    
2019/11/12  19:51:00  BASE  11.366   18   13.7651  31   2.6   84    0.1   186   0     973.1    NA       0.0000   9999     2760  0     0    
2019/11/12  19:52:00  BASE  11.1014  16   13.7651  31   2.5   84    0.1   187   0     973.2    NA       0.0000   9999     2820  3970  0    
2019/11/12  19:53:00  BASE  10.243   19   13.7651  31   2.5   84    0.1   187   0     973.2    NA       0.0000   9999     2850  4040  0    
2019/11/12  19:54:00  BASE  10.3841  24   13.7651  31   2.5   84    0.1   188   0     973.2    NA       0.0000   9999     2690  3900  0    
2019/11/12  19:55:00  BASE  10.8662  26   13.7651  31   2.5   84    0.1   188   0     973.1    NA       0.0000   9999     2360  4000  0    
2019/11/12  19:56:00  BASE  10.684   24   13.7651  31   2.5   85    0.2   190   0     973.2    NA       0.0000   9999     3710  0     0    
2019/11/12  19:57:00  BASE  10.5958  23   13.6416  29   2.5   85    0.2   191   0     973.2    NA       0.0000   9999     3840  0     0    
2019/11/12  19:58:00  BASE  10.4252  24   12.7067  31   2.5   85    0.2   192   0     973.2    NA       0.0000   9999     2950  0     0    
2019/11/12  19:59:00  BASE  10.6134  26   12.7067  31   2.6   85    0.3   191   0     973.1    NA       0.0000   9999     3810  0     0    
2019/11/12  20:00:00  BASE  11.5013  25   12.889   24   2.6   85    0.3   189   0     973.0    NA       0.0000   9999     2790  0     0    
2019/11/12  20:01:00  BASE  11.8658  24   12.889   24   2.6   84    0.3   186   0     973.0    NA       0.0000   9999     3480  0     0    
2019/11/12  20:02:00  BASE  11.8247  25   13.036   25   2.6   84    0.2   183   0     973.0    NA       0.0000   9999     2170  3410  0    
2019/11/12  20:03:00  BASE  11.807   26   13.036   25   2.7   84    0.2   180   0     973.0    NA       0.0000   9999     2820  20870 22870
2019/11/12  20:04:00  BASE  11.6718  25   13.13    25   2.7   83    0.2   175   0     973.0    NA       0.0000   9999     2760  0     0    
2019/11/12  20:05:00  BASE  11.5366  24   13.13    25   2.7   83    0.1   171   0     973.0    NA       0.0000   9999     2690  0     0    
2019/11/12  20:06:00  BASE  11.4542  23   13.13    25   2.6   83    0.1   166   0     973.0    NA       0.0000   9999     2690  0     0    
2019/11/12  20:07:00  BASE  10.9427  21   13.13    25   2.6   83    0.1   163   0     973.1    NA       0.0000   9999     2690  0     0    
2019/11/12  20:08:00  BASE  10.4958  19   13.13    25   2.6   84    0.1   161   0     973.1    NA       0.0000   9999     2530  22610 0    
2019/11/12  20:09:00  BASE  10.4017  17   13.13    25   2.6   84    0.1   160   0     973.1    NA       0.0000   9999     2620  0     0    
2019/11/12  20:10:00  BASE  10.437   13   13.13    25   2.6   84    0.1   160   0     973.0    NA       0.0000   9999     2030  0     0    
2019/11/12  20:11:00  BASE  10.6546  12   13.13    25   2.6   84    0.2   160   0     973.0    NA       0.0000   9999     2070  0     0    
2019/11/12  20:12:00  BASE  10.484   12   13.13    25   2.5   84    0.2   161   0     973.0    NA       0.0000   9999     2130  0     0    
2019/11/12  20:13:00  BASE  10.4899  12   13.13    25   2.5   85    0.2   163   0     972.9    NA       0.0000   9999     2230  0     0    
2019/11/12  20:14:00  BASE  11.366   12   13.036   9    2.5   85    0.2   165   0     972.9    NA       0.0000   9999     2130  0     0    
2019/11/12  20:15:00  BASE  11.8188  11   13.036   9    2.5   85    0.2   166   0     972.9    NA       0.0000   9999     2130  0     0    
2019/11/12  20:16:00  BASE  10.631   13   13.036   9    2.5   85    0.2   167   0     973.0    NA       0.0000   9999     2170  0     0    
2019/11/12  20:17:00  BASE  10.2665  18   13.036   9    2.5   85    0.2   170   0     972.9    NA       0.0000   9999     2170  0     0    
2019/11/12  20:18:00  BASE  10.8133  23   13.036   9    2.5   85    0.2   174   0     972.9    NA       0.0000   9999     2100  0     0    
2019/11/12  20:19:00  BASE  10.7663  28   13.036   9    2.5   85    0.2   180   0     972.9    NA       0.0000   9999     2130  0     0    
2019/11/12  20:20:01  BASE  9.9372   27   13.036   9    2.5   85    0.2   185   0     972.9    NA       0.0000   9999     2170  0     0    
2019/11/12  20:21:00  BASE  9.09048  24   13.036   9    2.5   85    0.2   188   0     973.0    NA       0.0000   9999     2230  0     0    
2019/11/12  20:22:00  BASE  9.11988  24   13.036   9    2.5   85    0.2   187   0     973.0    NA       0.0000   9999     2100  0     0    
2019/11/12  20:23:00  BASE  9.2022   25   13.036   9    2.5   85    0.2   183   0     972.9    NA       0.0000   9999     2130  17450 0    
2019/11/12  20:24:00  BASE  9.82548  29   12.495   17   2.5   85    0.2   180   0     972.9    NA       0.0000   9999     2200  0     0    
2019/11/12  20:25:00  BASE  10.684   32   12.7067  36   2.5   84    0.2   180   0     972.8    NA       0.0000   9999     2170  0     0    
2019/11/12  20:26:00  BASE  11.4366  33   13.5534  34   2.5   84    0.1   181   0     972.7    NA       0.0000   9999     2130  0     0    
2019/11/12  20:27:00  BASE  11.5189  32   13.5534  34   2.5   84    0.1   181   0     972.8    NA       0.0000   9999     2130  0     0    
2019/11/12  20:28:00  BASE  10.4782  28   13.5534  34   2.5   84    0.1   181   0     972.9    NA       0.0000   9999     2100  0     0    
2019/11/12  20:29:00  BASE  10.1018  25   13.5534  34   2.6   84    0.1   184   0     972.8    NA       0.0000   9999     2130  0     0    
2019/11/12  20:30:00  BASE  10.8192  26   13.5534  34   2.6   83    0.0   190   0     972.7    NA       0.0000   9999     2170  0     0    
2019/11/12  20:31:00  BASE  10.8133  28   13.5534  34   2.6   83    0.0   196   0     972.7    NA       0.0000   9999     2130  0     0    
2019/11/12  20:32:00  BASE  10.778   27   13.5534  34   2.6   83    -0.0  197   0     972.7    NA       0.0000   9999     2170  0     0    
2019/11/12  20:33:00  BASE  11.3719  27   13.5534  34   2.6   83    0.0   195   0     972.6    NA       0.0000   9999     2200  0     0    
2019/11/12  20:34:00  BASE  11.2955  27   13.5534  34   2.6   83    0.0   195   0     972.6    NA       0.0000   9999     2230  0     0    
2019/11/12  20:35:00  BASE  11.3014  28   13.5534  34   2.6   83    0.0   197   0     972.6    NA       0.0000   9999     2130  0     0    
2019/11/12  20:36:00  BASE  11.2837  28   13.036   23   2.6   83    0.0   196   0     972.7    NA       0.0000   9999     2300  3970  6140 
2019/11/12  20:37:00  BASE  10.7134  28   13.036   23   2.6   83    0.0   192   0     972.7    NA       0.0000   9999     2260  2990  0    
2019/11/12  20:38:00  BASE  11.0132  28   13.036   23   2.6   83    0.0   190   0     972.6    NA       0.0000   9999     2230  2920  0    
2019/11/12  20:39:00  BASE  11.566   26   13.036   23   2.6   83    -0.0  193   0     972.6    NA       0.0000   9999     2230  2890  0    
2019/11/12  20:40:00  BASE  10.6781  26   13.036   23   2.6   83    -0.0  191   0     972.7    NA       0.0000   9999     2260  2850  0    
2019/11/12  20:41:00  BASE  10.7957  26   13.036   23   2.6   82    -0.1  182   0     972.6    NA       0.0000   9999     2790  6270  0    
2019/11/12  20:42:00  BASE  12.0775  23   13.3123  20   2.6   82    -0.1  171   0     972.5    NA       0.0000   9999     2400  2790  0    
2019/11/12  20:43:00  BASE  12.1246  22   13.3123  20   2.6   82    -0.2  165   0     972.6    NA       0.0000   9999     2360  0     0    
2019/11/12  20:44:00  BASE  11.907   21   13.3123  20   2.6   82    -0.2  163   0     972.5    NA       0.0000   9999     2360  0     0    
2019/11/12  20:45:01  BASE  11.9423  19   13.3123  20   2.5   82    -0.1  160   0     972.5    NA       0.0000   9999     2300  0     0    
2019/11/12  20:46:00  BASE  11.5954  21   13.3123  20   2.5   83    -0.1  156   0     972.5    NA       0.0000   9999     2330  0     0    
2019/11/12  20:47:00  BASE  11.3425  23   13.3123  20   2.5   83    -0.1  150   0     972.5    NA       0.0000   9999     2400  0     0    
2019/11/12  20:48:00  BASE  11.7071  25   13.3123  20   2.5   83    -0.0  145   0     972.4    NA       0.0000   9999     2530  0     0    
2019/11/12  20:49:00  BASE  11.8658  23   13.3123  20   2.5   84    0.0   143   0     972.5    NA       0.0000   9999     2620  4360  0    
2019/11/12  20:50:00  BASE  11.513   22   13.3123  20   2.5   84    0.0   142   0     972.5    NA       0.0000   9999     2660  4330  0    
2019/11/12  20:51:00  BASE  11.2543  21   13.3123  20   2.5   84    0.1   141   0     972.5    NA       0.0000   9999     4200  0     0    
2019/11/12  20:52:00  BASE  11.3543  20   13.036   24   2.5   84    0.0   140   0     972.5    NA       0.0000   9999     3640  4430  0    
2019/11/12  20:53:00  BASE  11.3131  19   13.036   24   2.5   84    0.0   139   0     972.5    NA       0.0000   9999     2620  4820  0    
2019/11/12  20:54:00  BASE  10.5017  21   13.036   24   2.4   84    0.0   140   0     972.5    NA       0.0000   9999     4130  0     0    
2019/11/12  20:55:00  BASE  9.91956  23   13.036   24   2.4   84    -0.0  142   0     972.5    NA       0.0000   9999     2300  3220  4040 
2019/11/12  20:56:00  BASE  9.91956  24   13.036   24   2.4   84    -0.0  145   0     972.5    NA       0.0000   9999     3580  0     0    
2019/11/12  20:57:00  BASE  9.88428  25   13.036   24   2.4   84    -0.0  149   0     972.5    NA       0.0000   9999     2330  3220  0    
2019/11/12  20:58:00  BASE  10.0724  26   13.036   24   2.3   85    0.0   151   0     972.5    NA       0.0000   9999     2360  3050  0    
2019/11/12  20:59:00  BASE  10.4135  26   12.7361  24   2.3   85    0.0   157   0     972.4    NA       0.0000   9999     3080  0     0    
2019/11/12  21:00:00  BASE  10.9427  25   12.5538  24   2.3   85    0.1   162   0     972.4    NA       0.0000   9999     2230  3080  0    
2019/11/12  21:01:00  BASE  11.2014  25   12.5538  20   2.4   85    0.1   164   0     972.4    NA       0.0000   9999     2260  3050  4820 
2019/11/12  21:02:00  BASE  11.2484  24   12.889   21   2.4   85    0.1   165   0     972.4    NA       0.0000   9999     3280  0     0    
2019/11/12  21:03:00  BASE  11.6836  24   13.4299  22   2.4   85    0.1   163   0     972.4    NA       0.0000   9999     3020  0     0    
2019/11/12  21:04:00  BASE  11.7776  23   13.4299  22   2.4   84    0.0   157   0     972.4    NA       0.0000   9999     2920  0     0    
2019/11/12  21:05:00  BASE  11.2426  21   13.4299  22   2.4   84    0.0   153   0     972.4    NA       0.0000   9999     2430  3050  0    
2019/11/12  21:06:00  BASE  11.1426  21   13.4299  22   2.4   84    -0.0  151   0     972.4    NA       0.0000   9999     2890  0     0    
2019/11/12  21:07:00  BASE  11.7247  24   13.4299  22   2.4   84    -0.0  147   0     972.4    NA       0.0000   9999     2920  0     0    
2019/11/12  21:08:00  BASE  12.0775  26   13.4299  22   2.4   84    -0.1  141   0     972.4    NA       0.0000   9999     2850  0     0    
2019/11/12  21:09:00  BASE  11.566   24   13.4299  22   2.3   84    -0.1  137   0     972.4    NA       0.0000   9999     2790  0     0    
2019/11/12  21:10:00  BASE  11.5483  24   13.4299  22   2.3   84    -0.1  134   0     972.3    NA       0.0000   9999     2760  0     0    
2019/11/12  21:11:00  BASE  11.272   25   13.4299  22   2.3   84    -0.0  133   0     972.4    NA       0.0000   9999     2790  0     0    
2019/11/12  21:12:00  BASE  10.4017  24   13.4299  22   2.3   85    -0.0  132   0     972.4    NA       0.0000   9999     2720  0     0    
2019/11/12  21:13:00  BASE  10.6604  25   13.3123  25   2.3   85    -0.0  131   0     972.4    NA       0.0000   9999     2760  5740  17650
2019/11/12  21:14:00  BASE  11.025   26   13.3123  25   2.3   85    -0.0  128   0     972.4    NA       0.0000   9999     2760  0     0    
2019/11/12  21:15:00  BASE  10.7663  26   13.3123  25   2.2   85    -0.0  125   0     972.4    NA       0.0000   UP       9999  2760  0    
2019/11/12  21:16:00  BASE  10.8604  26   13.3123  25   2.2   85    -0.0  119   0     972.4    NA       0.0000   UP       8000  2720  0    
2019/11/12  21:17:00  BASE  10.7134  26   13.1594  30   2.2   85    -0.0  116   0     972.4    NA       0.0000   UP       4700  360   2690 
2019/11/12  21:18:00  BASE  10.6781  27   13.1594  30   2.1   86    0.0   116   0     972.4    NA       0.0000   -SN      8000  330   2720 
2019/11/12  21:19:00  BASE  10.9368  27   13.1594  30   2.1   86    0.1   115   0     972.4    NA       0.0000   -SN      BR    6000  390  
2019/11/12  21:20:00  BASE  10.8486  27   13.1594  30   2.1   87    0.1   113   0     972.4    NA       0.0000   -SN      BR    9000  1310 
2019/11/12  21:21:00  BASE  10.7075  26   13.1594  30   2.1   87    0.1   111   0     972.4    NA       0.0000   -SN      BR    6000  1800 
2019/11/12  21:22:00  BASE  10.0783  25   13.1594  30   2.1   87    0.2   109   0     972.5    NA       0.0000   -SN      BR    4400  390  
2019/11/12  21:23:00  BASE  10.043   25   13.1594  30   2.1   87    0.1   109   0     972.4    NA       0.0000   -SN      BR    2800  390  
2019/11/12  21:24:00  BASE  10.6252  27   13.1594  30   2.1   87    0.2   110   0     972.5    NA       0.0000   -SN      BR    2900  0    
2019/11/12  21:25:00  BASE  9.86664  26   13.1594  30   2.1   87    0.2   109   0     972.5    NA       0.0000   -SN      BR    3800  0    
2019/11/12  21:26:00  BASE  9.57264  25   12.9772  25   2.1   88    0.2   108   0     972.5    NA       0.0000   -SN      BR    7000  0    
2019/11/12  21:27:00  BASE  10.2077  26   12.9772  25   2.1   88    0.3   107   0     972.5    NA       0.0000   -SN      BR    9999  0    
2019/11/12  21:28:00  BASE  10.0901  26   12.9772  25   2.1   88    0.3   106   0     972.5    NA       0.0000   -SN      BR    9999  0    
2019/11/12  21:29:00  BASE  10.1606  25   12.9772  25   2.1   88    0.3   105   0     972.4    NA       0.0000   -SN      BR    9999  0    
2019/11/12  21:30:00  BASE  10.2782  26   12.9772  25   2.1   88    0.3   103   0     972.4    NA       0.0000   -SN      BR    9999  430  
2019/11/12  21:31:00  BASE  10.6957  25   12.9772  25   2.1   88    0.3   102   0     972.4    NA       0.0000   -SN      BR    9999  390  
2019/11/12  21:32:00  BASE  10.878   24   12.9772  25   2.1   87    0.3   102   0     972.4    NA       0.0000   -SN      BR    9999  390  
2019/11/12  21:33:00  BASE  10.2724  25   12.9772  25   2.2   87    0.3   103   0     972.5    NA       0.0000   -SN      BR    9000  360  
2019/11/12  21:34:00  BASE  9.4962   26   12.101   27   2.2   87    0.2   103   0     972.5    NA       0.0000   -SN      BR    9999  1050 
2019/11/12  21:35:00  BASE  9.27276  27   12.101   27   2.2   87    0.2   102   0     972.4    NA       0.0000   -SN      9999  1610  0    
2019/11/12  21:36:00  BASE  9.47856  26   12.101   27   2.2   86    0.2   101   0     972.5    NA       0.0000   -SN      9999  1610  0    
2019/11/12  21:37:00  BASE  9.47268  25   12.101   27   2.3   86    0.2   101   0     972.4    NA       0.0000   -SN      9999  1610  0    
2019/11/12  21:38:00  BASE  9.1434   25   12.101   27   2.3   86    0.1   100   0     972.5    NA       0.0000   -SN      9999  1770  0    
2019/11/12  21:39:00  BASE  9.09636  26   12.101   27   2.3   85    0.1   100   0     972.4    NA       0.0000   -SN      9999  2360  0    
2019/11/12  21:40:00  BASE  9.44328  26   12.101   27   2.3   85    0.1   100   0     972.5    NA       0.0000   -SN      9999  2200  0    
2019/11/12  21:41:00  BASE  9.57852  28   11.6777  26   2.3   85    0.0   99    0     972.4    NA       0.0000   -SN      9999  2200  0    
2019/11/12  21:42:00  BASE  9.31392  26   10.8016  23   2.3   85    0.0   98    0     972.4    NA       0.0000   -SN      9999  2400  0    
2019/11/12  21:43:00  BASE  9.27864  25   10.8016  23   2.3   85    0.0   97    0     972.4    NA       0.0000   9999     2300  0     0    
2019/11/12  21:44:00  BASE  9.66672  26   10.8016  23   2.3   85    -0.0  95    0     972.4    NA       0.0000   9999     2300  0     0    
2019/11/12  21:45:00  BASE  9.72552  27   10.6487  31   2.3   84    -0.0  93    0     972.4    NA       0.0000   9999     2230  0     0    
2019/11/12  21:46:00  BASE  9.37272  27   10.6487  31   2.3   84    -0.1  91    0     972.5    NA       0.0000   9999     2300  0     0    
2019/11/12  21:47:00  BASE  8.80236  27   10.6487  31   2.3   84    -0.1  90    0     972.5    NA       0.0000   9999     2300  0     0    
2019/11/12  21:48:00  BASE  8.8788   28   10.6487  31   2.3   84    -0.1  89    0     972.5    NA       0.0000   9999     2330  0     0    
2019/11/12  21:49:00  BASE  9.56088  27   10.978   31   2.3   84    -0.1  88    0     972.4    NA       0.0000   9999     2300  0     0    
2019/11/12  21:50:00  BASE  9.77844  26   10.978   31   2.3   84    -0.1  87    0     972.4    NA       0.0000   9999     2230  3150  0    
2019/11/12  21:51:00  BASE  9.30804  28   10.978   31   2.3   84    -0.1  86    0     972.4    NA       0.0000   9999     2170  3120  0    
2019/11/12  21:52:00  BASE  8.74356  27   10.978   31   2.3   84    -0.1  85    0     972.5    NA       0.0000   9999     2130  0     0    
2019/11/12  21:53:00  BASE  8.7906   27   10.978   31   2.3   84    -0.1  84    0     972.5    NA       0.0000   9999     2200  0     0    
2019/11/12  21:54:00  BASE  8.60244  27   10.978   31   2.3   84    -0.1  83    0     972.5    NA       0.0000   9999     2130  0     0    
2019/11/12  21:55:00  BASE  8.24964  26   10.978   31   2.3   84    -0.1  83    0     972.5    NA       0.0000   9999     2100  0     0    
2019/11/12  21:56:00  BASE  8.526    29   10.978   31   2.3   84    -0.1  83    0     972.4    NA       0.0000   9999     2170  0     0    
2019/11/12  21:57:00  BASE  8.91408  32   10.978   31   2.3   84    -0.1  83    0     972.4    NA       0.0000   9999     2170  0     0    
2019/11/12  21:58:00  BASE  9.35508  31   10.978   31   2.3   84    -0.1  82    0     972.4    NA       0.0000   9999     2230  0     0    
2019/11/12  21:59:00  BASE  9.48444  30   10.831   29   2.3   84    -0.1  81    0     972.4    NA       0.0000   9999     2300  0     0    
2019/11/12  22:00:00  BASE  9.1728   29   10.9486  23   2.3   84    -0.1  80    0     972.5    NA       0.0000   9999     2330  0     0    
2019/11/12  22:01:00  BASE  9.24924  30   10.9486  23   2.3   84    -0.1  79    0     972.4    NA       0.0000   9999     2230  3280  0    
2019/11/12  22:02:00  BASE  9.56088  30   10.9486  23   2.3   84    -0.1  78    0     972.4    NA       0.0000   9999     2330  3250  0    
2019/11/12  22:03:00  BASE  9.03168  30   10.9486  23   2.3   84    -0.1  76    0     972.5    NA       0.0000   9999     2200  0     0    
2019/11/12  22:04:00  BASE  8.44956  30   10.9486  23   2.3   84    -0.1  75    0     972.5    NA       0.0000   9999     2330  0     0    
2019/11/12  22:05:00  BASE  8.63772  30   10.9486  23   2.3   84    -0.1  74    0     972.5    NA       0.0000   9999     2200  0     0    
2019/11/12  22:06:00  BASE  8.80824  31   10.9486  23   2.3   85    -0.1  74    0     972.5    NA       0.0000   9999     2260  0     0    
2019/11/12  22:07:00  BASE  8.62596  31   10.9486  23   2.3   85    -0.1  73    0     972.5    NA       0.0000   9999     2170  0     0    
2019/11/12  22:08:00  BASE  8.5554   30   10.9486  23   2.3   85    -0.1  73    0     972.5    NA       0.0000   9999     2000  0     0    
2019/11/12  22:09:00  BASE  8.96112  28   11.3425  25   2.3   85    -0.1  73    0     972.4    NA       0.0000   9999     2000  0     0    
2019/11/12  22:10:00  BASE  9.57852  28   11.3425  25   2.3   84    -0.1  73    0     972.4    NA       0.0000   9999     2300  0     0    
2019/11/12  22:11:00  BASE  9.92544  30   11.3425  25   2.3   84    -0.1  72    0     972.4    NA       0.0000   9999     2490  0     0    
2019/11/12  22:12:00  BASE  9.60204  31   11.3425  25   2.3   84    -0.1  72    0     972.4    NA       0.0000   9999     2620  0     0    
2019/11/12  22:13:00  BASE  9.28452  33   11.3425  25   2.3   84    -0.1  72    0     971.8    NA       0.0000   9999     2530  0     0    
2019/11/12  22:14:00  BASE  9.11988  35   11.3425  25   2.3   84    -0.1  72    0     972.4    NA       0.0000   9999     2360  0     0    
2019/11/12  22:15:00  BASE  8.91408  34   11.3425  25   2.3   84    -0.1  71    0     972.5    NA       0.0000   9999     1640  0     0    
2019/11/12  22:16:00  BASE  8.53188  29   11.3425  25   2.3   84    -0.2  71    0     972.5    NA       0.0000   9999     1800  0     0    
2019/11/12  22:17:00  BASE  8.6436   27   11.3425  25   2.2   84    -0.2  70    0     972.5    NA       0.0000   9999     2260  0     0    
2019/11/12  22:18:00  BASE  9.3492   29   11.3425  25   2.2   84    -0.2  69    0     972.4    NA       0.0000   9999     2260  0     0    
2019/11/12  22:19:00  BASE  9.19632  30   11.1014  34   2.2   84    -0.2  69    0     972.4    NA       0.0000   9999     2030  0     0    
2019/11/12  22:20:00  BASE  9.30216  29   11.1014  34   2.2   84    -0.2  69    0     972.4    NA       0.0000   9999     1670  0     0    
2019/11/12  22:21:00  BASE  9.45504  28   11.0426  28   2.2   84    -0.2  69    0     972.4    NA       0.0000   9999     1800  0     0    
2019/11/12  22:22:00  BASE  9.36684  28   11.0426  28   2.2   84    -0.2  68    0     972.4    NA       0.0000   9999     2100  0     0    
2019/11/12  22:23:00  BASE  9.31392  31   11.0426  28   2.2   84    -0.2  66    0     972.4    NA       0.0000   9999     2100  0     0    
2019/11/12  22:24:00  BASE  8.59656  32   11.0426  28   2.2   84    -0.2  65    0     972.5    NA       0.0000   9999     2920  0     0    
2019/11/12  22:25:00  BASE  7.9674   33   11.0426  28   2.2   84    -0.2  63    0     972.5    NA       0.0000   9999     2890  0     0    
2019/11/12  22:26:00  BASE  8.01444  33   11.0426  28   2.2   84    -0.2  61    0     972.5    NA       0.0000   9999     2890  0     0    
2019/11/12  22:27:00  BASE  7.94976  30   11.0426  28   2.2   84    -0.2  60    0     972.5    NA       0.0000   9999     2820  0     0    
2019/11/12  22:28:00  BASE  8.26728  30   11.0426  28   2.2   84    -0.3  58    0     972.4    NA       0.0000   9999     2790  21420 0    
2019/11/12  22:29:00  BASE  8.92584  31   11.0426  28   2.2   83    -0.3  57    0     972.4    NA       0.0000   9999     2790  0     0    
2019/11/12  22:30:00  BASE  8.86116  31   10.4076  26   2.2   83    -0.3  55    0     972.4    NA       0.0000   9999     2790  0     0    
2019/11/12  22:31:00  BASE  8.30256  31   10.4076  26   2.2   83    -0.4  54    0     972.5    NA       0.0000   9999     2950  0     0    
2019/11/12  22:32:00  BASE  8.1732   30   10.0724  43   2.2   83    -0.4  53    0     972.4    NA       0.0000   9999     2850  0     0    
2019/11/12  22:33:00  BASE  8.85528  30   10.043   30   2.2   83    -0.4  53    0     972.4    NA       0.0000   9999     2890  22250 0    
2019/11/12  22:34:00  BASE  9.60792  33   10.6487  37   2.2   83    -0.4  52    0     972.4    NA       0.0000   9999     2820  0     0    
2019/11/12  22:35:00  BASE  9.54912  35   10.6487  37   2.2   83    -0.4  52    0     972.4    NA       0.0000   9999     2230  0     0    
2019/11/12  22:36:00  BASE  8.82588  34   10.6487  37   2.2   83    -0.4  52    0     972.4    NA       0.0000   9999     2300  0     0    
2019/11/12  22:37:00  BASE  8.06148  31   10.6487  37   2.2   83    -0.4  51    0     972.5    NA       0.0000   9999     2850  0     0    
2019/11/12  22:38:00  BASE  8.15556  32   10.6487  37   2.2   83    -0.4  51    0     972.4    NA       0.0000   9999     2230  0     0    
2019/11/12  22:39:00  BASE  8.80236  32   10.6487  37   2.1   83    -0.4  51    0     972.4    NA       0.0000   9999     2260  3670  0    
2019/11/12  22:40:00  BASE  9.06696  30   10.6487  37   2.1   83    -0.4  51    0     972.3    NA       0.0000   9999     2230  3970  0    
2019/11/12  22:41:00  BASE  9.3198   28   10.6487  37   2.1   83    -0.4  51    0     972.3    NA       0.0000   9999     2230  3870  0    
2019/11/12  22:42:00  BASE  9.36684  27   10.7075  33   2.1   83    -0.4  51    0     972.3    NA       0.0000   9999     3020  3810  0    
2019/11/12  22:43:00  BASE  9.39036  30   10.8016  40   2.2   83    -0.4  51    0     972.3    NA       0.0000   9999     2850  3840  0    
2019/11/12  22:44:00  BASE  9.24336  32   10.8016  40   2.2   83    -0.4  51    0     972.4    NA       0.0000   9999     2820  0     0    
2019/11/12  22:45:00  BASE  9.33156  33   10.8016  40   2.2   83    -0.4  51    0     972.4    NA       0.0000   9999     2920  3940  0    
2019/11/12  22:46:00  BASE  9.1728   34   10.8016  40   2.2   83    -0.4  51    0     972.3    NA       0.0000   9999     2890  0     0    
2019/11/12  22:47:00  BASE  8.88468  33   10.8016  40   2.2   83    -0.5  51    0     972.3    NA       0.0000   9999     2850  3900  0    
2019/11/12  22:48:00  BASE  9.45504  32   10.8016  40   2.1   83    -0.5  50    0     972.3    NA       0.0000   9999     3900  0     0    
2019/11/12  22:49:00  BASE  9.92544  33   10.8016  40   2.1   83    -0.5  50    0     972.3    NA       0.0000   9999     3020  3840  0    
2019/11/12  22:50:00  BASE  9.86076  35   10.978   35   2.1   83    -0.5  49    0     972.3    NA       0.0000   9999     3080  3540  0    
2019/11/12  22:51:00  BASE  9.1434   35   10.978   35   2.1   83    -0.6  49    0     972.4    NA       0.0000   9999     2890  3580  0    
2019/11/12  22:52:00  BASE  8.70828  34   10.978   35   2.1   83    -0.5  49    0     972.3    NA       0.0000   9999     2950  3580  0    
2019/11/12  22:53:00  BASE  8.93172  30   10.978   35   2.1   83    -0.5  49    0     972.3    NA       0.0000   9999     3610  0     0    
2019/11/12  22:54:00  BASE  9.44328  28   10.978   35   2.1   83    -0.5  49    0     972.3    NA       0.0000   9999     3580  0     0    
2019/11/12  22:55:00  BASE  9.36096  30   10.978   35   2.1   83    -0.6  49    0     972.3    NA       0.0000   9999     3640  0     0    
2019/11/12  22:56:00  BASE  9.07872  30   10.978   35   2.1   83    -0.5  48    0     972.3    NA       0.0000   9999     3640  0     0    
2019/11/12  22:57:00  BASE  9.3786   31   10.978   35   2.1   83    -0.6  48    0     972.3    NA       0.0000   9999     3640  0     0    
2019/11/12  22:58:00  BASE  8.94348  31   10.978   35   2.0   83    -0.6  48    0     972.4    NA       0.0000   9999     3670  0     0    
2019/11/12  22:59:00  BASE  8.50248  30   10.978   35   2.0   83    -0.6  48    0     972.3    NA       0.0000   9999     3540  0     0    
2019/11/12  23:00:00  BASE  8.39664  30   10.831   29   2.0   83    -0.5  48    0     972.3    NA       0.0000   9999     3540  0     0    
2019/11/12  23:01:00  BASE  8.66712  31   10.831   29   2.0   83    -0.5  47    0     972.3    NA       0.0000   9999     3480  0     0    
2019/11/12  23:02:00  BASE  9.33744  34   11.0132  29   2.0   83    -0.5  47    0     972.3    NA       0.0000   9999     3510  0     0    
2019/11/12  23:03:00  BASE  8.92584  33   11.0132  29   2.0   83    -0.5  47    0     972.3    NA       0.0000   9999     3540  0     0    
2019/11/12  23:04:00  BASE  8.43192  32   11.0132  29   2.0   83    -0.5  46    0     972.3    NA       0.0000   9999     3610  0     0    
2019/11/12  23:05:00  BASE  9.09636  33   11.0132  29   2.1   83    -0.5  46    0     972.3    NA       0.0000   9999     3540  0     0    
2019/11/12  23:06:00  BASE  9.42564  31   11.0132  29   2.1   83    -0.5  46    0     972.3    NA       0.0000   9999     3510  0     0    
2019/11/12  23:07:00  BASE  9.16692  29   11.0132  29   2.1   83    -0.5  46    0     972.3    NA       0.0000   9999     3150  0     0    
2019/11/12  23:08:00  BASE  8.57892  29   11.0132  29   2.1   83    -0.5  46    0     972.3    NA       0.0000   9999     3410  0     0    
2019/11/12  23:09:00  BASE  8.4378   29   11.0132  29   2.1   83    -0.5  46    0     972.3    NA       0.0000   9999     3510  0     0    
2019/11/12  23:10:00  BASE  8.95524  29   11.0132  29   2.1   83    -0.5  46    0     972.3    NA       0.0000   9999     3580  0     0    
2019/11/12  23:11:00  BASE  8.74944  28   11.0132  29   2.1   83    -0.5  46    0     972.3    NA       0.0000   9999     3610  4040  0    
2019/11/12  23:12:00  BASE  9.01992  28   11.7659  30   2.1   83    -0.5  46    0     972.3    NA       0.0000   9999     3580  4170  0    
2019/11/12  23:13:00  BASE  10.0078  30   11.7659  30   2.1   83    -0.5  46    0     972.3    NA       0.0000   9999     3580  0     0    
2019/11/12  23:14:00  BASE  9.46092  31   11.7659  30   2.1   83    -0.5  45    0     972.3    NA       0.0000   9999     3510  0     0    
2019/11/12  23:15:00  BASE  8.64948  32   11.7659  30   2.1   83    -0.4  45    0     972.3    NA       0.0000   9999     3580  0     0    
2019/11/12  23:16:00  BASE  9.09636  34   11.7659  30   2.2   83    -0.5  45    0     972.3    NA       0.0000   9999     3510  0     0    
2019/11/12  23:17:00  BASE  9.31392  33   11.7659  30   2.2   83    -0.5  45    0     972.3    NA       0.0000   9999     3510  0     0    
2019/11/12  23:18:00  BASE  9.26688  29   11.7659  30   2.2   82    -0.5  45    0     972.3    NA       0.0000   9999     3480  0     0    
2019/11/12  23:19:00  BASE  9.48444  28   11.7659  30   2.2   82    -0.5  44    0     972.3    NA       0.0000   9999     3450  0     0    
2019/11/12  23:20:00  BASE  9.13752  29   11.7659  30   2.2   82    -0.6  44    0     972.3    NA       0.0000   9999     3350  0     0    
2019/11/12  23:21:00  BASE  8.72004  29   11.7659  30   2.2   82    -0.6  43    0     972.3    NA       0.0000   9999     3150  0     0    
2019/11/12  23:22:00  BASE  8.13204  28   11.1602  31   2.2   82    -0.6  43    0     972.4    NA       0.0000   9999     3080  0     0    
2019/11/12  23:23:00  BASE  7.938    27   10.7663  37   2.2   82    -0.6  42    0     972.3    NA       0.0000   9999     3120  0     0    
2019/11/12  23:24:00  BASE  8.72592  27   10.7663  37   2.1   82    -0.6  41    0     972.3    NA       0.0000   9999     3120  0     0    
2019/11/12  23:25:00  BASE  8.74944  24   10.7663  37   2.1   82    -0.6  41    0     972.3    NA       0.0000   9999     3540  0     0    
2019/11/12  23:26:00  BASE  8.39664  24   10.7663  37   2.1   82    -0.6  40    0     972.4    NA       0.0000   9999     3540  0     0    
2019/11/12  23:27:00  BASE  8.07912  27   10.7663  37   2.0   83    -0.6  40    0     972.4    NA       0.0000   9999     3580  0     0    
2019/11/12  23:28:00  BASE  7.92624  29   10.7663  37   2.0   83    -0.6  39    0     972.4    NA       0.0000   9999     3150  3710  0    
2019/11/12  23:29:00  BASE  8.60244  26   10.043   27   2.0   83    -0.6  39    0     972.3    NA       0.0000   9999     3120  3640  0    
2019/11/12  23:30:00  BASE  8.84352  22   10.043   27   2.0   83    -0.6  39    0     972.3    NA       0.0000   9999     3840  0     0    
2019/11/12  23:31:00  BASE  8.44956  22   10.043   27   2.0   83    -0.6  39    0     972.3    NA       0.0000   9999     3540  0     0    
2019/11/12  23:32:00  BASE  8.35548  26   10.043   27   2.0   83    -0.6  39    0     972.3    NA       0.0000   9999     3510  0     0    
2019/11/12  23:33:00  BASE  8.37312  27   9.86076  28   2.0   83    -0.6  39    0     972.4    NA       0.0000   9999     3580  0     0    
2019/11/12  23:34:00  BASE  7.9674   28   9.80196  21   2.0   83    -0.6  39    0     972.4    NA       0.0000   9999     3610  0     0    
2019/11/12  23:35:00  BASE  7.8204   26   9.80196  21   1.9   83    -0.7  39    0     972.4    NA       0.0000   9999     3610  0     0    
2019/11/12  23:36:00  BASE  8.76708  22   10.2547  19   1.9   83    -0.6  38    0     972.3    NA       0.0000   9999     3610  0     0    
2019/11/12  23:37:00  BASE  9.38448  22   10.4664  25   1.9   83    -0.6  38    0     972.3    NA       0.0000   9999     3640  0     0    
2019/11/12  23:38:00  BASE  9.04344  26   10.4664  25   1.9   84    -0.6  38    0     972.4    NA       0.0000   9999     3610  0     0    
2019/11/12  23:39:00  BASE  8.69652  27   10.4664  25   1.9   84    -0.6  38    0     972.4    NA       0.0000   9999     3610  0     0    
2019/11/12  23:40:00  BASE  8.36724  26   10.4664  25   1.8   84    -0.6  38    0     972.4    NA       0.0000   9999     3580  0     0    
2019/11/12  23:41:00  BASE  7.7028   25   10.4664  25   1.8   84    -0.6  38    0     972.4    NA       0.0000   9999     3640  0     0    
2019/11/12  23:42:00  BASE  7.36176  26   10.4664  25   1.8   84    -0.6  38    0     972.4    NA       0.0000   9999     3870  0     0    
2019/11/12  23:43:00  BASE  7.25004  26   10.4664  25   1.8   84    -0.6  39    0     972.4    NA       0.0000   9999     3900  0     0    
2019/11/12  23:44:00  BASE  7.3206   26   10.4664  25   1.7   85    -0.6  39    0     972.4    NA       0.0000   9999     3870  0     0    
2019/11/12  23:45:00  BASE  7.7322   25   10.4664  25   1.7   85    -0.6  40    0     972.4    NA       0.0000   9999     4170  0     0    
2019/11/12  23:46:00  BASE  8.04384  24   10.4664  25   1.7   85    -0.6  40    0     972.4    NA       0.0000   9999     3310  0     0    
2019/11/12  23:47:00  BASE  8.38488  25   9.67848  26   1.7   85    -0.5  40    0     972.2    NA       0.0000   9999     4360  0     0    
2019/11/12  23:48:00  BASE  8.93172  24   9.83136  25   1.7   85    -0.5  40    0     972.3    NA       0.0000   9999     4270  0     0    
2019/11/12  23:49:00  BASE  8.93172  21   9.83136  25   1.7   85    -0.5  39    0     972.3    NA       0.0000   9999     4200  0     0    
2019/11/12  23:50:00  BASE  8.57304  19   9.83136  25   1.7   85    -0.5  39    0     972.3    NA       0.0000   9999     4230  0     0    
2019/11/12  23:51:00  BASE  8.63184  22   9.89016  19   1.7   85    -0.5  38    0     972.2    NA       0.0000   9999     4270  0     0    
2019/11/12  23:52:00  BASE  9.3786   20   10.5899  19   1.7   85    -0.5  37    0     972.2    NA       0.0000   9999     4360  0     0    
2019/11/12  23:53:00  BASE  9.29628  17   10.5899  19   1.7   85    -0.5  35    0     972.2    NA       0.0000   9999     4330  0     0    
2019/11/12  23:54:00  BASE  8.379    17   10.5899  19   1.7   85    -0.5  34    0     972.2    NA       0.0000   9999     4360  0     0    
2019/11/12  23:55:00  BASE  8.0262   19   10.5899  19   1.7   85    -0.5  33    0     972.3    NA       0.0000   9999     4330  0     0    
2019/11/12  23:56:00  BASE  8.40252  18   10.5899  19   1.7   85    -0.5  31    0     972.2    NA       0.0000   9999     4300  0     0    
2019/11/12  23:57:00  BASE  9.19044  18   10.5899  19   1.7   85    -0.5  30    0     972.2    NA       0.0000   9999     4270  0     0    
2019/11/12  23:58:00  BASE  9.39036  20   10.5899  19   1.7   85    -0.5  29    0     972.2    NA       0.0000   9999     4300  0     0    
2019/11/12  23:59:00  BASE  9.30216  19   10.5899  19   1.7   85    -0.6  28    0     972.2    NA       0.0000   9999     4330  0     0